GFSGL_850_temp_000.txt.gz
Temp
24 24 24 23 22 21 22 21 20 19 18 17 17 17 16 14 14 14 14 14 14 14 14 14 14 14 13 13 13 13 12 12 12 12 11 12 13 12 12 13 13 13 13
25 24 24 23 21 21 21 21 20 20 19 18 17 17 16 15 14 14 14 14 14 14 14 14 14 14 14 13 13 13 13 12 11 11 12 11 12 12 12 12 12 12 12
24 24 23 22 21 21 21 21 20 20 19 18 17 17 16 16 15 15 15 15 15 15 14 14 14 14 14 14 13 13 13 12 12 11 11 11 11 12 11 12 12 11 12
24 24 23 22 22 20 20 20 20 20 19 18 18 17 17 16 16 16 16 15 15 15 15 15 14 14 14 13 13 13 13 12 12 11 11 11 11 11 11 11 11 10 10
24 24 24 23 21 19 19 18 19 19 18 18 18 17 16 16 16 16 16 15 15 15 15 15 14 14 14 14 13 13 12 12 12 11 11 11 11 11 11 11 10 10 10
23 23 23 21 20 18 15 16 17 18 18 18 18 17 16 16 16 16 15 15 15 15 15 14 14 14 14 13 13 13 12 12 11 11 11 11 11 11 11 10 9 9 8
22 21 20 19 18 17 17 17 16 18 19 19 18 17 16 17 17 15 15 15 15 15 14 14 14 14 13 13 13 13 12 12 11 11 10 11 10 11 10 9 9 8 8
22 20 19 18 19 17 19 18 16 18 19 19 17 17 17 16 17 15 15 15 15 14 14 14 13 13 13 13 12 12 12 12 11 10 10 10 10 10 10 9 8 8 9
21 20 19 18 19 18 19 19 16 16 18 17 17 17 17 17 16 16 15 14 14 14 14 14 13 13 12 12 12 11 11 11 10 10 10 10 10 10 9 8 9 8 7
20 20 19 17 17 18 19 17 16 16 16 15 16 16 15 14 15 15 14 15 14 14 13 13 12 12 12 12 11 11 11 10 10 10 11 11 10 10 9 9 9 7 6
21 18 17 17 16 17 17 16 15 16 16 17 17 17 17 14 13 14 15 15 14 13 13 12 12 12 12 11 11 10 9 9 9 9 10 10 9 9 9 9 9 9 7
20 17 16 16 16 18 17 16 15 16 17 17 16 17 16 15 13 14 15 15 14 13 12 12 12 11 11 11 10 9 9 9 8 8 9 9 8 9 9 9 9 9 8
18 16 15 15 15 14 14 14 15 15 16 17 17 15 15 14 14 15 15 14 13 12 11 11 11 10 11 10 9 8 8 8 8 8 8 8 8 8 9 8 9 9 8
18 15 14 14 14 14 15 15 15 15 15 15 15 15 15 15 15 15 14 13 12 11 11 10 10 10 10 10 8 7 7 8 8 7 7 7 8 9 9 8 8 8 9
18 16 15 15 15 15 15 16 15 16 15 16 15 15 15 14 14 13 12 12 11 10 10 10 9 9 8 8 7 7 7 7 7 7 7 8 8 8 9 8 8 8 8
20 19 17 15 16 15 16 16 16 15 15 15 14 14 13 13 13 12 11 11 10 10 9 9 9 8 7 7 7 7 6 7 7 7 7 7 7 7 8 8 8 8 8
19 18 16 17 16 15 16 15 15 15 15 14 13 13 12 12 11 11 10 9 9 9 9 9 8 8 7 7 6 7 6 6 6 6 6 6 7 7 7 7 8 9 8
17 17 17 16 15 15 15 15 15 14 14 13 13 12 12 11 10 10 9 9 9 9 9 8 7 7 7 6 6 6 6 6 6 6 6 6 6 6 7 7 7 8 8
16 16 16 16 16 15 15 14 14 13 13 13 12 11 11 10 10 9 9 8 8 8 7 7 7 6 6 5 5 5 5 6 6 5 5 5 5 6 6 6 7 7 8
16 16 15 15 15 15 14 14 14 13 12 12 11 11 10 10 9 9 9 8 8 7 6 6 5 5 5 5 5 5 5 5 4 4 4 5 5 5 6 6 7 7 7
15 15 15 15 14 14 14 13 13 12 12 11 11 10 10 9 9 9 8 8 7 6 5 5 5 4 4 4 5 5 5 4 4 4 4 4 5 5 5 6 6 7 7
14 14 14 13 13 13 12 12 12 11 11 11 10 10 9 9 9 8 8 7 7 6 5 4 4 4 4 4 5 5 4 4 4 4 4 4 4 5 5 5 6 6 7
13 13 12 12 12 12 11 11 11 10 10 10 10 9 9 8 8 8 7 7 6 5 4 4 4 4 4 4 4 4 4 4 4 4 4 4 4 4 4 5 6 6 6
12 11 11 11 10 11 11 10 10 9 9 9 9 8 8 8 7 7 7 6 6 5 4 3 3 3 4 4 4 4 4 4 4 4 4 4 4 4 4 4 5 5 6
10 10 10 10 10 9 9 9 8 8 8 8 8 8 7 7 7 7 6 6 5 4 3 3 3 3 3 3 3 3 4 3 3 3 3 3 3 3 4 4 4 4 5
10 10 9 9 9 8 9 8 8 8 8 8 8 8 7 7 7 7 6 6 5 4 3 3 3 3 3 3 3 3 3 3 3 3 3 3 3 3 3 3 4 4 4

GFSGL_850_temp_003.txt.gz
Temp
24 24 24 23 23 22 22 23 22 20 21 19 18 17 17 16 16 15 15 14 15 14 14 15 15 14 14 14 14 13 13 12 12 13 13 11 13 13 13 12 12 13 13
25 25 24 24 23 24 23 20 22 20 18 19 18 17 17 16 16 15 14 14 14 14 15 15 15 15 15 14 14 14 13 13 12 11 12 12 11 12 12 12 12 12 12
24 24 24 24 24 23 23 21 20 20 18 18 18 18 18 17 16 15 15 14 14 15 15 15 15 14 15 14 14 14 12 13 12 11 11 12 11 11 11 11 10 10 10
25 24 24 24 24 22 21 19 19 19 17 17 18 18 18 17 16 16 15 15 15 15 15 15 15 14 14 14 14 14 13 13 12 11 11 12 12 12 11 11 11 11 11
24 24 23 21 21 21 21 20 18 18 16 15 17 17 17 16 17 17 15 15 15 16 16 15 14 15 15 14 14 14 13 13 12 12 12 12 12 12 12 11 11 11 11
23 22 21 20 21 20 19 18 19 17 16 15 16 16 16 16 17 16 15 15 15 15 16 15 14 15 14 14 14 13 13 13 13 11 12 12 11 11 11 10 10 10 11
22 21 20 20 20 20 19 17 16 17 18 14 16 16 17 16 16 16 16 15 15 16 15 15 15 15 14 14 13 13 13 13 12 12 11 11 10 10 9 9 9 8 9
21 20 20 19 19 18 17 16 15 17 18 16 16 17 16 16 16 15 15 15 15 15 15 14 14 14 14 13 13 13 13 12 12 11 10 10 10 10 10 9 9 8 9
23 21 20 19 18 18 17 16 15 16 16 16 16 16 16 16 16 15 15 15 14 14 14 15 14 13 13 13 12 12 12 12 11 11 10 10 10 10 10 9 9 8 8
22 21 20 18 17 17 16 15 15 15 15 16 15 15 16 17 17 16 17 16 15 14 13 14 14 13 12 12 12 12 11 11 11 10 10 10 10 10 10 9 8 8 8
23 22 19 18 18 17 15 15 15 15 15 15 16 16 17 17 17 16 16 15 14 14 14 13 13 12 12 11 11 11 11 11 9 9 9 8 8 8 8 8 9 8 8
21 21 18 17 16 16 15 15 15 14 14 15 16 16 17 17 17 16 16 15 14 14 13 13 13 12 11 11 11 11 10 9 8 8 7 7 7 8 9 9 10 10 9
21 19 17 16 16 16 15 16 15 14 13 14 15 16 16 17 17 15 15 15 15 13 13 12 12 11 10 10 10 10 8 8 8 7 7 7 8 8 9 9 10 10 10
20 18 18 17 16 16 15 15 15 15 15 15 15 16 16 16 16 15 15 14 13 12 12 12 11 10 10 10 9 8 7 7 7 7 7 8 8 8 8 9 9 9 9
20 19 18 18 17 16 14 15 15 15 15 15 15 16 16 16 15 14 14 13 13 13 11 11 10 10 9 7 7 7 7 7 6 6 6 7 7 6 7 8 8 7 8
15 15 17 17 16 15 15 15 15 15 15 15 15 15 15 15 14 14 14 13 12 12 11 10 8 8 6 6 6 7 6 6 7 7 6 6 6 6 6 8 6 6 8
17 16 16 15 15 15 15 14 14 14 14 14 15 15 14 14 13 13 13 12 11 10 10 9 7 6 6 7 7 6 6 6 7 6 5 5 5 5 6 6 6 6 8
16 16 15 15 15 15 14 14 14 14 15 15 14 14 13 13 12 12 11 10 10 9 9 8 6 7 7 6 6 6 6 6 6 6 4 4 4 5 5 5 6 7 7
16 16 16 15 15 15 14 14 14 14 14 14 13 13 12 12 11 11 10 9 8 7 8 7 7 6 6 6 6 6 6 6 6 5 4 4 4 4 5 5 5 6 7
16 16 16 16 15 15 15 15 14 13 13 13 12 12 11 11 10 10 10 10 9 8 8 6 6 6 5 5 5 5 5 5 4 3 3 4 4 4 4 5 5 5 6
15 15 15 15 15 14 14 14 14 13 13 12 11 11 11 10 9 9 9 8 8 7 7 6 6 5 5 5 5 5 5 4 4 4 4 3 4 4 4 5 5 5 6
14 14 14 14 13 13 13 12 12 12 11 10 10 11 10 9 9 9 8 8 8 7 6 6 5 5 5 5 5 4 4 4 4 4 4 4 3 4 4 5 5 5 6
13 13 13 13 13 12 12 12 12 11 10 11 10 10 10 9 9 8 8 8 7 6 6 5 5 4 4 5 4 4 4 3 4 4 4 4 3 4 4 4 5 5 5
12 12 12 12 11 11 10 11 11 10 9 9 8 8 9 8 8 8 8 7 7 6 6 5 4 4 4 4 4 4 4 4 4 4 4 4 3 3 3 4 4 4 5
11 11 11 10 10 10 10 9 9 9 9 8 8 8 8 8 8 7 7 7 6 6 5 5 4 4 4 4 4 4 4 4 4 4 4 4 3 3 3 3 3 4 4
10 10 9 9 8 8 9 9 9 8 8 8 8 8 7 7 7 6 7 6 6 6 5 4 4 3 3 3 3 3 3 4 3 3 3 3 2 2 3 3 3 4 4

GFSGL_850_temp_006.txt.gz
Temp
23 23 23 21 20 22 20 21 20 19 19 18 18 18 16 18 15 14 14 15 14 14 14 14 14 14 15 15 16 16 15 15 15 15 15 15 14 13 13 12 12 12 13
24 24 23 21 21 21 23 22 23 20 21 20 19 17 16 16 15 14 14 15 15 14 14 14 14 15 14 14 15 15 15 14 14 14 14 14 14 14 13 12 12 13 13
23 22 22 23 22 20 22 22 21 21 21 19 21 19 17 16 15 14 14 14 14 14 14 14 14 14 14 14 14 14 15 15 15 14 14 14 14 14 14 13 13 13 13
24 23 21 21 20 19 20 22 22 20 20 20 22 19 18 16 15 15 14 14 15 14 14 14 14 14 14 14 14 14 13 13 14 14 14 14 14 14 14 13 14 15 14
24 23 22 20 19 18 19 22 21 20 21 21 21 21 18 16 16 15 15 15 14 15 14 14 14 14 15 15 14 14 14 14 14 14 14 15 14 14 13 14 14 14 14
23 22 22 20 18 18 21 21 20 20 20 20 20 19 17 16 17 15 15 15 14 14 14 14 14 15 15 15 15 14 14 13 13 13 13 13 12 11 13 13 12 12 12
21 21 20 19 19 19 19 19 19 19 18 18 18 18 18 16 16 16 16 15 14 14 14 15 14 14 13 13 14 14 14 14 13 12 11 11 11 11 11 10 10 11 11
21 20 19 19 19 19 19 19 18 18 17 17 16 17 16 15 17 15 15 15 15 14 15 15 15 14 13 13 13 12 13 13 11 11 11 10 10 10 10 9 9 9 9
21 20 21 20 18 19 19 19 18 17 15 14 15 16 13 14 15 16 16 15 14 15 16 16 16 15 13 14 13 13 12 11 11 11 10 11 11 11 11 10 9 9 9
25 24 23 22 20 20 19 18 16 15 14 14 14 14 14 14 16 17 16 16 15 16 16 15 15 14 14 13 13 12 11 11 11 10 9 9 9 9 9 9 9 8 9
25 24 24 22 20 18 17 18 16 15 14 14 14 14 14 15 16 16 16 16 16 15 15 14 13 14 13 13 12 12 10 11 11 10 10 11 11 11 11 10 9 9 9
23 22 22 20 19 17 17 16 16 15 14 14 14 14 14 14 16 16 16 15 15 15 14 14 13 13 13 12 11 11 11 11 10 10 10 11 11 10 10 9 8 8 8
23 21 20 19 16 16 16 16 15 15 14 14 14 14 14 14 16 16 15 15 15 14 13 14 13 12 12 11 11 10 10 9 10 10 10 10 10 9 8 9 9 9 9
21 21 20 18 16 15 15 15 15 15 14 14 14 14 14 15 15 16 15 15 15 14 14 14 13 11 10 10 9 9 8 9 8 8 9 9 8 9 9 9 9 9 9
19 17 16 16 15 15 15 15 15 15 15 15 13 14 14 14 14 13 13 13 13 13 12 11 10 11 11 10 10 9 8 8 8 8 8 8 8 8 9 9 9 9 9
16 16 15 16 15 15 14 14 14 15 15 15 15 14 15 14 15 14 14 14 14 13 12 11 12 11 11 10 10 9 9 8 8 7 7 8 8 8 8 8 8 9 8
16 16 16 16 16 16 15 15 14 14 14 15 15 15 15 15 14 14 14 13 13 12 11 12 11 10 10 9 9 8 8 8 7 7 7 7 7 7 7 8 8 8 8
15 16 16 16 16 16 15 15 15 15 14 15 15 14 14 14 13 13 13 12 12 11 11 11 10 9 9 8 8 8 7 7 7 7 7 7 7 7 7 8 8 8 8
15 15 16 16 15 15 14 15 15 15 15 13 14 13 13 13 13 12 12 11 11 11 10 10 9 9 8 7 7 6 6 6 6 5 6 7 7 7 7 7 8 8 8
15 15 15 16 14 14 14 14 14 14 14 13 12 12 13 12 11 11 11 9 10 10 9 9 8 7 7 6 6 5 6 6 6 6 6 6 6 7 7 7 8 8 9
16 15 15 15 15 15 15 15 15 15 14 14 14 13 11 11 12 11 10 9 9 9 8 8 7 7 6 5 5 5 6 6 6 6 6 6 6 7 7 7 8 9 9
15 14 15 15 15 14 14 14 14 14 14 14 14 12 11 11 10 10 10 9 9 8 8 7 7 7 6 5 5 5 5 6 5 5 5 5 6 7 7 7 8 8 8
14 14 14 14 14 14 13 14 14 14 14 13 13 11 11 10 10 10 9 9 8 8 7 6 6 6 5 4 4 4 5 5 4 4 4 5 6 6 6 7 7 8 8
14 14 14 14 13 13 14 14 13 12 12 11 10 11 10 10 10 9 8 8 8 7 6 6 6 5 4 4 4 4 4 3 4 4 4 4 5 5 6 6 7 7 7
13 13 13 13 13 13 13 13 13 13 12 12 12 11 11 10 9 7 7 7 7 7 6 6 5 5 4 4 4 3 4 5 5 5 4 4 4 4 6 6 6 7 7
13 12 12 12 12 12 12 12 12 12 12 12 11 11 11 10 10 9 8 8 8 7 6 6 5 4 4 4 3 4 5 5 5 5 4 3 4 5 4 5 5 6 6

GFSGL_850_temp_009.txt.gz
Temp
21 21 21 20 20 20 21 20 20 20 19 19 19 19 19 17 19 20 15 16 16 15 14 15 15 15 15 16 17 17 17 17 16 16 16 16 15 15 14 14 14 14 14
22 22 21 21 21 20 20 20 20 20 19 20 21 21 19 19 18 18 19 16 15 15 15 15 15 15 15 15 15 16 16 16 15 15 15 15 15 15 15 15 14 14 14
23 23 22 21 21 21 20 20 21 20 19 21 21 22 19 19 19 20 20 17 15 15 15 15 15 15 15 15 15 15 15 15 15 15 15 15 14 14 15 15 14 14 14
25 24 23 22 21 21 21 20 21 20 19 22 21 22 20 19 20 19 19 18 15 15 15 15 15 15 15 15 14 14 14 14 15 15 15 15 14 15 15 15 14 14 14
26 25 24 22 21 21 21 20 20 19 19 21 22 22 21 18 18 18 18 18 16 15 15 15 14 15 15 15 14 14 14 15 15 15 15 15 15 15 14 14 13 13 14
26 25 25 23 22 21 21 20 19 19 17 18 19 21 21 19 17 17 18 18 15 15 15 15 15 15 15 15 15 15 14 13 13 14 13 13 13 13 13 12 12 13 13
26 25 25 23 23 21 20 19 19 18 17 18 19 19 19 16 15 18 18 16 15 15 15 15 15 15 15 16 15 15 15 13 13 13 12 12 12 12 12 11 11 11 11
24 24 24 23 22 20 19 19 18 17 17 17 17 17 15 14 15 17 17 16 15 15 15 15 15 14 14 15 15 14 14 13 13 12 12 12 11 11 11 11 10 10 10
23 22 22 21 20 19 19 18 18 17 16 16 15 15 15 15 14 16 15 14 15 15 15 15 14 15 15 15 15 14 14 13 12 12 12 12 11 11 11 10 10 11 11
22 21 21 20 20 19 18 18 17 16 16 15 15 15 15 15 15 14 14 16 15 15 15 15 15 15 15 14 14 14 13 12 12 12 12 11 11 11 11 11 11 10 11
22 21 21 19 19 18 17 17 17 17 16 15 15 15 15 15 15 15 16 16 15 16 15 14 15 15 15 15 14 13 13 12 11 11 11 11 12 12 13 12 11 10 10
21 20 19 18 18 18 18 17 17 16 15 15 15 15 15 15 14 15 15 16 15 15 14 14 14 14 14 14 13 13 12 11 11 10 12 13 12 12 12 11 10 10 10
20 19 18 18 17 17 17 17 16 15 15 15 15 15 15 15 15 15 15 16 16 15 15 14 14 14 14 13 12 11 11 11 10 11 12 12 12 11 10 10 10 10 10
19 20 18 17 17 16 16 16 15 15 15 16 15 15 15 15 14 15 15 15 15 15 14 14 14 13 13 11 11 11 10 9 10 10 10 10 10 10 10 10 10 10 10
17 17 18 17 16 16 16 15 15 15 15 16 16 15 15 14 15 15 15 15 15 13 13 13 13 12 13 13 12 11 10 10 10 10 10 10 10 10 10 10 10 9 10
17 17 16 15 15 15 15 15 15 15 15 15 16 15 15 15 15 15 14 14 13 13 13 13 14 14 14 13 13 12 11 11 10 10 9 9 9 9 9 9 9 9 10
18 18 18 18 18 17 17 16 15 15 15 16 15 15 15 15 15 14 14 13 13 13 13 14 14 13 13 12 12 11 11 10 10 9 9 9 9 9 9 9 9 9 9
18 18 18 19 19 19 18 17 17 15 15 15 15 15 15 15 14 14 14 14 13 13 12 13 13 13 12 11 11 10 10 9 9 9 8 8 9 9 9 9 9 9 9
17 18 19 19 19 18 18 17 18 18 17 15 15 14 14 14 13 13 13 13 13 14 14 13 12 11 11 10 10 9 8 8 8 7 7 8 8 9 9 9 9 9 10
17 17 18 18 17 17 17 17 18 18 17 15 13 12 14 13 13 13 13 12 12 13 13 12 11 10 10 9 8 8 8 8 8 8 8 8 8 8 9 9 9 10 10
18 17 17 18 17 18 17 17 18 18 18 17 16 14 14 14 13 13 13 12 11 12 11 11 10 9 9 8 7 7 8 8 8 8 8 8 8 8 8 9 9 10 10
18 17 17 18 18 17 17 17 17 17 17 17 16 14 13 13 13 13 13 12 11 11 11 10 9 10 9 8 8 7 8 8 8 7 7 7 7 8 8 8 9 9 10
17 17 17 17 17 16 16 16 17 16 16 15 15 14 13 13 13 12 11 11 11 10 10 9 9 9 8 7 7 7 7 8 7 6 6 6 7 7 7 8 9 9 9
16 17 16 16 15 16 16 16 15 15 15 15 14 13 12 12 11 11 11 10 10 10 9 9 8 8 8 7 7 6 6 6 5 5 5 5 6 7 7 8 8 8 9
16 15 15 15 15 15 16 15 15 15 14 13 13 12 12 11 11 11 10 9 9 8 8 8 8 7 6 6 6 6 6 5 5 6 6 4 6 6 7 7 7 8 8
15 15 15 15 14 14 15 15 15 15 14 13 14 13 12 12 12 11 10 9 9 8 9 9 8 7 6 5 5 5 5 5 6 6 6 6 5 6 5 6 7 8 8

GFSGL_850_temp_012.txt.gz
Temp
21 21 21 21 22 22 21 21 21 21 21 21 20 20 20 19 18 18 18 17 17 18 18 16 16 16 16 16 16 16 17 17 16 16 16 16 16 15 15 15 15 15 14
21 21 22 22 22 22 22 21 21 20 20 20 20 20 20 20 19 19 18 17 17 17 18 17 16 16 16 16 16 16 16 16 16 15 15 15 15 15 15 15 15 14 14
21 22 22 22 22 23 23 23 21 21 21 20 20 20 20 20 20 20 19 19 18 18 17 17 17 16 15 15 15 15 16 16 15 15 15 16 15 15 15 15 15 15 14
22 22 22 22 23 24 23 23 23 22 21 20 20 20 20 20 19 19 18 18 18 17 16 16 16 15 15 16 16 16 15 15 15 14 14 15 15 15 15 14 14 14 14
24 23 22 22 23 22 22 21 22 21 21 20 19 19 19 19 18 18 17 17 17 16 16 16 16 15 15 16 15 15 15 15 15 15 15 15 14 14 14 14 14 14 14
25 24 24 23 22 22 21 21 20 20 20 19 19 19 18 18 18 18 17 16 16 16 16 15 15 15 16 15 15 15 15 15 15 15 14 15 14 14 13 13 12 12 12
27 25 25 24 23 23 22 21 20 20 20 20 19 18 17 16 16 16 16 16 16 16 15 15 15 16 15 15 15 15 15 15 15 14 14 14 13 13 12 12 12 11 11
27 26 25 25 24 23 22 21 21 20 20 19 19 18 17 16 15 16 16 16 16 15 15 15 16 16 15 15 16 15 15 15 14 14 14 13 13 12 12 11 11 11 11
27 27 26 25 24 23 22 21 20 20 19 18 18 17 16 15 14 15 16 16 15 15 15 15 16 16 16 15 15 14 14 14 14 14 13 12 12 12 12 12 12 12 11
26 26 25 24 23 22 21 21 20 19 18 17 17 16 16 15 15 15 15 15 14 15 15 15 15 15 15 15 14 14 14 14 13 12 12 12 12 12 12 12 12 11 11
25 24 23 23 22 21 21 20 18 17 17 17 16 16 16 16 15 15 15 14 14 14 15 15 14 15 15 15 14 14 14 13 13 12 12 12 12 12 12 12 12 11 10
23 22 22 21 21 20 20 18 18 17 17 17 16 16 16 15 15 15 15 14 15 15 14 14 14 15 15 15 14 14 13 12 12 12 12 12 12 12 12 12 11 11 11
22 21 20 20 19 19 18 17 17 17 16 16 16 17 16 15 15 15 15 15 15 15 15 15 15 15 14 14 14 13 13 12 11 11 11 11 11 11 11 11 10 10 10
20 20 20 19 18 18 17 17 17 16 16 16 16 16 16 15 16 15 15 15 15 15 15 15 14 14 14 14 13 13 12 12 11 11 10 10 10 10 10 10 10 10 9
20 19 18 17 17 17 16 16 16 16 16 16 16 16 15 15 15 15 15 16 15 15 14 14 14 14 14 14 13 12 12 11 11 10 10 10 10 9 9 9 9 9 9
19 18 17 16 16 16 16 15 15 16 16 16 16 16 16 15 15 15 15 15 15 14 13 13 13 13 14 14 13 12 12 11 11 11 10 10 9 9 9 9 9 9 9
17 17 16 16 16 15 16 16 15 15 15 15 15 16 16 15 15 15 15 15 14 13 13 13 14 14 14 13 12 12 12 11 11 10 9 9 9 9 9 9 9 9 9
18 18 17 18 18 18 17 17 16 16 15 16 15 16 15 15 15 15 14 14 13 14 14 13 13 13 13 12 11 11 10 10 10 9 9 9 8 9 9 9 9 9 9
18 18 19 20 19 19 18 18 17 17 16 17 16 16 15 15 15 14 14 14 13 14 14 13 13 12 12 11 11 10 9 9 8 8 8 8 9 8 8 9 9 9 10
18 18 19 19 19 19 18 18 18 18 16 17 17 16 16 15 14 14 14 13 13 13 13 13 12 11 11 10 9 9 8 8 8 8 8 8 8 8 8 8 9 9 10
18 18 18 19 19 18 18 18 18 18 18 17 16 16 16 15 15 14 14 13 13 12 12 12 11 10 10 9 9 8 8 8 8 8 8 8 8 8 8 8 9 9 10
19 18 18 18 18 18 18 18 18 18 18 17 16 16 15 15 14 14 14 13 12 12 12 11 10 10 10 9 9 8 8 8 8 8 7 7 7 7 8 8 8 9 9
19 18 18 18 18 18 17 17 17 17 16 15 15 15 14 14 13 14 14 12 12 11 11 11 10 9 9 9 8 7 7 8 8 7 6 6 6 7 7 7 8 8 9
17 17 18 17 17 17 16 16 15 15 15 15 15 14 13 13 13 13 13 12 12 11 10 10 9 9 9 8 8 7 7 7 7 6 6 6 6 6 7 7 8 8 8
15 16 16 15 16 16 15 16 16 16 15 15 14 13 13 13 13 13 11 11 11 11 10 10 9 8 8 7 7 7 7 7 6 6 6 6 6 6 7 7 7 8 8
16 16 16 15 15 15 15 15 16 15 15 15 15 14 13 13 12 11 11 11 11 10 9 9 9 8 8 7 6 6 6 6 6 6 6 6 6 6 6 6 7 7 8

GFSGL_850_temp_018.txt.gz
Temp
25 24 24 23 22 22 21 21 21 20 20 20 20 21 21 20 20 20 20 21 21 20 19 18 18 17 17 16 16 16 16 17 16 16 16 16 16 16 16 16 15 15 15
25 25 24 24 23 22 22 22 22 21 20 20 20 21 21 21 20 20 20 20 21 20 20 19 17 17 17 16 16 16 16 16 16 16 16 16 16 16 16 16 15 15 14
25 25 24 24 23 23 23 22 22 21 21 20 20 20 21 21 20 20 20 20 20 21 20 19 18 17 17 16 16 16 16 16 16 16 16 16 16 15 15 15 15 14 14
26 25 24 24 24 24 23 23 23 22 21 21 20 20 20 20 20 20 20 20 19 20 20 19 18 17 16 16 16 16 16 15 16 15 16 16 15 15 15 14 14 14 14
26 25 25 25 25 24 24 24 23 22 22 21 21 20 20 20 20 20 20 19 19 19 19 19 18 18 17 16 16 16 16 15 15 15 15 15 15 15 14 13 13 13 13
26 26 26 25 25 24 24 24 23 23 22 21 21 20 20 20 20 20 20 19 19 17 17 18 18 18 17 16 16 15 15 15 15 14 13 14 14 14 14 13 13 13 12
27 26 26 26 25 25 24 23 23 23 22 21 20 20 20 20 20 20 19 19 18 17 16 17 17 17 16 16 15 15 14 14 14 14 14 14 14 14 13 13 12 12 12
27 26 26 26 26 25 24 24 23 22 22 21 21 20 20 20 20 20 19 18 17 16 16 16 16 17 16 15 14 14 14 14 14 13 13 13 13 13 13 13 12 12 12
26 26 27 26 26 24 24 24 23 22 22 22 22 21 21 22 20 19 18 18 17 16 16 16 16 15 15 14 14 14 14 14 13 13 13 13 13 13 12 12 12 11 11
28 29 28 27 26 25 24 24 24 23 23 22 21 20 20 20 20 19 18 17 16 16 15 15 15 15 15 14 14 14 14 14 14 13 13 13 12 12 12 12 11 11 11
31 28 26 26 26 26 24 23 23 23 22 22 20 19 19 20 19 17 17 16 16 16 15 15 15 14 14 14 14 14 14 14 14 13 13 13 12 12 11 11 11 11 11
28 25 25 25 25 25 24 23 23 23 22 21 20 20 19 18 17 17 16 16 15 15 15 14 14 14 14 14 14 14 14 14 13 13 13 12 11 10 10 10 10 10 10
25 24 24 24 24 24 23 23 22 22 21 21 20 20 18 17 16 16 16 15 15 15 14 14 14 14 14 14 14 14 13 13 13 13 12 11 11 11 11 10 10 10 9
26 24 24 24 23 22 22 23 23 22 22 21 19 18 17 16 16 16 15 15 15 14 14 14 14 14 14 14 14 14 14 13 13 13 12 11 11 10 10 10 10 9 9
25 24 23 22 22 21 21 21 22 23 22 20 18 17 17 16 16 16 15 16 15 15 14 14 14 14 14 14 14 14 13 13 12 12 11 11 10 9 9 9 9 9 9
24 25 24 23 21 20 22 21 19 17 18 18 17 18 17 16 16 16 16 16 16 15 15 14 14 14 14 13 13 13 13 13 12 11 10 10 9 9 9 9 8 8 8
25 24 23 22 21 21 20 19 17 16 16 17 17 17 16 17 16 16 16 16 16 15 14 14 14 13 13 13 13 13 12 12 12 11 10 10 10 9 9 8 8 8 8
23 20 22 20 21 20 20 18 18 18 17 16 15 16 16 16 16 16 16 15 15 14 14 14 13 13 13 13 13 12 11 11 10 10 9 9 9 8 8 8 8 8 8
22 21 20 20 18 18 17 17 16 16 16 16 16 15 15 15 16 15 15 15 15 14 14 13 13 12 12 13 12 12 11 10 9 9 9 8 8 8 8 8 8 8 8
20 18 18 17 17 16 17 17 17 16 16 16 16 16 16 16 15 15 15 15 14 14 13 13 13 12 12 12 12 11 11 10 9 9 8 8 8 8 7 7 7 7 8
18 17 18 18 19 19 18 17 18 18 17 17 17 17 17 17 17 16 15 15 14 14 13 13 13 12 12 12 11 11 10 9 9 8 8 8 8 8 7 7 7 7 8
17 18 17 18 17 17 18 18 17 18 18 17 17 17 16 16 16 15 15 14 14 13 13 13 13 12 12 11 11 10 9 9 9 8 8 8 8 7 7 7 7 7 8
17 17 18 18 18 17 17 17 17 17 17 17 17 16 16 16 15 15 14 14 13 13 13 13 13 12 12 11 11 10 10 9 8 8 7 7 7 7 7 7 7 7 7
17 17 17 17 17 17 17 17 17 17 17 17 16 16 15 15 15 14 14 14 14 13 12 12 12 12 11 11 10 10 9 8 8 7 7 7 7 7 7 6 6 6 7
16 17 16 17 15 16 16 16 16 16 16 16 16 16 15 15 14 14 14 13 13 13 12 12 11 11 11 10 10 9 8 7 7 7 7 7 7 7 7 6 6 6 6
15 15 16 16 15 15 15 15 15 14 14 14 15 15 15 15 14 14 13 13 12 12 11 11 11 10 10 9 9 9 8 8 7 7 7 7 7 7 6 6 6 6 6

GFSGL_850_temp_021.txt.gz
Temp
25 25 24 24 23 22 22 22 22 21 21 20 21 21 20 20 20 20 20 19 20 20 20 20 19 18 17 16 16 16 16 16 16 17 17 16 16 16 16 15 15 15 15
26 25 25 25 24 23 22 22 22 21 21 21 21 20 20 20 20 20 20 20 20 20 20 20 20 18 18 17 16 16 16 16 16 16 16 16 16 16 16 15 15 15 15
26 25 25 25 24 24 23 22 22 22 21 21 20 20 20 20 20 20 20 20 19 20 20 20 20 19 18 17 17 16 16 16 16 15 15 16 16 15 16 15 15 15 14
26 25 25 25 25 25 24 23 22 23 22 21 21 20 20 20 20 20 20 20 20 19 19 19 19 19 19 18 16 16 16 15 15 15 15 15 15 15 15 15 14 14 14
26 26 26 26 26 25 24 23 23 23 22 22 21 21 20 20 20 20 20 20 20 19 19 18 18 18 18 18 17 16 15 15 15 15 15 15 15 15 14 14 13 14 14
26 27 27 26 26 26 25 24 23 22 22 22 22 21 21 21 20 20 20 20 19 19 18 17 17 17 17 17 17 16 15 15 15 14 14 14 14 14 13 13 12 13 13
27 26 26 26 26 26 25 24 23 23 22 22 22 22 21 21 21 21 20 20 19 19 18 17 16 16 17 17 17 16 15 15 14 13 14 14 14 13 12 13 12 12 12
28 26 24 25 27 26 25 24 24 23 23 23 23 22 22 22 22 21 20 19 19 19 18 18 16 16 16 16 16 15 15 14 14 14 13 14 13 13 12 12 12 12 12
27 27 27 26 26 25 26 25 24 22 23 23 23 22 22 22 21 20 19 18 18 19 18 18 16 16 16 15 15 15 15 14 14 13 14 14 13 13 12 12 12 11 11
29 30 29 27 26 26 27 26 24 23 23 22 22 22 22 21 20 20 19 18 18 18 17 17 16 16 15 15 15 15 14 14 14 14 13 13 13 12 12 12 11 11 10
31 31 26 26 26 26 26 25 25 23 22 22 21 22 21 21 21 21 21 19 18 16 17 16 16 15 15 14 14 14 14 14 14 13 13 13 12 12 12 11 10 10 10
29 28 27 27 26 24 24 23 23 21 21 22 21 21 21 21 21 20 22 18 17 16 16 16 15 14 14 14 14 14 13 13 13 13 13 12 13 12 11 10 10 10 10
27 27 26 25 25 22 23 22 21 22 21 20 21 21 20 20 18 18 19 18 16 16 15 14 14 14 14 14 14 14 13 13 13 13 13 13 12 12 11 11 10 10 9
29 29 28 25 23 25 24 22 22 22 21 21 22 21 20 19 19 18 19 17 17 15 14 14 14 14 14 14 14 14 14 13 13 13 13 12 11 11 11 10 10 9 9
25 25 24 23 21 21 19 19 19 21 23 23 22 22 21 19 21 20 19 17 16 15 15 14 14 14 14 14 14 14 14 13 13 13 12 11 11 11 10 9 9 9 8
23 22 21 20 20 19 18 19 19 22 22 21 19 18 19 18 19 18 16 15 15 15 14 14 14 14 14 14 14 13 13 13 13 13 12 11 11 10 9 9 8 8 8
20 18 18 19 18 19 18 17 17 16 15 16 18 17 17 17 17 16 16 16 16 15 14 14 14 14 14 14 13 13 13 13 12 12 11 11 10 9 9 9 8 8 8
18 18 18 17 17 18 18 18 20 18 14 14 17 17 16 16 16 16 16 15 15 15 15 15 14 13 13 14 13 13 12 12 11 11 10 10 9 9 8 8 8 7 7
16 16 16 17 16 15 16 18 18 17 14 15 16 15 15 16 16 16 15 16 16 15 15 14 14 13 13 13 13 12 12 11 11 10 9 9 8 8 8 8 7 7 7
16 15 15 15 18 16 16 16 16 15 16 16 16 16 16 15 16 15 15 15 15 15 14 14 14 13 13 12 12 12 11 10 10 9 9 8 8 8 8 7 7 7 7
14 17 17 19 17 17 17 16 16 16 16 16 16 16 17 17 17 15 15 15 15 15 14 14 13 13 12 12 12 11 11 10 10 9 9 8 8 8 7 7 7 7 7
17 17 18 18 17 16 16 16 16 17 17 17 17 17 16 16 16 15 15 15 15 14 14 13 13 13 12 12 11 11 10 10 9 9 9 8 8 7 7 7 7 7 7
17 18 17 18 18 17 17 17 17 17 17 16 16 16 16 16 16 15 15 15 14 14 14 13 13 12 12 12 11 11 10 9 9 8 8 8 7 7 7 7 6 6 7
17 17 17 17 17 17 17 16 16 16 17 16 16 16 16 16 16 16 15 14 14 13 13 13 13 12 11 11 11 10 10 9 9 8 7 7 7 7 7 7 6 6 6
16 16 16 17 17 17 17 16 17 17 17 17 16 16 16 16 16 15 15 14 14 13 13 13 12 12 11 11 11 10 9 9 8 7 7 7 7 6 6 7 6 6 6
15 15 16 16 16 16 15 16 16 16 16 16 16 16 15 15 15 15 14 14 13 13 13 12 12 11 11 10 10 9 9 8 8 8 7 7 7 7 6 6 6 6 6

GFSGL_850_temp_024.txt.gz
Temp
25 25 25 24 24 23 23 23 22 21 21 21 21 20 20 20 20 19 19 19 19 20 20 20 20 19 19 18 17 16 16 16 16 16 16 16 16 16 15 15 15 15 15
26 26 25 25 24 24 23 23 22 22 21 21 21 20 20 20 20 20 20 20 19 19 20 20 20 19 19 19 18 16 16 16 16 16 16 16 16 16 15 15 15 15 15
25 26 25 25 25 24 24 24 23 22 21 21 21 21 21 21 20 20 20 20 20 19 19 19 19 19 19 18 18 17 16 16 15 15 15 15 15 15 15 15 15 14 14
24 25 25 26 26 26 26 25 24 23 22 21 21 21 21 20 20 20 20 20 20 19 19 18 18 18 18 17 17 17 16 16 15 15 15 15 15 15 15 15 15 15 14
26 25 25 26 26 26 26 25 24 24 23 22 22 21 21 21 20 21 20 20 20 19 19 19 18 18 17 18 17 16 16 15 15 15 15 15 15 14 14 14 15 14 15
27 28 26 24 25 26 26 26 25 25 24 23 22 22 21 21 21 21 20 20 20 19 19 19 18 17 16 17 16 16 15 15 15 15 15 14 14 14 14 14 14 14 13
28 28 27 26 26 26 25 26 26 25 24 23 22 22 22 21 21 21 20 20 20 19 19 19 18 17 17 17 16 16 16 15 15 15 14 14 14 14 14 14 13 13 13
28 27 27 26 26 25 24 25 26 25 25 24 23 23 22 22 21 21 21 20 20 20 19 19 18 18 17 16 16 16 15 15 15 15 14 14 14 13 14 13 13 13 12
28 26 25 26 26 26 25 26 26 25 25 25 24 23 23 23 22 22 21 20 20 20 19 19 18 17 17 16 15 15 15 15 15 14 14 14 13 13 13 13 13 12 11
29 29 29 27 26 27 27 27 26 25 25 25 24 24 23 23 22 22 21 20 20 19 19 18 17 17 16 16 15 15 15 15 14 14 14 13 13 13 13 13 12 11 10
30 27 26 25 26 27 27 24 23 23 23 24 24 24 23 22 23 22 21 21 20 19 19 18 18 17 16 16 15 15 15 14 13 13 13 13 13 13 13 12 11 10 10
27 27 26 25 25 25 25 23 26 22 22 23 22 22 23 22 22 22 21 19 19 18 18 17 17 16 16 16 15 15 15 13 13 13 13 13 13 13 12 12 11 10 10
24 24 24 23 21 22 22 23 24 25 20 18 19 19 21 22 22 21 20 19 18 18 17 16 16 16 15 15 15 14 14 13 13 13 13 13 13 12 12 11 10 10 10
23 22 23 22 22 21 20 19 19 23 21 24 21 19 20 21 21 19 18 18 17 16 16 15 15 15 15 15 15 14 14 14 13 13 13 13 13 12 11 11 10 10 9
24 23 22 21 21 20 19 20 18 19 19 19 18 18 18 21 20 21 19 16 17 16 15 15 14 14 15 15 14 14 14 13 13 13 13 13 12 11 11 10 10 9 9
24 24 23 22 21 20 19 18 19 19 19 19 18 18 19 18 15 15 15 15 16 16 14 16 16 15 15 14 14 14 13 13 13 13 12 12 12 11 10 10 9 9 8
24 24 22 21 21 20 18 18 18 18 19 19 16 19 19 19 16 14 16 15 15 14 15 16 15 14 14 14 14 13 13 13 13 12 12 12 11 10 10 9 9 8 8
22 20 21 21 20 18 18 18 17 18 16 15 17 19 19 19 21 19 15 14 14 14 17 16 15 14 13 14 13 13 13 13 12 12 11 11 10 9 9 8 8 8 7
15 16 16 17 17 17 17 15 14 13 12 12 15 15 17 18 16 17 16 16 16 16 15 14 14 14 14 13 13 13 12 12 12 11 11 10 9 8 8 8 8 7 7
15 15 15 14 13 15 14 15 16 17 15 14 13 13 14 16 15 15 16 15 16 16 15 15 15 14 13 13 13 12 12 11 11 10 10 9 9 9 8 8 7 7 7
15 15 15 15 13 13 14 16 18 17 17 17 14 14 14 16 17 16 15 15 15 15 15 15 14 14 13 13 12 12 11 11 10 9 9 9 8 8 8 7 7 7 7
15 15 15 16 14 15 14 16 17 17 17 17 16 15 16 17 16 16 16 16 15 15 15 15 14 13 13 12 12 11 11 10 10 9 9 8 8 8 7 7 7 7 7
17 17 17 17 17 17 16 14 16 14 15 17 17 16 16 16 16 15 15 15 15 15 14 14 13 13 12 12 11 11 11 10 9 9 9 8 8 7 7 7 7 7 6
17 17 17 17 17 17 16 17 17 17 17 17 16 16 16 16 15 15 15 15 15 14 14 13 13 12 12 12 11 11 10 9 9 9 8 8 7 7 7 7 7 7 6
16 16 16 16 15 15 15 15 14 14 15 15 15 16 15 14 14 14 15 15 14 14 14 13 13 12 12 11 11 11 10 9 9 9 8 7 7 6 6 6 6 7 6
14 14 15 15 15 14 14 13 13 13 14 15 15 15 15 14 13 13 13 13 13 13 13 13 13 12 12 11 11 10 9 9 8 8 8 7 7 6 6 6 6 6 6

GFSGL_850_temp_027.txt.gz
Temp
26 26 25 25 24 24 23 23 23 22 21 21 20 21 21 20 20 20 19 19 20 20 21 20 20 20 19 19 19 18 17 17 16 16 16 16 16 16 16 16 15 15 15
27 26 26 26 25 25 24 24 24 23 22 21 21 20 21 21 20 20 20 20 20 21 21 20 21 20 19 19 19 19 18 17 16 16 16 16 16 16 15 15 15 15 15
25 26 26 26 26 25 25 25 24 24 23 22 21 21 21 21 21 21 20 20 20 20 20 20 20 19 19 19 19 18 18 17 16 15 15 16 16 15 15 15 15 15 15
25 25 26 26 26 26 26 25 25 24 24 23 22 21 21 21 21 21 21 20 20 20 20 20 20 19 19 19 18 18 17 17 16 16 14 15 15 15 15 14 14 15 15
24 25 27 27 26 26 25 25 25 24 24 24 23 22 22 22 21 21 21 21 20 20 20 20 20 19 18 18 17 17 17 16 15 15 14 14 14 15 15 14 15 14 15
27 28 28 26 26 26 26 26 25 25 24 24 24 23 22 23 22 22 21 21 21 20 20 20 19 19 19 18 17 17 17 16 16 15 14 14 15 15 14 14 13 13 13
28 28 27 27 27 26 25 25 26 25 25 25 24 24 23 23 23 23 22 21 21 20 20 20 19 19 19 18 18 17 16 16 15 15 15 15 15 15 14 14 13 13 13
26 26 26 26 27 25 24 25 26 26 26 26 25 24 24 23 23 23 22 22 21 21 20 20 20 19 19 18 18 17 16 15 16 15 15 15 15 14 13 13 13 13 13
27 27 27 26 26 25 24 25 25 25 25 26 25 25 25 24 24 23 22 22 21 21 20 20 19 19 18 18 17 16 16 15 15 15 15 14 14 14 13 13 13 13 12
28 29 29 27 26 26 27 25 25 24 25 25 26 26 25 25 24 24 23 22 21 20 20 20 19 19 18 18 17 16 15 15 15 15 15 14 14 14 13 13 12 12 12
26 25 25 25 25 23 22 21 21 20 19 24 24 27 26 25 24 24 23 22 21 21 20 20 20 19 18 17 16 16 16 15 15 14 14 14 14 13 13 13 13 11 11
26 26 26 26 25 23 22 23 27 21 18 18 18 21 25 26 25 24 23 23 21 21 21 20 19 18 18 17 16 15 15 14 14 14 14 14 13 13 13 13 12 11 11
25 25 24 24 24 23 22 21 21 19 19 19 18 18 18 19 24 24 24 22 20 19 19 19 19 18 17 15 15 15 14 14 14 14 14 14 13 12 13 12 12 11 11
26 26 26 25 23 22 20 18 20 21 21 24 18 19 18 19 18 23 22 21 20 19 18 18 18 16 15 15 15 14 14 14 14 14 13 13 13 13 12 12 11 10 10
25 25 24 23 23 22 22 22 21 21 24 26 24 22 18 21 22 18 18 18 17 17 17 17 15 15 15 15 14 14 14 14 14 14 13 13 13 12 11 11 11 10 10
24 24 23 23 21 20 20 21 21 20 22 23 22 18 20 24 21 17 18 18 18 14 16 15 14 14 14 14 14 14 14 14 14 14 13 13 12 12 10 11 10 10 9
22 22 20 21 19 18 20 19 19 18 19 18 18 18 19 19 18 17 17 18 19 17 14 15 15 15 14 14 14 14 14 14 14 14 13 12 11 10 11 10 10 9 8
22 22 21 17 17 17 17 17 18 18 19 18 18 18 18 16 16 18 18 16 16 15 16 15 14 14 14 14 14 14 14 14 13 13 12 12 12 11 10 9 9 8 8
17 16 16 16 16 16 16 16 17 18 18 17 16 15 15 16 16 17 16 16 15 13 13 14 14 14 14 14 14 14 14 13 13 12 12 12 11 11 9 9 8 8 8
16 16 15 15 15 14 14 14 13 12 13 16 15 17 16 15 15 15 14 13 16 14 15 14 14 14 14 14 14 14 13 13 12 12 11 11 10 9 9 8 8 8 7
16 16 15 16 16 15 16 16 16 14 13 13 11 14 14 15 14 13 14 14 16 15 15 15 15 14 14 14 14 13 13 12 12 11 11 10 10 9 8 8 8 8 8
16 14 15 16 15 15 13 14 14 13 12 12 13 14 13 14 14 14 15 15 16 15 16 16 15 15 14 14 13 13 12 11 11 11 10 9 9 9 8 8 8 8 7
17 16 15 16 15 15 15 13 13 13 14 14 14 14 14 15 15 16 15 15 15 16 16 15 15 14 14 13 13 12 11 11 11 10 9 9 9 8 7 7 7 7 7
16 16 16 15 14 13 14 14 13 14 15 15 15 15 15 15 15 15 16 16 15 15 15 14 14 13 13 13 12 11 11 10 10 10 9 9 8 7 7 7 7 7 7
16 16 15 15 16 15 14 14 14 15 14 14 14 14 14 15 15 15 15 15 15 15 14 14 14 13 13 12 12 11 11 11 10 10 9 9 8 7 7 7 7 7 6
14 14 14 14 14 14 14 14 14 14 13 13 13 13 14 14 13 14 14 14 14 14 14 14 13 13 13 12 12 11 11 10 10 9 9 8 7 6 6 6 6 6 6

GFSGL_850_temp_030.txt.gz
Temp
25 25 25 24 24 24 23 23 23 23 22 22 21 21 19 19 21 21 20 19 20 20 20 19 21 20 18 18 18 18 18 18 19 19 18 17 17 17 16 16 15 15 16
27 27 26 25 25 25 24 24 24 23 23 22 22 21 21 19 20 21 21 19 20 20 20 20 20 20 20 19 17 18 18 18 18 18 18 17 16 16 16 16 16 16 16
23 25 26 26 26 25 25 25 25 24 24 23 22 22 21 21 20 21 21 21 21 21 20 20 20 20 20 18 20 18 17 16 17 17 18 17 17 16 15 15 14 15 15
23 22 24 27 27 27 26 26 26 25 24 24 23 23 22 21 21 21 22 21 21 21 21 20 20 20 20 20 20 20 18 17 16 16 17 17 17 16 15 16 16 15 15
24 23 23 27 27 27 27 27 26 25 25 25 24 23 23 22 20 22 22 22 21 21 21 21 20 20 20 20 19 19 17 17 17 17 17 17 17 17 16 16 15 15 16
24 23 23 23 25 27 26 26 26 26 26 25 25 24 24 23 22 21 23 22 22 22 21 21 20 20 20 19 19 18 18 17 16 17 17 18 17 16 15 15 15 16 16
24 23 22 23 24 26 24 23 25 25 24 26 25 25 24 24 23 23 23 23 22 22 22 20 19 19 20 20 19 18 17 17 17 15 16 16 17 15 15 14 14 14 14
24 24 23 22 23 22 22 23 24 24 23 23 25 25 25 24 24 24 23 23 22 21 21 21 21 20 19 20 20 19 18 17 17 16 16 15 15 14 15 14 13 13 13
24 25 27 24 21 20 22 26 24 22 21 19 19 20 23 24 24 24 23 23 22 21 21 21 20 20 19 20 19 18 18 18 17 17 15 15 15 15 14 13 14 13 14
27 28 25 26 24 24 24 22 21 19 19 19 19 19 20 22 21 22 24 23 22 21 19 20 21 21 20 20 19 18 18 17 16 16 15 15 15 15 14 14 13 14 15
23 23 24 26 26 26 25 25 23 22 20 20 20 22 21 20 22 22 23 24 23 21 20 19 18 20 20 20 19 18 18 17 16 15 15 15 14 14 14 13 13 13 14
24 24 23 23 24 21 23 23 22 22 22 22 21 22 27 25 24 25 25 24 23 22 21 21 19 20 22 20 19 19 17 16 16 15 15 14 14 13 13 12 13 13 12
23 24 23 23 24 23 22 21 19 19 20 20 20 19 21 25 28 26 24 23 23 21 21 20 19 21 21 19 18 17 17 15 15 15 15 14 14 14 14 12 13 13 13
25 25 24 21 21 20 21 20 20 20 20 21 21 20 22 22 25 25 23 21 19 19 17 18 17 18 17 17 17 16 15 15 15 15 15 14 14 13 12 12 12 11 12
21 21 21 21 21 20 20 21 21 21 22 21 21 21 21 20 21 23 24 25 24 21 17 17 17 17 17 17 16 15 14 14 15 14 14 14 14 13 13 12 12 12 12
20 22 22 23 23 22 22 21 21 21 21 21 21 21 22 21 20 19 19 20 18 18 17 16 17 16 17 17 15 14 14 13 13 14 14 13 13 13 13 12 12 12 12
21 21 20 20 22 23 23 22 22 20 21 20 21 22 21 21 21 20 19 18 18 18 16 17 18 17 17 16 15 14 13 13 13 13 13 13 13 13 12 12 12 11 12
21 21 19 19 19 19 19 19 19 18 18 19 19 19 19 19 19 18 18 18 17 17 17 17 17 18 16 15 14 14 13 12 13 13 13 13 13 13 12 12 12 12 11
17 16 16 16 19 18 17 16 16 17 17 17 17 17 18 18 18 18 18 18 17 16 16 17 17 16 14 14 15 13 13 12 13 12 13 13 13 12 12 12 12 11 11
16 17 16 16 15 15 14 15 15 15 15 14 13 12 13 12 11 17 17 16 15 16 16 14 14 14 14 14 13 13 12 13 12 12 13 12 12 12 12 12 12 11 10
16 16 16 16 15 14 14 14 14 13 13 14 14 15 13 13 12 11 13 15 15 13 14 13 13 15 13 13 13 13 13 13 12 12 12 12 12 12 12 12 11 11 11
15 15 16 16 15 14 14 13 14 13 12 13 13 12 12 13 13 14 13 12 12 13 13 13 13 13 13 14 14 13 12 13 12 12 12 12 11 11 11 11 11 11 11
15 15 15 14 14 14 13 13 13 13 13 13 12 12 12 12 12 12 12 13 13 14 14 14 13 13 13 13 13 13 13 13 13 12 12 12 11 11 11 11 11 11 11
15 15 14 13 13 13 14 14 15 13 13 13 12 12 12 12 12 12 12 13 13 13 13 13 13 13 13 12 13 13 13 13 12 12 11 11 11 10 10 10 11 11 10
13 13 13 13 13 13 13 14 13 13 13 13 12 12 12 12 12 12 12 12 12 13 13 13 13 13 13 13 13 13 13 12 12 11 10 10 10 10 10 10 10 10 10
11 11 11 11 11 11 12 11 11 12 13 12 12 12 12 12 12 12 12 12 13 13 13 13 13 13 13 13 13 13 12 12 11 11 10 10 9 9 9 9 9 9 9

GFSGL_850_temp_033.txt.gz
Temp
25 24 24 24 24 23 23 22 22 22 21 22 21 21 20 20 19 19 19 20 20 19 19 19 21 21 20 20 20 20 20 20 20 21 20 19 18 18 17 17 16 16 16
23 25 25 25 24 24 24 23 22 22 22 22 22 21 21 21 20 19 20 20 20 19 19 20 20 21 21 20 19 19 19 19 19 19 20 19 18 17 17 16 16 17 17
23 22 22 24 25 25 24 25 24 24 23 23 22 21 22 22 21 20 20 21 20 19 20 20 21 20 21 20 20 19 19 18 18 18 19 19 18 17 16 16 16 15 16
25 23 23 22 25 25 24 25 25 25 25 24 22 22 22 22 22 22 22 21 22 20 20 20 20 20 21 22 20 20 19 19 18 18 18 19 19 18 17 17 17 16 16
26 25 23 23 22 22 23 25 26 25 25 25 25 23 23 23 21 22 22 21 22 22 20 20 20 19 20 21 21 20 19 19 18 19 18 18 19 19 18 17 17 17 16
26 25 24 23 22 22 22 23 25 26 26 26 26 25 24 23 21 21 21 21 21 21 20 20 21 20 19 20 21 20 19 19 19 18 19 19 19 18 18 17 17 16 16
26 26 25 24 23 22 21 21 24 26 25 26 26 25 25 25 24 23 22 21 21 21 21 20 20 20 20 19 21 21 19 19 19 19 18 18 18 17 17 16 16 16 15
26 25 25 24 23 22 22 21 21 22 22 23 24 24 25 25 25 25 24 22 21 21 21 20 19 20 20 20 20 21 21 19 19 19 18 18 18 17 16 16 16 15 14
25 25 24 23 23 22 24 23 22 21 21 22 22 22 23 25 25 25 24 24 22 22 22 20 19 19 20 20 20 20 21 20 19 19 18 17 17 16 16 15 15 14 14
28 25 24 23 22 22 23 23 22 21 22 21 21 22 23 24 26 26 26 23 22 22 22 21 20 19 20 20 20 19 19 21 19 19 19 17 16 16 16 16 15 14 14
26 24 23 23 22 22 22 23 23 22 21 21 21 22 23 25 26 27 27 26 24 23 21 20 21 21 20 20 20 20 20 20 19 18 17 15 15 15 15 16 15 15 15
26 25 23 22 22 22 21 21 21 21 20 21 21 22 22 24 25 24 25 26 26 23 22 21 21 20 20 19 18 18 18 18 17 17 16 15 15 14 14 14 15 14 13
25 24 23 22 22 22 22 21 21 20 21 21 21 21 21 22 20 21 22 21 22 23 24 22 22 21 21 19 18 17 17 17 17 16 16 15 15 15 15 14 13 14 14
24 23 23 22 22 21 22 21 21 22 21 21 22 21 22 21 21 21 21 20 19 19 19 21 22 22 21 20 18 17 17 17 17 17 16 16 15 15 14 14 13 14 14
22 22 22 22 22 22 21 23 23 22 23 23 23 23 23 23 23 22 22 21 21 19 19 18 18 20 20 19 17 18 16 16 16 17 17 17 14 14 14 14 13 13 13
22 23 24 24 24 22 23 22 22 23 23 22 23 23 23 23 23 23 23 22 21 19 18 18 18 17 18 18 18 17 16 18 16 16 16 15 14 14 14 13 13 13 14
21 23 23 24 25 25 25 24 24 24 23 23 22 22 21 21 21 21 21 21 20 19 18 18 18 17 17 18 16 16 17 17 15 16 16 15 14 14 14 13 13 13 13
21 22 21 21 22 22 22 22 22 22 22 22 20 20 20 20 20 19 19 19 18 18 18 18 18 17 17 17 16 16 15 15 15 15 15 14 13 14 13 13 14 13 13
19 19 19 18 18 18 19 20 19 18 18 18 18 17 17 17 18 18 18 17 18 18 18 18 16 16 15 15 15 14 15 15 14 14 14 14 14 14 14 14 14 14 13
18 17 18 18 18 18 17 17 16 15 14 14 14 15 16 16 16 17 16 16 15 15 17 17 15 15 15 16 14 14 14 14 13 13 13 14 14 14 14 14 14 14 13
19 18 18 18 17 17 17 17 17 17 15 15 13 15 15 16 12 12 14 12 14 16 15 15 15 15 15 14 14 14 14 13 13 13 14 14 14 14 14 14 14 14 13
18 19 19 19 18 17 17 16 16 15 14 13 14 13 13 13 12 12 13 13 14 14 14 14 14 14 14 13 13 13 14 14 14 14 14 13 13 13 14 14 14 13 13
17 16 16 16 16 16 16 15 13 13 12 12 12 12 12 12 12 13 13 14 14 13 14 14 14 14 13 13 13 14 14 14 14 13 13 13 13 13 13 13 13 13 13
16 16 16 16 15 15 15 14 13 12 13 12 12 12 12 12 12 13 13 13 12 13 13 13 13 14 13 13 13 14 14 13 13 13 13 13 13 13 13 13 13 13 13
15 15 13 13 13 12 11 11 11 12 12 12 12 12 13 12 12 13 13 13 13 13 13 13 13 14 13 13 13 14 14 14 14 13 13 13 13 13 12 12 12 13 12
13 13 13 13 12 11 11 11 11 11 11 11 12 12 12 12 12 12 13 14 14 14 14 13 13 13 13 13 13 14 14 14 13 12 12 12 12 11 11 11 12 12 12

GFSGL_850_temp_036.txt.gz
Temp
23 25 24 24 24 23 22 22 22 22 21 23 21 22 22 21 20 19 20 20 20 20 20 21 22 22 22 20 20 20 20 20 20 21 20 20 19 19 19 18 17 17 17
22 22 23 23 24 24 24 23 22 22 22 22 22 21 21 21 21 21 20 21 20 20 20 21 21 22 22 22 20 20 20 20 20 20 20 19 19 19 18 18 18 17 16
21 22 22 23 23 24 24 24 23 23 22 22 22 22 21 22 22 22 21 21 21 20 20 21 21 20 22 22 22 21 20 20 20 19 19 20 19 19 18 18 17 17 17
23 22 21 21 22 24 24 24 24 24 24 23 23 22 21 22 22 22 22 21 21 21 20 20 21 21 21 22 22 22 21 20 20 19 19 19 19 19 18 18 18 17 17
25 24 23 22 22 22 22 23 24 24 25 25 24 23 22 21 22 22 22 22 22 22 21 20 20 21 22 22 22 22 22 21 19 19 19 19 18 19 19 18 18 17 17
26 26 24 24 23 22 22 22 22 22 23 23 23 24 23 23 23 24 23 22 21 21 22 22 21 21 21 22 22 22 22 22 21 20 19 19 19 19 19 18 18 17 17
27 27 26 25 24 23 22 22 22 22 22 23 23 24 25 25 25 25 24 23 22 21 22 22 21 21 20 20 20 20 20 20 20 21 20 20 19 19 19 18 18 17 17
28 28 27 26 25 24 24 23 22 22 22 23 22 23 24 26 26 26 25 25 24 23 23 23 22 21 20 20 20 20 20 20 20 20 20 20 19 19 18 18 18 17 17
27 27 27 26 25 25 24 24 22 22 22 22 23 22 24 26 26 26 25 24 23 23 23 22 22 22 22 20 20 20 20 21 20 19 19 19 19 18 18 17 17 17 16
29 28 27 26 26 25 24 23 22 22 22 21 22 23 23 25 25 25 23 22 23 23 22 21 22 22 22 22 20 19 19 20 21 21 19 19 18 17 17 16 16 16 15
29 28 27 27 26 25 24 23 22 22 21 21 21 21 22 24 25 24 23 21 22 23 22 21 21 22 22 20 20 20 20 21 21 20 20 19 19 18 17 16 15 15 15
29 28 27 26 25 24 23 23 22 21 21 21 21 21 22 23 23 22 22 21 21 19 20 20 20 20 20 20 20 19 19 19 19 19 19 19 19 18 18 15 14 15 15
28 28 27 26 24 24 23 22 21 21 21 21 21 21 21 21 21 20 20 20 20 20 20 19 20 21 21 20 20 19 19 18 18 18 18 19 19 19 16 16 14 14 14
26 26 25 25 24 23 23 22 21 21 21 21 21 21 21 21 21 22 21 22 21 20 20 19 19 20 21 21 21 20 19 18 18 18 18 17 17 16 15 16 15 16 15
25 24 24 23 23 22 22 22 22 22 21 21 21 22 22 22 22 22 23 22 22 22 22 21 20 19 19 20 20 20 20 18 18 18 17 17 16 15 15 15 14 14 15
22 22 23 23 23 22 22 22 22 22 22 22 23 23 22 22 23 23 23 23 22 22 22 22 21 20 19 20 19 19 18 18 18 18 17 16 15 14 14 15 14 14 14
22 23 23 24 25 24 24 23 23 23 23 23 23 23 23 23 23 23 22 22 22 20 19 19 20 20 20 20 18 18 18 17 17 17 17 15 16 14 14 14 13 12 13
22 23 23 23 24 23 23 23 23 23 21 21 21 22 21 21 21 21 20 20 20 20 19 18 18 18 18 19 19 17 17 17 16 17 16 17 13 14 13 13 12 13 13
21 20 20 22 22 22 22 22 22 22 21 20 20 20 20 20 20 20 19 18 18 17 16 16 17 18 18 19 18 17 17 17 16 16 15 16 14 14 13 13 12 13 13
20 20 19 19 19 19 18 18 18 18 17 16 16 17 17 17 16 16 16 17 16 14 15 15 15 15 16 16 16 16 16 16 16 15 14 15 14 13 13 13 13 14 13
19 19 19 18 18 18 18 18 17 17 16 15 15 14 14 14 13 13 13 14 14 14 14 15 14 14 14 15 15 15 15 15 15 14 14 14 13 13 13 14 14 14 14
20 20 19 18 17 17 17 16 15 15 14 14 14 13 13 13 13 13 13 13 14 14 14 14 14 14 16 17 16 15 15 14 14 14 14 13 13 13 14 14 14 14 14
18 17 17 16 16 16 15 14 13 13 12 13 13 13 13 13 13 13 14 14 14 14 14 14 14 14 15 15 16 16 15 14 14 14 13 13 14 14 14 14 14 14 14
16 15 15 15 15 14 13 12 12 12 12 12 12 13 13 14 13 13 13 14 14 14 14 14 13 14 14 14 13 13 13 13 13 13 13 13 13 13 14 14 14 14 14
14 14 13 14 13 12 12 12 11 11 11 12 12 12 12 13 13 13 13 13 13 14 14 14 14 14 15 15 14 14 14 13 14 14 13 13 13 13 13 13 13 13 13
13 13 12 11 11 10 10 10 10 10 10 11 11 11 11 12 12 13 13 13 13 13 13 13 13 13 13 13 13 13 14 13 14 13 13 13 13 13 13 13 13 13 13

GFSGL_850_temp_039.txt.gz
Temp
23 23 22 23 23 22 22 22 21 21 22 22 22 22 22 22 22 21 21 21 20 20 21 21 22 22 21 20 20 20 20 21 21 20 20 20 19 19 19 19 18 18 17
24 23 22 22 22 22 22 23 23 22 22 22 22 22 21 21 21 21 21 21 20 20 21 21 22 22 22 21 21 21 21 21 20 21 20 20 19 19 19 19 18 18 18
24 24 23 22 21 22 23 23 23 23 23 22 21 21 21 21 21 21 21 22 22 22 21 21 21 21 22 22 22 21 21 21 20 20 20 20 19 19 19 18 18 18 17
25 24 24 23 22 22 24 24 24 24 23 23 22 21 21 22 21 21 21 22 22 22 21 22 22 21 22 22 22 22 21 20 20 20 20 20 20 19 19 18 18 18 18
25 25 25 24 24 24 24 24 25 24 24 23 23 23 22 22 22 22 22 22 22 22 22 22 22 22 22 22 22 22 22 21 20 21 20 20 20 19 19 19 18 18 18
26 26 25 25 24 24 24 24 24 25 24 23 23 23 23 22 22 22 22 22 22 22 22 22 22 22 22 22 22 22 22 22 21 21 21 21 21 20 19 19 18 18 17
27 26 26 25 25 25 25 24 24 25 24 24 24 24 24 23 23 22 22 22 23 23 23 23 23 22 22 22 21 21 20 21 21 21 21 21 21 21 19 19 18 18 18
27 26 25 25 25 25 25 25 24 24 24 24 23 24 24 24 24 23 22 22 22 23 23 24 24 24 23 22 22 21 20 20 20 20 20 20 20 20 19 19 19 18 17
28 27 27 26 26 25 25 25 25 24 23 23 23 23 24 25 24 24 23 22 21 22 22 22 23 23 23 23 22 21 21 20 20 20 20 20 20 19 19 18 18 17 17
29 29 28 27 27 26 26 25 25 25 24 23 23 23 24 24 23 22 21 21 21 21 21 21 21 21 21 21 21 21 21 21 21 21 20 19 20 19 18 18 17 17 17
30 29 28 28 27 27 26 26 25 24 24 23 23 23 23 23 22 21 21 20 21 21 20 21 20 20 19 19 19 19 20 21 21 20 21 20 19 18 17 17 17 16 16
30 29 29 29 28 27 26 26 25 24 23 23 22 22 22 22 21 20 20 20 20 20 20 20 19 19 20 19 19 19 19 19 19 19 19 20 19 19 18 18 18 18 16
28 28 28 28 28 27 26 25 24 23 22 22 22 21 21 21 21 21 20 20 20 20 20 20 20 20 20 20 20 20 20 19 19 18 18 18 19 20 19 18 16 15 15
26 27 28 27 27 26 25 24 23 23 22 21 21 21 21 21 21 22 21 21 21 21 21 21 21 21 20 20 20 20 20 20 19 19 18 18 17 17 17 17 16 15 14
26 25 26 26 26 25 24 23 23 22 22 22 22 21 21 22 22 21 21 21 21 21 21 21 21 21 21 21 20 19 19 20 19 19 18 18 18 18 17 16 15 14 15
23 23 24 24 24 24 23 22 21 22 21 22 22 21 21 21 21 21 21 22 21 21 21 21 21 21 20 20 20 21 21 21 20 19 18 18 17 17 17 16 15 13 14
22 22 22 22 22 23 23 22 22 21 21 21 20 20 21 21 21 21 21 22 22 22 22 21 21 20 19 18 19 19 20 21 21 21 19 17 17 16 16 15 14 13 13
21 22 22 22 22 23 22 21 22 21 21 21 21 21 21 21 21 21 21 21 21 21 20 20 19 18 17 18 18 18 18 18 18 18 17 17 17 16 16 15 13 14 13
20 21 21 22 22 21 21 21 21 20 20 19 20 20 20 20 20 20 20 20 20 19 18 17 16 17 17 16 16 16 16 17 17 17 16 17 16 16 15 15 13 13 13
19 20 21 20 20 20 20 20 20 19 19 19 18 18 18 18 18 19 18 18 17 16 16 16 16 16 16 16 16 16 17 16 16 16 16 16 15 13 13 13 15 13 14
19 19 19 18 18 18 18 18 17 17 17 16 16 16 16 16 15 15 15 15 15 15 16 16 15 15 14 14 14 15 16 16 15 14 15 14 13 13 13 13 13 14 14
19 18 17 17 17 17 16 16 16 16 15 14 14 14 13 13 13 13 13 14 14 14 14 15 15 14 14 14 15 13 14 15 15 15 15 14 15 14 13 13 13 13 13
17 17 17 16 16 16 16 15 15 13 13 12 12 13 12 12 13 13 14 13 13 14 14 15 14 14 14 14 14 14 14 15 15 14 14 13 14 14 14 13 13 13 13
16 16 15 15 16 15 13 12 12 12 11 11 12 12 12 13 13 14 14 14 13 13 13 14 14 14 14 14 14 14 14 15 15 15 16 15 14 13 13 13 13 13 14
13 14 14 13 13 12 11 11 10 11 11 11 12 12 12 12 12 12 13 13 13 13 13 13 13 12 13 13 13 14 13 15 15 14 14 14 13 13 13 14 14 14 14
11 10 11 11 10 10 9 9 9 10 10 10 11 11 11 11 11 11 12 12 12 12 13 13 12 12 12 12 12 13 13 13 13 13 13 13 13 13 13 13 13 13 13

GFSGL_850_temp_042.txt.gz
Temp
24 23 23 22 21 21 20 21 21 21 21 21 21 21 21 21 21 20 21 21 21 21 20 21 22 22 22 22 21 21 20 20 21 21 20 20 20 20 19 19 19 18 18
25 24 23 23 22 21 21 21 21 21 21 21 21 21 21 21 21 21 21 21 21 21 21 21 21 21 22 22 21 21 21 20 20 21 21 20 20 20 19 19 19 18 18
24 24 23 23 22 22 22 22 22 22 21 21 21 21 21 21 21 21 21 21 21 21 22 22 23 22 21 21 22 21 21 21 20 20 21 20 20 20 19 19 18 18 18
25 25 24 24 23 23 23 23 23 23 22 22 21 21 21 21 21 21 21 21 21 21 22 22 22 22 22 21 21 21 22 21 21 20 20 20 20 20 19 19 18 18 18
26 25 25 25 25 24 24 24 23 23 23 22 22 22 21 21 21 21 21 21 22 22 22 22 22 22 23 22 22 22 21 21 21 20 20 20 20 20 19 19 19 19 18
26 27 27 26 25 25 25 25 24 24 24 23 23 23 22 22 21 21 21 21 22 21 22 22 22 22 22 22 22 22 22 21 20 20 20 20 20 20 20 19 19 19 18
27 27 26 26 25 25 25 25 25 25 25 24 24 24 23 23 23 22 22 22 21 21 22 22 22 22 23 22 23 22 22 22 22 21 21 21 21 21 21 21 20 19 19
27 27 27 26 26 26 24 24 25 24 24 25 25 25 25 24 24 23 23 22 21 21 22 22 22 22 23 23 23 23 22 22 22 21 21 22 21 21 21 21 20 20 19
27 27 28 27 27 26 26 25 25 24 24 24 24 24 24 24 24 23 22 21 21 21 21 21 22 22 22 22 21 21 21 22 22 22 22 21 20 20 20 19 19 18 18
28 28 28 27 27 27 27 26 26 26 25 25 25 24 24 24 23 23 22 21 21 21 21 21 21 21 20 20 20 19 20 22 20 21 21 21 21 20 19 19 18 18 18
29 29 28 28 27 27 27 26 26 25 25 25 25 25 24 24 23 22 21 21 21 20 21 21 20 20 20 19 19 19 19 20 19 19 19 19 19 19 19 19 19 18 18
27 28 29 29 28 27 26 26 25 25 25 25 24 24 24 23 22 22 21 21 20 20 20 20 20 20 20 19 19 19 19 19 19 19 19 19 18 18 18 19 19 18 17
27 27 28 28 28 27 27 27 26 25 24 24 23 23 23 22 22 21 21 20 20 20 20 21 20 20 20 20 20 20 20 19 19 19 19 19 19 19 18 18 18 17 16
26 27 27 27 27 27 27 27 26 25 24 23 22 22 22 22 22 22 21 21 21 20 20 20 20 20 20 20 20 20 20 20 19 19 19 19 19 19 18 18 18 17 16
24 26 27 27 27 27 26 26 25 25 24 24 23 22 22 22 22 21 21 21 21 21 21 21 21 21 21 21 21 21 21 20 20 20 20 20 19 18 18 18 18 17 15
22 22 24 25 25 25 25 25 24 23 23 22 22 22 21 21 21 21 21 21 21 21 20 20 20 20 20 20 19 19 19 19 19 19 20 20 20 18 18 18 17 16 16
20 21 21 22 23 23 23 23 23 22 21 21 21 21 21 21 21 21 21 21 21 20 20 20 20 20 20 19 17 17 17 18 17 17 17 18 18 17 18 17 16 15 15
19 20 21 21 22 22 22 22 22 21 21 21 21 21 20 20 20 20 20 20 20 20 20 20 20 20 19 18 18 18 17 16 16 16 15 17 16 17 16 16 16 15 14
19 20 21 21 21 21 22 21 21 21 20 20 19 19 19 19 19 19 20 19 19 19 19 18 18 18 18 18 17 17 17 17 16 18 18 15 15 15 15 16 15 14 13
18 19 19 20 19 19 20 20 20 19 18 17 17 17 18 18 18 18 18 18 18 17 17 17 17 17 17 16 16 15 16 16 16 16 18 15 15 15 14 14 13 13 14
18 18 18 19 19 19 19 18 17 16 16 16 16 15 15 16 16 16 16 16 16 16 16 16 15 15 15 15 15 15 15 14 14 14 17 16 15 14 14 15 14 13 13
17 18 18 18 17 17 16 16 15 15 15 15 14 14 14 15 15 15 15 15 16 16 15 15 15 15 15 15 14 14 14 14 14 14 14 14 14 14 13 13 13 12 12
18 17 17 17 16 15 15 15 14 14 13 13 13 14 14 14 14 14 14 14 15 15 15 15 15 15 14 13 13 14 13 13 14 14 13 13 13 13 13 14 12 13 13
17 17 17 16 16 15 14 13 12 12 11 12 12 12 13 13 13 13 14 14 14 14 14 13 13 13 13 13 13 13 13 13 14 14 14 15 14 14 14 14 14 13 13
15 15 15 15 14 14 11 11 11 11 12 12 11 11 11 12 12 12 12 13 13 13 13 13 13 12 12 13 13 13 13 13 13 13 13 13 14 13 13 13 13 13 13
12 12 11 11 13 12 11 10 10 10 10 11 10 10 10 10 10 11 11 11 11 11 12 12 12 12 13 13 12 13 13 13 13 13 13 13 13 13 13 13 13 13 13

GFSGL_850_temp_045.txt.gz
Temp
23 23 22 22 22 22 21 21 21 21 20 20 20 20 20 20 20 20 20 20 20 20 20 21 21 21 21 20 20 20 20 20 20 21 21 20 20 20 20 20 20 19 18
24 23 23 23 23 22 22 22 21 21 20 20 20 20 20 21 20 20 20 20 20 20 20 21 21 21 21 21 21 21 21 20 20 21 21 20 20 20 20 20 19 19 19
24 24 23 23 22 22 22 22 22 21 21 20 20 20 21 21 21 21 21 20 20 20 20 20 21 21 21 21 21 21 21 21 20 20 20 20 20 20 20 20 20 19 19
24 24 23 23 23 23 23 22 22 22 21 21 20 20 20 20 21 21 21 21 21 21 21 20 21 21 22 22 22 21 21 21 21 20 21 21 20 20 20 20 20 20 19
24 24 24 24 24 23 23 23 23 23 23 22 22 21 21 20 20 21 21 21 21 21 21 21 21 22 22 22 22 22 22 21 21 20 20 21 21 21 21 21 20 20 20
25 26 25 25 24 24 24 23 23 23 23 23 23 22 22 21 21 21 21 21 21 21 22 22 22 22 22 22 22 22 22 21 21 21 21 20 21 21 21 21 21 19 19
25 26 25 25 24 25 25 24 24 24 24 24 24 23 23 23 23 22 22 21 21 22 22 22 22 22 22 22 21 21 21 21 21 20 20 20 21 21 21 21 20 20 20
25 26 25 25 25 24 24 24 24 24 24 24 24 24 24 24 24 23 23 22 21 21 22 22 21 22 22 21 21 21 21 22 21 21 20 21 21 21 20 20 20 19 18
27 27 26 26 26 25 25 25 25 24 24 24 24 24 24 24 24 24 23 22 22 22 22 22 22 22 22 21 20 20 21 22 22 22 22 21 21 20 20 18 18 17 18
28 28 27 27 26 26 26 26 26 25 25 25 25 24 24 24 24 23 23 22 22 21 21 22 21 21 21 20 19 19 19 20 19 19 20 20 20 19 19 18 18 17 17
28 26 27 28 28 27 27 26 26 26 25 25 25 25 24 24 24 23 23 22 22 21 22 22 21 21 20 19 19 19 19 19 19 19 19 19 19 19 19 19 19 18 17
26 25 26 26 26 26 26 26 26 25 25 25 24 24 24 23 23 23 22 22 22 21 21 21 20 20 20 19 20 20 20 20 19 19 19 19 19 19 19 20 21 20 19
25 25 25 25 25 25 25 25 25 25 25 25 24 24 23 23 23 22 22 22 21 20 20 20 20 20 20 19 20 20 20 19 20 19 19 20 20 21 19 19 19 19 18
25 25 25 24 25 25 24 25 24 24 25 25 25 24 24 23 23 22 22 21 21 21 21 21 20 20 20 20 20 21 20 20 20 20 20 20 19 19 19 18 18 19 18
25 25 25 25 25 25 24 25 25 25 25 25 25 24 23 22 22 21 21 21 21 20 20 20 21 21 20 20 20 20 20 20 19 19 18 18 18 17 18 18 18 17 17
23 24 25 25 25 25 25 25 25 25 25 24 24 23 22 21 21 20 20 20 21 20 20 21 21 20 20 20 20 20 20 19 18 17 16 16 17 17 17 17 17 16 17
21 22 23 23 23 23 23 23 24 24 24 23 22 21 21 21 21 20 20 20 20 20 20 20 20 20 19 19 19 19 19 18 17 17 17 18 18 18 16 15 15 16 16
20 20 21 22 21 22 22 22 22 23 22 22 22 20 20 21 20 20 20 19 20 20 19 19 19 19 18 18 18 18 17 17 17 17 17 17 18 16 14 14 15 15 15
19 19 20 21 21 21 21 21 21 21 21 21 20 20 20 20 20 20 19 19 19 19 18 18 18 17 17 17 17 17 17 17 16 16 16 15 16 15 14 15 15 15 17
19 19 19 20 21 21 22 21 21 20 19 18 18 17 18 18 18 18 18 18 18 17 17 16 16 16 16 16 17 17 16 16 16 15 15 14 15 14 14 13 13 13 12
18 18 19 19 20 21 21 20 19 19 16 16 16 16 16 16 16 16 16 16 16 16 16 16 16 16 16 16 15 15 15 15 14 15 13 13 14 13 14 14 14 14 14
18 18 18 18 19 19 19 18 17 16 16 16 15 15 15 15 15 14 14 15 15 15 15 15 15 15 15 14 14 14 14 14 15 14 13 13 13 13 13 13 13 12 13
18 18 18 18 18 18 17 17 16 15 14 14 13 13 13 13 14 14 14 14 14 14 14 14 14 14 14 13 13 13 13 13 14 14 15 13 13 13 13 13 12 12 12
17 17 17 17 17 17 16 16 15 14 13 12 12 12 12 12 13 13 13 13 13 14 14 14 14 13 13 12 12 12 12 13 13 13 14 14 13 13 14 14 13 13 12
16 16 16 16 15 14 14 13 13 12 11 11 12 11 11 11 11 12 12 12 12 12 12 12 12 12 12 12 11 12 13 13 13 13 13 13 13 13 14 13 13 13 13
13 13 13 13 13 12 12 11 11 11 11 11 10 10 10 10 10 10 10 10 10 10 10 11 11 11 11 12 12 12 12 13 13 13 13 13 13 13 13 13 13 13 13

GFSGL_850_temp_048.txt.gz
Temp
23 23 22 22 22 22 21 21 21 21 21 21 20 20 20 20 20 19 19 19 19 20 20 20 20 20 20 20 19 19 20 20 20 21 21 21 21 21 21 21 20 20 20
23 23 23 23 23 22 22 22 21 21 21 21 20 20 20 20 20 20 20 20 20 20 20 20 20 20 21 21 20 20 20 20 20 20 21 21 21 21 21 21 20 20 20
23 23 23 23 23 23 22 22 22 21 21 21 21 20 20 20 20 20 20 20 20 20 20 20 20 20 21 21 21 21 21 21 21 21 21 22 22 21 21 21 21 21 21
23 23 23 24 24 23 23 22 22 22 21 21 21 21 21 21 21 20 20 20 20 20 20 20 20 20 21 21 22 22 21 21 21 21 21 21 21 22 21 21 21 21 21
23 23 24 24 24 24 23 23 23 22 22 21 22 22 21 21 21 21 21 21 20 20 21 21 21 21 21 21 21 22 22 21 21 21 21 21 21 21 21 21 21 21 21
24 24 24 24 24 24 24 23 23 23 22 22 22 22 22 22 22 22 21 21 22 21 21 21 22 22 22 22 22 21 21 21 21 20 20 20 21 21 21 21 20 20 20
26 26 24 23 24 24 24 24 23 23 23 22 22 22 23 23 23 23 22 22 22 22 22 22 22 22 22 22 22 22 22 21 20 20 20 20 21 21 20 20 20 20 20
26 25 25 25 25 24 24 24 24 23 23 23 23 23 23 24 24 23 23 22 22 22 22 22 22 22 22 22 22 22 22 21 21 20 20 20 20 20 19 19 18 18 18
26 27 26 26 25 25 25 24 24 24 24 24 24 23 23 24 24 24 23 23 22 23 23 23 23 23 22 22 21 21 22 22 21 21 21 21 21 20 19 18 18 17 17
27 28 26 26 26 26 26 26 25 25 24 24 23 23 24 24 23 23 23 22 22 22 23 23 23 22 22 21 21 20 20 20 20 20 19 19 19 19 19 19 19 18 18
26 26 26 26 26 26 26 25 25 24 24 24 24 24 23 23 24 23 23 22 22 22 22 22 22 22 21 20 20 19 19 19 20 19 19 19 19 20 20 20 20 20 19
26 26 26 26 26 25 25 25 24 24 24 23 23 24 24 24 24 24 23 23 22 22 22 22 21 21 20 20 20 19 19 19 19 19 19 20 20 20 20 19 19 19 19
24 24 24 25 25 25 25 25 24 24 24 24 24 24 24 24 24 24 23 23 22 21 21 21 21 20 20 20 20 20 19 19 19 19 19 19 19 19 18 18 18 18 18
24 24 24 24 24 23 23 23 23 24 24 24 24 25 25 24 24 24 23 22 21 21 20 21 21 21 20 20 20 20 20 20 19 20 19 19 19 19 19 17 17 17 17
24 24 24 24 23 24 23 23 24 23 24 25 25 25 24 24 24 22 21 21 20 21 20 20 20 20 20 20 20 20 20 20 19 19 18 19 18 17 17 18 17 16 15
23 23 24 24 25 25 24 24 24 24 25 24 23 24 22 22 22 21 21 21 20 21 20 21 21 20 20 20 20 20 19 19 19 19 18 17 17 17 18 19 19 17 15
22 22 22 22 22 23 24 24 24 24 23 22 20 21 21 22 21 21 20 20 20 20 20 19 20 19 19 19 19 19 19 19 18 18 17 18 17 17 18 18 17 15 14
20 21 22 22 22 22 22 22 22 23 22 23 22 21 21 20 20 20 20 21 20 20 19 19 20 20 19 19 19 19 18 18 17 17 17 17 17 16 17 15 15 15 15
18 19 20 20 21 20 20 20 20 20 20 20 20 20 19 19 19 20 19 19 19 19 19 19 19 18 18 18 17 17 16 16 16 17 17 17 16 15 15 14 14 15 16
18 18 19 20 20 20 20 20 20 21 20 20 20 20 20 20 19 19 19 18 18 18 17 17 17 16 16 16 16 15 15 15 16 16 16 15 15 14 14 14 13 13 14
18 18 18 19 19 20 20 19 19 21 20 19 18 17 17 17 17 17 16 16 16 16 15 15 15 15 14 14 13 14 14 14 15 15 15 15 13 13 12 12 13 13 12
17 17 18 18 18 18 19 18 18 18 17 17 17 16 15 15 15 15 15 15 14 13 12 13 13 13 13 13 13 13 13 13 13 14 15 15 13 13 13 13 12 12 12
18 18 17 17 18 18 18 17 17 16 16 15 15 15 14 14 14 14 14 13 12 12 12 12 12 12 12 12 12 12 12 13 14 14 14 14 15 15 14 14 14 12 11
17 17 17 16 17 17 17 16 15 15 15 14 13 13 13 13 12 12 13 12 12 12 12 12 12 12 12 12 13 13 12 13 13 13 13 13 13 14 14 14 14 13 12
15 16 15 15 16 16 16 15 13 13 12 12 12 12 12 11 11 11 11 11 11 11 11 11 11 11 12 12 12 12 12 12 13 13 13 13 13 14 14 13 13 13 13
12 13 14 14 14 14 13 12 12 11 11 11 11 11 11 10 10 10 9 9 9 9 9 9 9 10 10 10 11 11 11 12 12 12 13 13 13 13 13 13 13 13 12

GFSGL_850_temp_051.txt.gz
Temp
22 22 22 22 21 22 22 22 22 21 21 21 21 21 20 20 20 19 19 19 19 19 19 19 19 20 20 20 20 20 20 20 19 19 21 22 22 22 21 21 21 21 21
23 23 23 23 22 22 22 22 22 21 21 21 21 21 21 20 20 20 20 20 20 19 20 20 20 20 20 20 20 21 20 20 21 22 22 22 23 22 22 22 21 21 21
24 23 23 23 23 23 23 22 22 22 21 21 21 21 21 21 21 20 20 20 20 20 20 20 20 20 20 20 21 21 21 21 21 21 22 21 22 22 22 22 22 22 22
24 24 24 24 24 23 23 23 23 23 22 21 21 21 21 21 21 21 20 20 20 20 20 20 20 20 20 21 21 21 21 21 21 21 21 20 20 22 22 22 22 22 22
24 24 24 24 24 24 24 23 23 23 23 22 21 21 21 21 21 21 21 21 21 21 21 21 21 21 21 21 21 21 21 20 21 19 19 19 19 19 19 20 20 21 21
24 25 26 25 25 25 24 24 24 24 23 22 22 21 21 22 22 22 22 22 22 21 21 21 21 22 22 22 22 22 21 21 21 21 19 19 19 20 20 20 18 18 19
25 25 26 26 25 25 24 24 24 24 23 23 22 22 22 22 22 23 23 22 22 22 22 22 23 23 23 23 23 23 22 22 21 21 21 21 21 20 20 19 18 18 18
25 26 26 26 25 25 24 24 24 23 23 23 23 22 22 22 23 23 23 22 22 22 23 23 23 23 23 23 23 23 22 22 22 22 21 21 21 20 19 19 18 18 19
24 26 27 26 25 24 24 24 24 24 24 23 23 23 23 23 23 23 23 22 22 23 23 23 23 23 23 23 23 22 23 22 21 22 22 21 21 20 19 19 19 19 19
26 27 27 27 26 26 26 26 25 25 24 24 24 24 24 24 24 24 23 22 22 23 23 23 24 24 23 23 22 22 22 22 21 20 19 19 19 19 20 20 20 19 19
24 24 25 26 26 26 26 26 26 25 25 24 24 24 24 24 24 24 23 22 22 23 23 23 23 23 23 22 21 21 20 20 20 19 19 19 20 20 20 20 19 19 18
25 25 26 25 25 25 25 25 24 24 23 23 23 23 23 24 24 24 23 23 23 22 22 22 22 22 22 21 20 20 20 20 19 19 20 20 20 19 19 19 18 18 18
24 25 25 25 25 24 25 24 24 23 23 23 23 23 23 24 24 24 24 23 23 22 22 21 21 21 20 20 20 20 20 19 19 19 19 19 19 20 19 19 20 19 19
23 23 24 24 25 24 24 24 23 23 23 22 22 23 24 24 24 24 24 23 23 22 21 21 20 20 20 21 20 20 20 19 20 19 20 20 20 20 19 17 18 16 16
21 23 23 24 24 23 22 22 23 22 22 23 23 22 22 24 25 24 24 23 23 22 21 20 20 20 21 21 20 20 19 19 19 20 20 19 19 20 19 18 17 15 16
20 20 20 20 22 21 20 22 23 24 24 23 22 22 22 23 23 23 22 22 22 21 20 20 21 21 21 20 20 19 19 19 19 19 19 19 19 19 18 18 17 17 17
20 21 20 21 22 22 19 21 21 22 22 22 21 21 21 22 22 22 21 21 21 20 20 20 20 20 20 19 19 19 19 19 19 19 19 19 18 18 17 17 17 16 16
18 24 19 20 19 21 22 22 23 23 22 22 21 20 20 21 22 21 21 20 20 19 20 20 20 19 19 19 19 19 18 18 18 18 18 17 16 16 16 15 13 14 15
18 18 18 19 20 21 21 21 21 21 21 22 22 22 21 20 19 20 19 19 20 19 19 19 19 18 18 19 18 18 18 18 17 18 17 16 15 15 15 14 13 12 14
18 18 18 19 20 20 21 20 19 19 20 19 20 20 19 19 19 19 19 19 19 18 18 17 18 18 18 17 17 17 17 16 16 16 15 14 14 14 14 13 13 12 13
17 18 18 18 18 19 20 19 19 20 20 19 19 20 20 19 19 19 19 19 19 18 18 17 17 17 16 16 16 15 14 14 15 14 14 14 14 13 13 13 14 13 12
16 17 17 17 17 18 19 18 17 18 18 18 18 18 16 16 17 17 17 17 17 17 16 16 15 14 13 13 13 13 13 13 14 14 14 14 14 15 15 15 15 15 13
16 15 15 17 17 18 18 18 17 17 17 16 15 15 14 13 14 14 15 15 14 13 13 12 13 13 13 12 12 12 13 13 13 13 14 14 14 13 14 15 13 13 13
14 14 13 14 16 17 17 18 17 16 16 15 14 13 13 13 13 12 12 12 12 12 12 12 11 12 12 12 12 12 13 13 13 13 13 13 13 12 13 12 12 12 12
13 13 13 14 14 15 16 16 16 15 15 14 13 13 12 12 11 11 11 11 11 11 10 10 10 11 11 11 11 12 12 12 13 13 13 13 13 13 12 12 12 12 12
10 12 12 12 13 13 13 13 14 13 13 13 12 12 12 11 10 10 10 10 10 9 10 10 10 10 10 10 10 11 11 11 12 12 12 12 12 12 12 12 12 11 12

GFSGL_850_temp_054.txt.gz
Temp
21 20 20 20 21 21 20 21 21 21 20 21 21 21 19 18 19 20 19 19 18 18 18 18 18 19 19 20 20 20 20 20 21 22 22 22 21 23 23 22 22 22 21
20 21 22 21 21 19 21 21 22 22 21 21 21 21 20 19 18 20 20 19 18 18 18 18 18 19 20 20 19 19 20 20 20 20 21 21 21 20 22 22 23 22 21
20 20 20 20 20 20 21 22 22 22 22 22 21 21 21 19 18 19 20 20 19 19 19 19 19 18 20 20 19 20 20 19 19 19 20 20 21 20 20 19 19 19 20
22 21 20 22 22 21 22 23 22 22 22 22 22 21 21 21 19 19 19 20 19 19 19 19 19 19 19 21 20 19 20 19 20 20 20 21 21 21 21 20 20 21 21
22 22 21 23 23 23 23 23 23 23 23 23 22 22 21 20 20 19 19 19 19 20 19 19 19 19 20 21 19 20 19 19 20 21 21 22 22 22 22 22 21 21 22
22 22 21 23 24 24 24 24 24 23 23 23 23 22 22 21 21 21 21 19 19 20 19 20 20 20 21 21 21 21 21 20 19 20 21 21 21 21 21 21 21 21 20
22 21 22 23 24 25 24 24 24 24 24 23 23 23 22 22 22 22 23 22 20 19 20 20 20 21 21 22 22 22 22 22 21 21 21 21 21 20 20 19 20 20 20
21 21 22 24 25 25 25 25 25 24 24 24 24 23 23 23 23 23 23 22 22 21 20 20 21 22 21 20 20 20 21 21 22 23 23 23 22 20 19 19 19 19 19
20 21 23 24 25 24 24 24 24 24 24 24 24 24 23 23 23 23 23 22 22 22 23 22 21 22 23 24 23 23 23 23 20 20 21 21 21 20 20 19 19 18 19
21 22 22 21 24 25 24 25 25 24 25 24 24 24 24 24 24 24 24 23 21 21 23 23 23 23 24 24 24 23 23 22 20 20 20 19 19 19 19 20 20 20 20
21 20 20 21 24 24 24 24 25 24 23 24 23 23 24 24 24 25 24 23 22 21 21 22 21 22 24 25 24 23 23 21 20 19 19 19 19 19 19 19 19 19 19
20 21 21 22 22 20 23 23 21 23 23 22 24 23 21 24 25 25 25 24 24 22 22 22 22 21 21 23 22 21 21 20 19 19 19 19 20 20 20 20 20 19 19
20 20 20 20 22 21 22 21 19 20 20 20 20 20 21 21 24 25 25 25 24 23 22 21 21 20 20 22 21 21 21 20 20 20 20 20 19 20 20 20 19 18 18
20 20 19 19 19 19 20 19 20 21 20 22 22 22 22 22 22 22 25 25 24 23 22 22 21 21 19 19 19 21 21 20 20 20 20 20 19 19 18 18 18 18 18
19 20 20 20 19 19 20 21 21 21 21 22 23 23 23 23 23 22 22 23 24 24 23 22 20 20 20 19 19 20 21 21 20 20 20 19 18 18 17 17 17 17 17
20 20 21 21 20 21 20 19 20 21 20 21 21 22 23 23 23 22 21 21 21 22 22 20 20 21 20 20 20 20 20 20 20 19 18 17 17 17 17 16 16 18 16
18 19 20 20 20 19 20 19 19 21 20 20 20 21 21 21 21 22 22 22 22 21 20 21 20 20 19 19 19 20 19 19 19 19 17 17 16 16 16 16 17 15 17
18 18 19 19 21 21 21 22 22 24 20 19 20 21 20 20 20 20 21 21 21 21 21 20 19 20 20 20 19 19 18 17 16 16 16 16 16 16 17 17 15 16 16
17 18 19 18 20 22 23 22 23 21 19 20 19 21 20 20 19 19 20 19 20 20 20 20 19 19 19 19 18 17 17 16 17 16 15 15 15 16 17 16 14 14 13
16 17 17 18 18 21 23 22 22 21 20 19 18 20 22 20 19 19 19 19 19 19 19 19 19 19 18 18 18 17 16 15 15 16 16 16 16 16 15 14 14 14 13
14 16 17 19 18 18 19 20 20 20 19 18 18 19 19 18 19 19 19 19 18 18 18 18 18 18 18 17 17 16 14 14 15 14 14 14 15 14 14 13 13 13 13
14 15 17 18 17 17 17 18 17 17 18 18 19 20 19 18 18 18 18 18 18 17 17 16 16 16 15 15 15 15 15 13 12 13 13 13 15 14 14 14 14 13 14
13 15 16 17 17 16 15 15 16 16 15 17 17 16 15 16 17 17 16 16 16 16 15 15 14 14 14 13 13 12 12 11 12 14 14 13 12 13 13 12 15 16 15
13 13 14 14 14 14 15 14 14 15 15 16 16 16 16 16 16 16 15 15 15 14 14 13 12 12 12 12 12 11 13 13 14 13 13 13 12 13 12 13 15 16 15
11 11 12 13 13 13 13 13 14 14 14 14 14 14 14 14 14 15 14 13 12 12 12 11 11 11 11 11 12 12 12 12 13 13 13 13 12 12 13 14 14 14 14
10 11 12 12 13 13 13 13 12 13 13 13 12 12 12 12 11 11 11 11 11 10 10 10 10 10 10 10 10 11 11 11 11 11 12 11 11 11 12 12 13 13 13

GFSGL_850_temp_057.txt.gz
Temp
19 19 20 20 20 22 20 20 20 20 20 21 20 19 19 19 19 19 19 20 20 19 20 20 19 19 20 21 21 21 22 22 22 22 23 23 22 22 22 22 22 21 20
20 19 20 20 20 20 21 20 20 20 20 20 21 19 19 19 19 19 19 20 19 19 19 19 19 19 19 20 21 21 21 22 21 21 21 21 21 21 21 21 21 20 20
21 21 20 20 20 20 20 21 20 20 21 21 21 20 20 19 19 19 19 19 19 19 20 20 19 19 19 20 20 21 21 21 21 21 21 21 22 22 22 22 22 21 21
23 22 21 20 20 20 20 21 21 21 22 22 22 22 21 20 19 19 19 19 19 19 19 19 20 20 19 19 20 20 20 21 21 21 21 22 23 23 23 23 23 23 23
23 22 22 21 20 20 20 20 21 21 22 23 22 22 21 20 20 20 20 19 19 19 20 20 19 20 20 20 20 20 20 20 21 21 22 23 23 24 23 22 22 22 22
24 23 23 21 20 20 20 20 21 22 22 23 22 22 22 20 21 21 20 20 20 20 19 20 20 20 20 20 20 21 21 20 20 20 21 21 22 22 21 21 21 20 20
24 24 23 22 21 21 21 20 21 23 23 23 23 23 23 23 22 21 21 21 20 20 20 20 20 21 21 21 20 21 21 22 21 21 21 22 22 22 22 21 19 20 20
24 24 23 22 21 21 21 21 22 23 24 23 23 23 23 23 23 22 22 21 21 21 20 21 21 22 21 21 21 20 20 22 23 23 22 22 21 21 20 19 19 19 19
24 23 23 22 21 20 21 22 22 23 24 24 24 24 24 24 23 23 23 22 21 22 22 22 21 21 23 23 22 22 22 22 21 21 21 21 20 20 20 19 20 19 19
23 23 22 22 21 21 21 21 22 24 24 24 24 24 24 24 24 24 24 23 21 21 22 23 23 24 24 23 23 22 22 22 22 21 21 20 20 20 20 20 20 19 19
23 23 22 21 21 20 20 20 21 22 21 23 22 23 24 24 24 24 24 24 22 21 21 22 22 23 23 23 23 22 22 22 21 20 19 19 19 20 20 20 19 20 20
24 22 22 21 21 21 20 20 20 20 20 21 21 21 21 23 24 24 24 24 24 23 23 23 23 23 23 23 22 22 21 21 20 19 18 19 20 20 20 20 21 21 20
23 22 21 20 20 21 20 20 20 20 21 20 21 21 22 22 21 21 24 25 25 24 24 22 23 23 23 22 21 21 21 20 20 19 19 20 20 20 20 21 20 20 19
22 21 21 20 20 21 21 20 21 21 21 22 22 23 23 23 24 23 22 24 25 24 24 24 23 22 21 21 20 20 20 20 20 19 19 21 21 20 20 20 19 19 19
21 21 21 21 20 20 21 21 22 22 23 22 24 24 24 24 24 24 24 23 24 25 24 24 23 22 20 20 19 19 19 19 19 19 20 20 20 20 19 19 18 18 18
21 21 21 22 21 21 22 22 22 22 22 23 23 24 24 25 25 25 24 23 22 22 22 20 20 20 21 21 21 20 20 20 20 20 20 20 19 19 19 18 18 17 17
20 21 22 23 22 22 22 21 21 21 21 22 22 22 23 24 24 23 24 23 22 21 21 20 21 22 20 19 20 20 20 20 20 19 19 19 18 18 18 17 16 16 17
20 21 22 23 23 23 22 22 21 21 21 21 21 21 22 23 23 24 23 22 21 20 20 21 20 19 20 20 20 19 20 20 19 18 18 18 18 18 18 16 16 16 18
18 18 20 21 20 20 21 21 22 22 23 23 23 22 21 21 22 22 22 21 20 20 19 19 19 20 20 20 20 19 19 18 17 18 17 17 17 17 16 15 15 15 15
17 18 18 19 18 19 19 20 20 22 24 24 25 27 22 21 22 20 20 19 19 20 20 19 19 19 20 19 19 18 18 17 17 16 16 16 15 15 15 15 15 14 14
16 18 19 19 19 18 18 20 20 21 20 23 26 21 23 20 20 19 19 18 19 19 18 18 18 18 18 18 18 16 15 16 15 15 16 14 14 14 14 14 15 15 14
15 17 19 19 19 18 17 20 20 18 19 19 21 19 19 18 17 18 18 18 18 18 18 18 17 17 17 17 16 16 15 14 14 14 14 14 14 13 13 14 14 14 15
16 16 18 19 18 17 18 16 16 16 17 17 18 18 18 16 15 16 17 17 17 16 17 16 15 15 15 15 15 14 13 13 13 13 13 13 14 14 13 13 13 16 17
13 14 14 15 16 16 16 15 14 15 15 16 15 15 14 13 12 14 15 15 15 15 15 14 14 14 14 13 13 11 14 14 14 14 14 14 12 13 14 15 14 15 15
11 12 12 13 13 13 13 15 14 14 14 13 13 13 12 12 14 13 11 11 12 12 11 11 11 11 11 12 12 12 12 13 13 13 14 14 13 12 13 14 14 14 14
9 10 11 12 12 13 13 13 13 13 14 14 11 10 12 11 11 12 12 11 11 11 10 8 7 7 10 10 11 11 12 12 12 12 12 12 12 12 12 12 12 13 14

GFSGL_850_temp_060.txt.gz
Temp
20 20 20 22 22 22 21 21 21 21 21 22 20 21 20 20 19 19 20 19 20 20 20 20 20 20 21 21 21 21 21 22 22 22 22 23 23 22 22 22 22 22 22
20 19 20 20 22 22 22 21 21 21 21 21 21 20 20 20 20 19 20 20 20 20 20 20 19 19 20 21 21 22 21 21 21 22 22 23 22 22 22 22 22 23 23
20 19 19 19 19 21 22 21 21 21 21 21 21 21 21 21 20 20 20 20 20 19 20 20 20 20 20 20 21 21 21 21 21 21 21 21 21 22 22 23 23 23 22
21 20 19 19 19 20 21 23 20 20 22 21 21 21 22 21 21 21 21 20 20 20 20 20 20 20 20 20 21 21 21 21 21 21 21 22 22 22 23 23 22 23 23
23 21 20 20 19 19 20 21 22 21 21 22 22 22 21 21 22 22 21 21 20 20 20 20 20 20 20 20 20 21 21 20 20 20 20 21 22 22 22 22 22 22 22
24 23 22 21 20 20 19 20 20 21 21 22 22 22 22 21 22 21 21 21 20 20 20 20 20 20 20 20 20 20 20 21 20 20 21 21 22 22 22 22 21 22 21
25 24 23 22 21 20 20 20 20 20 20 21 23 23 22 22 22 21 21 21 21 21 21 20 20 20 20 21 21 21 21 21 21 21 21 22 22 22 21 21 21 21 20
25 24 24 23 22 21 20 20 20 20 19 20 21 23 23 23 23 22 21 21 21 21 21 21 21 21 21 21 21 21 21 21 21 21 21 21 21 21 21 21 20 20 19
25 25 24 24 23 22 21 21 20 20 20 20 21 22 23 23 23 23 23 22 21 21 22 21 21 21 22 23 22 21 21 21 22 22 22 21 21 20 21 20 20 20 19
26 25 24 24 23 22 22 22 21 20 20 20 21 22 23 24 24 24 23 22 22 22 22 22 22 22 22 22 21 22 22 23 23 23 22 22 21 21 21 20 20 20 19
25 25 24 24 23 22 22 21 21 20 20 20 20 21 21 23 24 24 24 23 22 22 22 23 23 24 24 23 23 23 23 23 22 21 20 20 21 20 20 20 20 20 20
26 24 24 24 23 22 22 21 20 20 20 20 20 20 20 21 23 23 24 24 24 22 22 22 22 23 23 23 23 23 23 22 21 20 20 20 20 21 20 20 21 21 20
25 25 24 23 23 22 21 21 20 20 20 20 20 20 20 20 21 23 23 23 23 23 23 22 22 22 23 23 23 23 22 22 21 21 20 20 20 20 20 21 21 21 20
25 24 24 23 22 22 22 21 21 20 21 20 20 21 21 21 21 21 22 23 23 22 23 23 23 23 22 23 23 23 23 22 21 20 20 20 20 20 21 21 20 19 19
24 24 23 22 22 21 21 21 21 20 21 21 21 21 22 22 22 23 23 23 24 23 23 23 23 23 22 22 22 22 21 21 20 20 19 20 20 20 20 20 19 19 19
22 22 22 22 21 21 21 21 20 21 21 21 22 22 22 23 24 24 24 24 24 24 23 22 22 22 22 22 22 21 21 20 20 20 20 20 20 20 20 19 19 19 18
21 21 21 21 21 20 20 21 21 21 21 22 22 23 23 24 24 25 24 24 24 23 23 23 22 20 20 21 21 21 21 20 20 19 19 19 19 19 18 18 18 18 18
20 20 20 21 22 21 21 21 21 21 21 22 22 22 23 23 23 24 24 24 23 22 22 22 21 21 21 21 21 21 21 20 19 20 20 20 19 18 18 18 18 17 16
17 19 18 20 21 21 21 22 21 21 21 21 21 22 22 22 22 22 23 23 22 21 21 21 21 21 20 21 21 20 20 19 19 19 18 18 18 18 17 17 16 16 16
16 16 17 18 19 20 20 21 21 21 21 20 21 22 22 22 22 22 24 24 22 21 20 20 21 21 20 19 19 19 19 19 19 18 17 17 18 17 17 16 15 15 15
13 16 16 17 18 18 17 18 18 19 19 20 20 20 21 21 19 18 20 22 22 20 20 20 19 19 18 18 18 18 18 18 18 17 18 17 17 17 17 16 14 15 15
15 15 16 17 17 18 18 19 18 18 18 18 19 18 24 22 18 18 19 20 18 18 19 18 18 17 17 17 17 17 16 16 15 15 15 16 16 15 15 15 16 16 16
14 14 15 15 15 17 17 16 16 16 17 16 16 17 18 17 19 18 17 17 17 17 17 17 15 16 15 15 14 15 15 15 15 14 14 14 14 14 14 15 15 15 15
12 13 14 15 15 15 14 15 16 15 15 16 16 15 14 13 14 14 14 16 16 15 14 14 13 13 14 14 15 15 15 14 14 14 14 14 14 13 14 14 15 15 15
12 13 14 14 14 14 14 14 14 14 13 13 13 13 14 15 15 14 13 15 11 13 11 12 13 12 12 12 12 13 13 13 13 13 13 13 13 13 12 13 14 14 14
9 10 11 11 13 13 12 12 12 13 13 13 12 12 12 11 12 12 11 11 10 10 11 10 10 12 11 11 11 10 11 11 11 12 12 12 11 11 12 13 13 13 13

GFSGL_850_temp_063.txt.gz
Temp
21 21 21 21 21 22 21 21 21 22 22 21 21 21 21 21 21 20 20 20 19 20 20 20 20 21 21 21 21 21 21 21 21 22 22 23 22 22 22 23 22 22 22
22 21 21 22 21 22 22 21 21 21 22 21 21 21 20 20 20 20 20 20 19 19 20 20 19 20 20 21 21 20 21 21 21 21 21 21 21 22 22 22 22 22 22
21 21 21 21 22 22 22 22 21 22 21 21 20 20 20 20 21 21 20 21 20 20 20 20 20 20 20 20 21 21 21 21 21 21 21 21 22 22 22 21 21 22 22
21 21 21 21 21 22 22 22 22 22 22 21 21 21 21 21 21 21 21 21 21 20 20 20 20 20 20 20 20 20 21 21 21 21 21 21 21 21 21 21 22 23 23
21 21 21 21 20 20 21 22 22 22 22 22 22 21 21 21 21 21 21 21 21 21 21 20 21 20 20 20 20 20 20 20 20 20 20 20 21 20 21 22 22 22 22
22 21 21 20 20 20 20 20 21 21 21 22 22 22 21 21 22 22 22 21 21 21 22 21 21 21 21 20 20 20 20 19 19 20 20 20 21 21 22 22 22 21 20
23 22 22 21 21 20 20 19 20 21 20 21 21 21 22 22 22 22 22 22 21 21 21 22 22 21 21 21 21 20 20 20 20 20 20 21 21 22 21 22 21 20 20
23 23 23 22 22 22 20 20 19 20 20 20 20 21 21 22 22 22 22 22 22 21 21 22 22 22 22 21 21 20 20 20 21 21 20 21 20 21 21 20 20 20 20
22 23 24 23 23 22 22 21 20 20 20 20 20 21 21 22 22 22 21 21 21 21 21 21 21 22 22 22 21 21 21 21 21 21 21 20 20 21 21 20 21 19 19
24 23 25 24 23 23 23 22 21 21 20 20 20 20 20 21 21 22 22 21 21 22 22 22 21 21 21 22 21 21 21 23 22 22 22 21 21 21 21 20 20 19 19
22 23 25 25 24 24 23 23 22 21 21 20 20 20 20 20 21 22 22 21 22 22 22 22 22 22 22 22 22 21 22 23 22 21 21 21 22 21 21 21 20 19 20
24 23 24 25 24 24 24 23 22 22 21 21 20 20 20 21 21 22 23 22 22 22 22 23 23 23 23 23 23 22 22 22 22 21 21 21 21 21 21 20 20 20 19
23 24 23 23 24 24 23 23 22 22 21 21 20 20 20 21 21 22 23 23 22 22 22 22 22 22 22 22 22 22 22 22 22 21 21 22 21 20 20 20 20 19 20
23 23 23 23 24 24 23 23 22 22 21 20 20 20 20 20 20 21 22 23 23 22 22 22 21 21 20 21 21 22 22 22 22 22 22 21 20 19 20 19 19 21 20
22 23 23 24 23 24 23 23 22 22 22 21 21 20 20 20 22 23 23 23 24 24 23 21 20 20 21 21 21 21 22 22 22 22 21 20 20 19 20 19 19 20 19
21 23 22 22 23 23 23 22 21 21 21 21 21 21 21 21 21 22 22 22 23 23 23 22 21 21 22 23 23 22 22 22 22 21 20 20 20 20 19 19 19 20 19
19 21 22 21 22 22 22 22 22 21 21 20 20 20 20 21 21 21 22 23 23 22 22 23 23 22 22 22 22 22 22 22 21 20 20 20 20 20 19 19 18 18 18
17 20 21 21 21 21 22 21 21 21 21 20 20 20 20 21 21 22 22 23 23 23 23 23 23 23 22 22 22 21 20 20 20 20 20 19 19 19 18 18 18 18 18
15 17 20 20 20 20 20 21 21 21 21 21 20 21 20 20 21 22 22 22 23 23 23 23 23 23 22 21 21 21 20 20 20 20 19 19 19 19 18 18 18 17 17
14 15 17 18 20 20 21 20 20 20 21 21 21 20 20 20 21 21 22 22 22 22 22 22 22 21 20 20 20 21 21 21 20 20 18 19 20 19 18 18 17 17 17
13 15 16 17 19 18 20 20 19 19 19 19 20 19 18 19 19 21 21 21 21 21 20 20 20 17 17 19 20 21 22 18 18 18 18 17 17 17 17 17 17 16 16
12 13 15 16 16 17 16 16 17 17 17 17 17 17 17 19 18 18 18 19 20 19 19 18 20 18 15 18 17 18 18 17 17 17 17 16 16 16 16 16 16 15 15
12 13 14 15 16 16 16 16 16 16 16 16 16 16 17 18 17 18 17 17 17 17 17 17 17 16 16 17 18 17 16 16 16 16 16 15 15 15 15 15 15 15 15
11 12 12 14 15 14 15 15 15 15 15 15 16 16 15 16 16 15 16 16 15 15 15 15 15 15 16 16 16 15 15 14 15 15 14 14 14 14 14 14 14 14 14
10 11 11 12 12 12 14 14 14 15 14 15 15 15 15 14 14 15 15 15 14 14 14 14 13 13 14 14 13 14 14 14 14 13 13 13 13 13 13 13 13 13 13
8 9 9 9 10 10 11 12 12 12 12 12 12 12 11 11 12 10 12 11 12 12 12 12 11 11 12 12 11 12 11 12 12 12 12 12 12 12 12 12 12 12 13

GFSGL_850_temp_066.txt.gz
Temp
22 22 21 21 21 21 21 20 20 21 20 20 21 21 20 20 20 20 20 20 20 20 20 20 21 21 21 21 21 21 21 21 21 22 22 22 22 22 22 22 21 21 22
23 22 22 21 21 21 21 21 20 20 20 20 21 21 21 20 20 20 20 20 20 20 20 20 21 21 21 21 21 21 21 21 21 21 21 22 22 22 22 21 22 22 21
23 22 22 21 21 22 21 21 21 20 20 21 21 21 21 20 20 20 20 21 20 20 20 20 20 20 20 20 21 21 20 20 20 20 20 21 21 21 22 21 22 21 22
22 23 22 22 22 21 22 21 21 21 21 21 21 21 21 21 20 20 20 21 21 20 20 20 20 19 20 20 20 20 20 20 20 20 20 21 21 21 21 21 21 22 23
22 22 22 22 22 22 21 21 22 22 21 21 21 21 20 20 20 20 20 21 21 21 21 21 20 20 20 20 19 20 20 20 20 20 20 20 21 21 21 21 21 21 22
22 22 22 22 22 22 22 21 21 22 22 21 21 21 21 20 20 20 21 21 21 21 21 21 21 21 21 20 20 20 20 19 20 19 20 20 21 21 21 20 20 20 20
22 22 22 22 22 22 21 21 21 21 21 21 21 21 21 21 20 20 21 21 21 21 22 22 22 21 21 21 21 20 20 20 20 20 20 20 20 21 20 20 20 19 20
21 21 22 22 21 22 21 21 21 20 21 21 21 21 21 21 21 21 21 21 21 21 22 22 22 22 22 21 21 21 21 21 20 20 20 21 20 21 20 20 20 20 19
22 21 21 21 21 21 22 21 21 20 20 20 21 21 21 22 21 21 21 21 21 21 22 22 22 22 22 21 21 21 21 22 22 21 21 21 21 20 20 20 21 19 19
21 21 20 20 21 21 22 22 22 22 21 21 21 20 21 21 22 21 21 20 21 21 21 22 22 22 22 22 21 21 21 22 22 22 21 21 21 20 20 20 19 19 19
21 20 19 20 21 22 22 22 22 22 21 21 21 21 21 21 21 21 21 20 20 21 21 22 23 23 22 22 22 21 22 22 22 21 21 21 21 21 21 20 19 19 19
19 20 21 22 21 22 22 22 23 22 22 22 21 21 21 21 21 21 21 20 21 20 21 23 23 23 23 22 22 22 21 21 21 21 21 21 21 21 21 20 19 19 19
20 22 22 22 21 20 22 22 22 22 21 22 21 21 22 21 21 21 21 21 21 20 21 22 23 23 22 22 21 21 21 21 21 21 21 22 22 22 20 19 19 19 19
21 22 22 22 22 21 21 22 22 22 22 21 21 21 21 21 21 22 22 22 22 21 21 21 21 21 21 21 21 21 21 21 21 21 22 22 22 21 20 19 19 19 19
21 21 21 22 23 22 22 22 22 23 23 23 22 22 21 22 22 22 22 23 23 24 23 21 20 20 20 20 20 20 20 20 21 21 21 21 21 20 19 19 19 19 19
14 15 18 21 23 22 22 21 22 22 22 23 22 22 23 23 22 22 22 22 22 22 21 21 21 21 21 20 20 20 20 20 20 20 21 21 20 19 19 19 19 19 19
14 14 16 17 19 20 21 21 21 21 21 22 21 21 21 21 21 21 21 21 21 21 21 21 21 21 21 22 21 21 22 22 21 21 21 20 20 20 19 19 19 19 19
14 14 15 16 18 20 20 20 21 21 21 21 21 21 21 21 20 20 20 20 20 21 20 20 21 22 22 22 22 22 21 21 21 21 21 20 19 20 19 19 19 19 18
13 15 15 16 18 19 20 20 20 21 21 22 22 21 21 21 20 20 20 20 20 21 21 21 22 22 22 22 21 20 21 22 21 21 20 20 19 19 19 19 18 18 18
12 13 13 14 17 19 19 21 20 20 20 21 21 22 21 20 20 20 20 20 20 21 21 21 22 22 21 21 20 20 20 18 18 20 20 20 19 19 19 19 19 18 18
12 12 13 14 17 17 18 19 20 20 21 21 21 21 20 20 21 19 19 19 19 20 20 21 21 21 21 20 21 22 22 22 14 14 18 18 19 19 18 17 17 16 16
12 11 12 14 16 16 17 19 19 19 20 19 19 19 19 18 19 18 18 17 19 20 20 20 20 21 21 21 20 22 19 17 16 15 17 17 17 17 17 17 16 16 16
11 10 11 13 15 15 16 16 16 16 18 18 18 17 16 16 16 16 16 17 18 18 19 20 19 19 19 18 18 19 19 17 15 16 16 17 17 16 16 15 15 15 15
10 9 10 11 12 13 15 16 15 16 15 15 14 15 15 15 15 16 16 15 16 16 16 16 16 16 16 16 15 15 15 15 15 15 15 15 16 15 15 15 15 15 14
9 9 10 11 11 10 10 13 15 15 15 15 15 15 15 14 15 15 15 15 16 15 15 15 15 15 14 14 14 14 14 14 13 13 13 14 13 14 14 13 13 13 13
8 8 9 9 10 10 10 11 13 12 12 14 13 13 13 14 14 14 13 13 14 13 11 11 12 12 11 12 12 12 12 12 12 12 13 13 13 13 13 13 12 12 12

GFSGL_850_temp_069.txt.gz
Temp
22 22 22 22 22 21 20 20 20 20 20 20 20 20 20 20 20 19 19 19 19 20 20 20 20 20 20 20 21 20 20 20 21 21 21 22 22 22 22 22 22 21 21
22 22 22 22 22 22 21 20 20 20 20 20 20 20 20 20 20 20 19 19 19 19 19 19 20 20 21 21 21 20 20 20 20 21 21 21 21 22 22 22 22 21 21
23 22 22 22 22 22 22 22 21 20 20 20 20 20 20 20 20 20 20 19 20 20 19 19 20 19 20 20 21 21 21 20 20 20 20 21 21 21 22 22 21 22 22
21 22 22 22 22 22 22 22 22 21 20 20 20 20 20 20 20 21 20 20 20 20 20 20 20 19 19 20 20 20 20 20 20 20 20 21 21 21 21 21 22 22 23
20 21 22 22 22 22 22 22 22 22 21 21 20 20 20 20 20 21 21 21 20 20 20 20 21 20 20 20 20 20 19 19 19 20 20 20 21 21 21 21 20 21 22
19 20 21 22 22 22 22 22 22 22 22 22 21 20 20 20 20 20 20 20 20 20 20 21 21 21 21 21 20 20 20 19 19 19 19 20 20 21 21 20 20 20 20
19 19 20 20 21 22 22 22 22 22 22 21 22 22 21 21 20 20 20 20 20 20 20 21 21 21 21 21 21 20 20 20 19 19 19 20 20 21 20 20 20 19 19
20 20 21 21 20 21 21 22 22 21 21 22 21 21 22 22 22 21 20 20 20 20 20 20 21 21 21 21 20 20 20 20 20 20 20 21 20 20 20 20 19 19 19
19 19 18 19 19 20 20 21 21 21 21 21 21 21 21 21 22 22 22 21 20 20 21 21 21 21 21 21 20 20 20 21 21 21 21 21 20 21 20 20 19 19 19
17 18 17 18 18 18 19 20 20 20 21 21 21 21 21 22 21 21 21 21 21 21 21 21 21 21 22 21 21 20 20 21 21 21 21 21 20 20 20 19 19 19 19
17 18 18 18 18 18 18 20 19 20 20 21 21 22 22 22 22 22 21 20 21 21 21 21 22 22 22 22 22 21 21 21 21 21 21 20 21 21 20 20 20 19 18
16 18 18 19 19 19 21 21 21 19 19 19 21 21 22 22 22 21 21 21 21 20 21 21 21 22 22 22 22 22 22 21 20 20 20 20 21 22 21 21 20 19 19
17 17 18 19 20 21 21 22 21 19 18 18 19 21 21 22 23 22 22 21 20 20 20 20 20 21 21 22 22 22 22 21 20 20 21 21 22 22 21 21 20 20 19
16 18 18 19 20 21 22 22 22 19 19 19 19 19 19 20 23 22 22 22 21 20 20 20 20 20 20 21 21 21 21 20 20 21 21 21 21 21 21 21 21 20 19
16 17 18 20 20 19 21 23 22 22 21 21 21 20 20 22 23 23 23 23 22 22 21 20 20 20 20 21 22 22 21 20 20 20 21 21 21 21 21 21 20 19 18
15 18 17 18 20 19 19 22 22 21 22 22 21 20 20 22 22 22 21 21 21 20 19 19 20 20 21 21 21 22 21 21 20 20 20 20 20 20 20 20 19 19 19
15 15 15 16 19 18 18 18 19 20 20 20 20 21 20 21 21 21 21 20 20 19 19 19 19 20 21 22 22 21 21 21 21 20 20 19 19 19 19 19 19 19 19
13 14 14 15 17 17 16 17 18 19 19 21 20 20 21 21 21 21 20 20 19 19 19 20 21 22 22 21 21 21 21 21 20 19 19 18 18 19 19 19 19 19 18
12 13 14 13 16 17 17 18 18 18 19 20 21 21 21 21 20 20 20 20 20 20 20 20 20 21 21 20 20 21 21 21 20 19 18 18 18 18 17 18 19 19 19
11 12 12 13 14 15 16 18 19 20 19 19 20 21 21 20 20 20 20 20 20 20 20 20 20 21 20 20 20 21 21 22 22 22 21 20 18 19 20 19 16 16 18
10 12 12 13 12 13 13 14 16 17 18 18 19 20 20 20 20 20 20 20 20 20 20 20 20 20 20 20 20 20 21 19 19 20 19 20 20 21 23 22 22 16 17
10 10 11 11 12 13 13 14 16 16 17 17 17 18 19 19 20 20 19 19 19 19 19 19 20 19 19 19 20 20 18 18 19 18 19 19 20 20 18 16 14 15 16
8 9 10 11 13 13 13 14 15 15 17 17 17 17 17 18 19 18 17 18 18 18 17 18 19 19 19 18 18 18 19 19 19 19 19 18 18 17 16 15 17 16 16
7 8 9 11 12 13 12 13 14 15 15 15 16 16 17 17 17 17 17 16 16 16 17 17 17 17 17 17 17 18 17 16 16 17 18 19 17 15 14 14 15 15 15
7 8 9 10 12 9 9 11 12 13 14 14 15 15 14 15 15 15 15 15 15 15 15 15 16 14 14 14 15 16 16 14 14 15 16 15 14 14 13 14 14 14 14
5 6 7 9 9 10 8 9 9 8 12 12 14 14 13 13 14 13 13 13 14 13 13 11 11 10 15 15 14 12 12 13 13 12 13 13 13 12 12 12 12 12 12

GFSGL_850_temp_072.txt.gz
Temp
22 21 21 21 21 20 21 20 20 20 20 20 20 20 19 19 19 19 19 19 19 19 19 19 20 20 20 20 20 20 20 20 20 20 21 21 21 21 22 22 22 22 21
22 22 22 22 21 21 21 21 20 20 20 20 20 20 20 20 19 19 19 19 19 19 19 19 20 20 20 20 20 20 20 20 20 20 20 21 21 21 22 22 22 21 21
21 21 21 22 22 21 21 21 21 21 20 20 20 20 20 20 20 20 19 19 19 19 19 19 19 19 19 20 20 20 20 20 20 20 20 21 21 21 22 22 22 22 21
20 20 21 22 22 22 22 21 21 21 21 21 20 20 20 20 20 20 20 20 20 19 20 20 19 19 19 19 19 19 19 19 19 19 20 20 21 21 21 21 22 21 22
19 20 21 21 22 22 21 21 21 21 21 21 21 21 20 20 20 20 20 20 20 20 20 20 20 20 20 20 19 19 19 19 20 20 20 20 21 21 21 20 20 20 22
19 20 21 21 21 21 21 21 21 21 21 21 21 21 21 20 21 20 20 20 20 20 20 20 20 20 20 20 20 20 20 20 20 19 20 20 21 20 20 20 19 19 20
18 19 19 20 21 21 21 21 21 21 21 21 21 21 22 21 21 21 21 20 20 20 20 20 20 20 20 20 20 20 20 20 20 20 20 20 20 20 20 20 19 19 20
18 18 18 19 20 21 21 21 21 20 21 21 21 21 21 21 22 22 21 21 21 21 21 21 21 21 21 20 20 20 20 20 20 20 20 20 20 20 20 19 19 19 20
17 17 18 18 18 19 20 21 20 20 20 21 20 21 21 21 21 21 21 21 21 21 21 21 22 22 22 21 21 20 21 21 20 20 20 20 21 20 20 19 19 19 19
16 16 17 17 17 17 18 19 20 20 20 20 20 20 21 21 21 21 20 20 20 21 22 22 22 22 22 22 21 21 21 22 21 21 21 20 20 20 20 19 19 19 19
16 16 17 17 17 17 18 18 19 20 21 20 20 20 21 21 21 21 21 20 20 21 21 22 22 22 22 22 22 21 22 22 21 21 21 21 21 21 21 20 20 19 19
16 16 16 16 17 17 17 17 18 19 20 20 21 21 21 22 22 22 21 21 20 20 21 22 22 22 22 22 21 21 22 21 21 21 21 21 21 22 22 21 21 20 20
14 16 17 17 18 17 17 18 19 20 19 20 20 22 22 22 23 22 22 21 21 20 20 21 21 21 21 21 21 21 21 20 21 20 21 21 21 22 21 21 21 21 21
14 15 16 18 18 18 19 18 19 19 20 20 20 20 22 21 23 23 23 22 22 21 20 20 21 21 20 20 20 20 20 21 21 21 21 21 21 21 21 21 21 21 20
12 14 14 16 17 17 18 19 19 20 18 19 20 20 22 22 23 22 22 22 21 21 20 20 21 20 20 20 20 21 21 21 21 21 21 21 21 21 21 21 20 20 20
11 12 13 15 15 18 17 20 20 19 20 20 19 18 22 23 21 20 19 21 22 20 18 19 20 20 20 20 20 21 22 22 22 22 21 21 21 20 20 20 20 20 20
10 10 11 14 12 14 15 17 19 21 19 20 19 20 22 23 20 20 19 18 18 19 19 19 19 19 20 20 20 21 22 23 22 21 21 21 20 20 19 19 19 19 19
10 11 11 11 11 13 14 15 17 17 19 22 20 21 22 21 20 19 18 18 18 18 19 20 20 20 19 19 20 20 21 21 21 21 21 21 20 20 19 18 19 19 20
9 10 11 12 13 13 13 14 15 18 19 19 19 21 22 20 20 19 19 18 18 18 19 19 20 20 20 20 20 20 21 21 21 20 20 20 21 21 21 20 19 20 20
8 9 10 11 12 13 13 12 13 16 17 17 19 20 19 20 19 20 20 19 19 19 20 20 20 20 20 20 20 20 21 20 20 20 21 21 21 21 21 20 18 18 19
7 8 9 9 10 11 11 12 13 13 14 14 18 20 18 18 18 19 20 20 19 19 19 20 20 20 19 19 20 19 20 21 21 21 21 21 20 19 19 17 17 17 17
6 8 9 9 9 10 11 12 13 12 13 14 15 18 18 17 17 18 19 20 20 20 20 19 19 19 19 19 19 19 19 20 20 19 18 18 17 17 16 16 17 17 16
6 6 7 8 9 10 11 12 13 12 13 15 15 17 17 17 17 18 17 18 18 18 18 17 18 18 18 18 17 18 18 18 17 17 17 17 16 16 16 16 17 17 18
4 5 6 7 7 9 9 10 10 11 12 13 13 15 16 16 15 15 16 16 17 17 17 17 17 18 18 17 16 17 17 16 16 16 16 17 17 16 15 15 16 17 17
3 5 6 6 7 7 8 9 9 11 11 12 13 14 14 15 15 15 15 15 15 16 16 16 16 16 16 16 15 15 15 15 15 14 14 15 15 15 15 15 15 16 14
1 3 3 4 4 5 6 7 8 8 8 9 10 12 12 13 12 12 12 11 13 12 10 13 14 14 14 14 13 13 13 14 13 13 13 14 13 13 13 14 14 14 13

GFSGL_850_temp_075.txt.gz
Temp
22 22 21 21 21 20 20 20 20 20 20 20 20 20 20 19 19 19 19 19 19 19 19 19 19 20 20 20 20 20 20 20 19 20 20 21 21 21 21 22 22 22 22
22 21 22 21 21 21 20 20 20 20 20 20 20 20 20 20 19 19 19 19 18 19 19 19 19 19 20 20 20 20 20 20 20 19 19 20 21 22 22 22 22 22 22
21 21 21 21 21 21 21 21 21 21 20 20 20 20 20 20 20 20 20 19 19 19 19 19 19 19 19 19 20 20 19 20 20 20 20 19 21 21 22 22 22 23 22
18 19 20 21 21 21 21 21 21 21 21 20 20 20 20 20 20 20 20 20 20 20 20 19 20 20 19 19 19 19 19 19 18 19 18 19 19 19 21 20 20 20 21
19 19 20 21 21 21 21 21 21 21 21 21 20 20 20 20 20 20 20 20 20 20 20 20 20 20 20 20 19 19 19 19 18 18 19 19 19 19 19 19 19 19 20
18 19 19 20 20 20 21 21 21 21 21 21 20 20 21 21 20 21 21 21 21 21 20 20 20 20 20 20 20 20 20 20 20 18 19 19 19 19 19 18 18 18 19
18 18 18 18 19 20 20 20 21 22 22 21 21 21 20 21 21 21 21 21 21 21 21 21 21 21 21 20 20 20 20 20 20 20 20 21 21 21 20 20 18 18 18
17 18 18 18 18 18 19 19 20 21 21 22 21 21 21 21 21 21 21 21 20 21 21 21 21 21 21 21 21 20 21 21 21 20 20 21 21 21 20 20 20 20 19
15 15 17 17 17 18 18 18 19 19 20 21 21 21 21 21 21 21 21 20 21 21 21 22 22 21 22 22 21 21 21 21 21 21 21 21 21 21 20 19 18 18 19
14 15 15 16 17 17 17 19 18 18 19 19 20 21 21 21 21 21 21 20 20 20 21 21 22 22 22 22 22 21 21 22 22 22 22 22 21 21 20 20 20 18 19
14 14 14 15 16 17 16 17 17 17 17 18 20 21 21 21 21 21 21 20 20 20 21 21 22 22 23 23 23 22 22 22 22 21 22 22 21 21 21 21 21 21 19
13 14 14 14 15 16 16 17 17 17 17 18 18 20 21 21 22 21 21 21 20 20 20 21 21 22 23 22 22 22 22 22 21 20 19 19 20 19 20 21 21 21 21
13 13 14 15 15 16 16 16 17 16 17 17 17 20 21 21 21 22 22 21 21 20 21 21 21 21 22 22 22 21 21 20 20 20 20 21 21 20 21 22 21 21 21
11 12 13 14 15 15 16 16 17 17 18 18 18 17 18 18 19 19 21 22 22 21 21 21 21 20 20 20 20 20 19 19 20 20 21 21 21 21 22 22 21 21 20
9 10 11 12 13 14 15 15 17 18 17 17 18 17 18 18 19 20 20 20 22 22 20 20 20 20 19 20 20 18 18 20 20 20 20 20 20 21 22 21 21 21 20
7 7 9 10 11 12 13 15 16 18 19 18 19 19 20 18 18 19 20 20 22 21 18 18 20 19 18 20 20 20 20 20 20 20 20 20 20 20 20 20 20 21 20
7 7 7 9 9 10 11 12 15 18 19 18 19 19 19 20 19 20 21 21 21 21 18 18 18 19 20 19 19 19 19 21 21 20 18 20 21 21 20 19 18 18 19
6 6 7 8 8 9 9 11 12 13 17 21 20 19 19 18 20 21 21 19 18 18 18 19 19 19 19 19 19 20 18 20 21 19 18 21 21 21 21 20 20 20 19
6 7 7 7 8 9 10 10 11 12 13 17 19 19 20 19 20 20 21 22 20 18 18 18 19 19 20 20 20 20 20 20 20 20 19 19 19 20 20 20 20 20 19
5 6 6 7 8 9 9 10 11 12 12 16 17 16 19 20 21 20 20 21 21 20 18 19 19 19 19 19 19 19 19 19 20 20 20 19 20 20 20 20 20 20 19
3 5 6 6 7 8 8 9 10 11 12 13 14 14 16 15 18 16 16 20 20 21 19 19 19 20 20 20 19 19 19 19 19 20 20 20 19 19 20 20 19 18 18
3 4 5 5 6 7 8 8 9 10 11 11 13 14 15 14 17 17 16 17 17 20 19 19 19 19 19 19 19 19 18 19 19 19 19 19 19 18 19 18 18 17 18
1 2 3 4 5 6 6 8 9 9 11 12 12 13 14 16 15 15 16 16 16 19 18 18 19 18 18 18 18 18 18 18 18 18 17 18 18 18 17 17 17 17 15
-0 1 2 3 4 5 5 6 7 8 9 10 10 11 12 14 15 15 16 15 16 15 15 17 18 18 17 17 17 17 18 18 18 17 17 17 17 17 16 15 16 15 15
-2 -1 0 2 3 4 5 6 7 8 9 9 9 10 11 12 13 14 15 15 15 15 15 16 16 17 17 16 17 17 17 17 17 17 16 16 15 15 15 14 14 14 14
-2 -2 -1 0 1 2 2 4 6 6 6 7 7 8 10 11 11 11 12 13 13 12 12 13 13 14 14 13 12 13 15 15 15 15 15 15 15 14 14 14 14 14 14

GFSGL_850_temp_078.txt.gz
Temp
21 21 20 20 21 21 20 20 20 18 18 18 19 19 18 18 18 19 19 19 18 18 18 18 18 18 19 20 20 20 20 21 21 22 22 22 20 20 21 23 21 22 22
19 19 21 21 20 19 21 20 20 20 18 18 18 19 18 18 18 19 19 19 18 18 18 18 18 19 19 20 19 19 20 20 20 20 21 21 20 20 19 22 21 21 21
18 18 19 19 19 20 20 21 20 20 20 19 18 19 19 18 18 20 20 18 18 18 18 18 18 18 18 19 19 20 20 20 20 20 21 21 21 20 20 20 21 21 22
21 19 18 19 19 22 21 21 21 21 21 21 20 18 18 19 18 19 19 20 19 19 18 19 18 18 18 18 18 18 19 19 20 20 21 21 22 21 21 21 22 22 22
18 20 20 19 18 18 21 21 21 21 21 21 21 20 19 19 19 19 19 19 19 19 19 19 19 19 19 19 19 19 19 19 20 21 21 22 22 22 21 21 21 22 22
16 17 18 19 18 18 19 20 19 20 21 21 21 21 21 20 20 19 19 19 19 19 19 19 20 20 20 20 20 20 20 19 18 20 21 21 21 20 21 21 21 21 21
16 17 17 17 17 18 18 17 19 20 19 19 20 20 21 22 21 21 21 20 19 19 19 19 20 21 20 20 21 21 20 20 20 20 19 20 20 20 19 19 19 20 20
15 16 16 16 16 17 17 17 17 17 17 19 20 20 21 22 22 22 21 21 21 20 19 19 19 19 20 19 19 19 20 21 21 21 21 21 21 21 21 19 18 19 19
13 14 15 15 16 17 17 17 18 17 18 17 18 19 20 22 22 22 22 21 20 21 21 21 20 20 20 21 21 20 20 20 20 20 21 21 21 22 21 20 20 20 22
11 12 13 14 15 16 17 17 17 17 17 17 18 18 18 20 21 22 22 21 19 19 19 21 21 22 22 22 21 21 21 21 20 20 20 20 22 22 22 21 21 20 21
11 12 14 14 14 15 16 17 16 17 17 17 17 17 18 18 19 21 21 21 21 20 20 20 20 20 21 22 22 22 22 22 20 20 20 20 20 20 20 20 21 21 21
10 12 14 14 14 14 14 16 16 16 17 18 18 18 18 18 18 20 21 21 21 20 20 21 21 20 20 20 22 22 22 21 19 20 21 21 22 22 22 22 20 20 21
10 10 11 14 14 14 14 15 15 16 16 17 18 18 18 18 19 19 20 21 21 20 21 20 20 20 19 19 20 20 20 20 19 19 20 21 21 22 22 21 21 20 20
9 9 10 10 11 13 12 12 13 14 15 15 17 17 18 18 19 20 20 21 21 21 21 21 21 20 19 18 19 20 20 20 19 19 20 20 21 21 21 21 20 21 20
9 9 9 10 11 10 11 12 11 13 14 16 14 16 17 18 18 19 19 19 19 20 21 20 20 19 19 18 18 18 18 18 19 18 19 20 20 20 20 20 21 21 21
7 9 10 9 10 10 11 11 12 14 15 15 15 15 18 18 18 18 18 19 19 18 20 19 18 19 20 20 20 20 19 19 19 19 19 19 20 20 20 20 20 21 20
6 6 7 8 9 9 10 10 11 12 14 16 16 16 16 18 18 19 18 17 20 19 19 18 18 19 20 20 19 19 19 19 19 19 20 20 20 20 20 20 21 21 20
5 6 5 6 7 9 9 10 10 11 11 12 16 16 16 17 17 18 17 19 20 21 19 18 18 19 18 18 18 18 19 18 19 18 18 18 20 20 20 20 20 20 21
2 4 5 6 6 7 7 7 8 8 9 10 11 13 13 15 16 18 18 20 20 20 21 19 21 18 18 18 18 18 18 19 19 19 19 18 19 20 20 20 20 20 20
2 2 3 3 4 6 6 6 7 7 9 9 10 11 11 12 12 14 17 19 19 19 19 20 21 19 19 18 19 18 18 19 19 19 19 18 18 18 19 19 20 20 20
1 1 2 3 4 5 5 4 6 6 7 10 12 10 11 12 13 12 13 16 18 18 18 18 18 18 20 20 19 19 19 19 19 19 19 19 19 18 19 19 19 19 19
0 0 1 2 3 3 3 4 5 6 8 9 11 10 11 12 13 12 12 13 16 16 16 17 20 20 19 18 19 19 19 19 19 19 19 19 19 18 18 18 18 18 18
-1 -1 -0 0 1 2 3 3 4 4 6 6 8 10 11 11 13 13 13 13 13 16 16 17 18 18 19 21 20 18 19 18 18 19 19 18 18 18 18 18 18 18 17
-1 -1 -1 -1 -0 0 1 2 3 3 4 5 6 7 9 10 12 13 14 14 14 16 16 15 16 18 19 18 18 18 17 18 17 17 17 17 18 18 17 17 17 17 17
-2 -2 -2 -2 -1 -1 -0 0 2 3 4 5 6 7 8 9 9 10 11 12 12 13 14 14 15 15 16 16 16 17 17 17 17 17 17 17 17 16 16 15 15 15 15
-3 -3 -2 -2 -2 -2 -2 -1 -0 1 2 4 5 6 7 8 9 10 10 11 12 12 13 13 13 14 15 15 15 16 16 16 16 16 17 16 16 15 15 14 15 14 14

GFSGL_850_temp_081.txt.gz
Temp
20 20 20 20 19 19 19 19 19 19 19 20 19 20 19 19 19 19 19 19 18 18 20 19 19 19 20 22 22 22 22 22 23 23 23 22 21 21 21 23 22 22 23
21 20 20 20 20 20 19 19 19 18 19 19 19 19 19 19 19 19 19 20 19 19 19 19 19 20 20 20 21 21 21 21 21 21 21 21 22 22 21 21 21 22 22
22 21 20 20 19 20 20 19 19 19 19 19 19 19 19 19 19 19 19 19 19 19 19 19 19 19 19 20 20 21 21 21 21 21 21 22 22 22 22 22 22 22 23
21 21 21 19 19 19 20 20 19 19 19 19 19 19 19 19 19 20 19 19 19 20 20 20 20 20 19 19 19 19 20 21 21 21 21 22 23 23 23 22 23 23 23
20 20 21 20 19 19 19 19 19 19 19 20 20 19 19 19 20 20 20 20 19 20 20 20 20 20 20 19 19 20 20 20 21 21 22 23 23 23 23 22 22 23 23
18 19 19 19 19 19 18 18 18 19 19 19 19 20 20 20 21 21 20 20 20 20 20 20 20 20 20 20 21 21 20 20 20 20 21 22 22 22 22 22 22 21 21
16 16 17 18 18 18 18 19 18 18 18 19 19 19 19 21 21 21 21 20 20 20 20 20 20 21 21 21 21 21 21 21 21 21 20 21 21 22 21 21 20 20 20
15 15 16 16 17 18 17 18 18 18 18 18 19 19 19 19 20 21 21 21 20 21 20 20 20 20 21 21 20 20 20 21 21 21 21 22 21 22 21 20 20 20 20
13 15 15 15 16 16 16 17 17 18 18 18 19 19 19 19 19 20 20 20 20 21 21 21 21 20 20 21 21 20 20 20 21 21 21 21 21 21 21 20 20 20 21
13 12 12 14 15 15 16 17 17 17 18 19 19 19 19 19 19 19 19 19 19 19 20 21 21 21 22 21 20 20 20 21 20 21 21 21 21 21 20 20 21 19 20
11 12 12 12 13 14 15 15 15 16 16 18 19 19 19 19 19 18 18 18 18 19 20 21 21 21 21 21 21 20 21 20 19 19 20 20 20 21 21 21 21 21 21
10 11 11 11 12 12 14 15 15 15 16 17 18 19 18 19 19 18 19 20 20 19 20 21 22 22 22 21 21 21 20 20 19 18 19 20 21 22 22 23 22 22 22
9 10 11 11 11 12 13 13 14 15 15 16 16 17 18 18 18 19 18 19 20 20 20 20 20 21 21 21 21 20 20 19 19 18 18 19 20 21 22 23 23 22 22
9 9 10 11 12 12 13 13 14 15 16 16 15 16 16 16 17 18 18 18 18 18 18 19 20 20 20 20 20 19 20 19 19 18 18 19 20 21 21 22 22 22 22
7 8 10 11 12 13 12 13 13 13 13 13 13 13 14 15 16 16 16 16 17 17 17 18 17 18 20 20 19 19 19 19 19 19 18 19 20 21 21 21 22 22 22
5 7 9 9 11 12 12 12 13 13 13 13 14 15 16 16 17 17 17 17 17 17 17 16 18 19 20 20 20 20 20 20 20 20 19 19 19 20 21 21 22 22 21
4 4 6 7 9 10 11 12 12 13 13 13 13 13 14 16 17 17 17 17 18 18 19 18 18 18 19 19 20 21 21 21 21 21 21 20 21 21 21 21 21 22 21
3 3 4 6 7 8 9 10 11 12 12 13 13 13 12 14 16 17 17 17 18 19 19 19 18 18 19 19 20 21 21 21 21 21 21 20 21 21 21 21 21 21 21
3 3 3 3 4 5 6 8 9 10 10 11 12 12 12 13 13 14 16 16 17 18 18 17 18 17 18 19 19 20 20 19 20 20 20 20 20 19 19 20 21 22 22
3 2 2 2 2 3 4 6 8 9 10 10 11 11 12 12 13 13 14 13 14 15 16 16 18 18 19 20 19 19 19 19 19 20 20 20 20 20 19 19 20 21 21
2 1 1 1 2 2 2 3 4 5 7 9 9 9 10 9 10 11 12 13 13 14 15 15 15 17 19 19 19 19 19 19 19 19 19 19 19 20 20 20 19 19 19
1 1 0 0 1 1 1 1 2 3 4 4 6 7 7 8 9 10 11 12 13 14 14 14 15 16 17 17 17 18 18 18 19 19 19 19 19 19 19 19 19 19 19
0 -1 -1 -1 -1 -1 -1 -0 1 2 2 3 3 4 6 8 9 10 11 11 11 13 15 16 16 15 15 16 17 17 17 18 18 18 18 19 18 19 19 19 18 18 18
1 0 -0 -1 -2 -2 -1 -1 -0 0 1 2 2 3 4 5 6 6 7 9 11 13 14 15 16 16 15 15 16 16 16 17 16 17 17 17 18 18 18 17 18 18 18
0 -1 -1 -2 -2 -2 -3 -2 -1 -1 -1 0 1 2 2 3 3 4 5 6 8 10 13 14 15 15 15 16 15 16 16 16 17 16 17 17 18 17 17 17 17 17 17
-1 -2 -2 -2 -3 -3 -3 -3 -2 -2 -2 -1 -0 0 1 3 4 5 6 7 7 8 9 10 12 12 12 13 13 14 14 15 15 16 16 17 17 16 16 16 16 15 15

GFSGL_850_temp_084.txt.gz
Temp
20 20 20 20 20 20 20 21 21 21 19 19 21 19 19 19 19 19 19 19 19 19 20 19 20 21 21 21 21 22 22 22 22 22 22 22 23 23 22 22 22 23 22
20 20 20 20 20 20 20 20 21 21 21 20 19 19 19 19 19 19 19 19 19 19 20 19 19 19 20 21 21 21 21 22 22 22 22 23 23 22 22 22 22 22 23
21 21 20 20 20 20 20 20 20 21 21 21 21 20 19 20 20 20 19 20 19 19 19 20 20 20 20 20 21 20 21 21 22 21 21 21 21 22 23 23 23 22 23
19 19 21 20 20 20 20 20 20 20 21 21 21 19 19 20 19 20 20 19 20 20 20 19 20 20 20 20 20 20 20 21 21 21 21 21 22 22 23 23 22 22 23
19 20 21 19 20 20 19 20 19 19 20 20 20 20 19 19 19 19 20 20 20 20 20 20 20 20 20 20 20 20 19 20 20 20 21 21 22 22 22 22 22 22 22
17 18 19 19 19 18 19 18 19 19 19 19 19 20 20 20 20 20 20 20 20 20 20 20 20 20 20 20 20 20 21 20 20 20 21 21 22 22 22 22 22 22 22
18 17 18 18 18 18 18 18 18 18 19 19 19 19 19 20 20 20 20 20 20 20 20 20 20 20 20 21 21 21 21 21 21 21 21 21 22 22 22 22 21 21 21
16 16 16 16 17 18 18 18 18 18 18 18 19 19 19 19 19 20 20 20 20 20 21 20 20 20 21 21 20 20 20 21 21 21 21 21 21 22 21 21 21 20 20
13 13 15 16 16 17 17 17 18 18 18 18 18 18 19 19 19 19 19 20 19 20 20 20 20 20 20 20 21 21 20 20 20 20 21 21 21 21 21 20 20 20 21
12 12 13 14 15 16 16 16 17 17 17 18 18 19 18 19 19 19 19 19 19 19 19 20 20 20 21 21 20 20 20 22 21 21 20 20 21 21 21 20 21 21 21
12 12 12 12 14 13 14 16 16 17 17 17 18 18 18 18 19 19 19 18 19 19 19 19 19 20 21 21 21 21 21 21 21 20 20 20 20 20 20 20 21 21 21
10 10 12 12 12 13 14 16 16 16 16 16 17 18 18 18 18 18 18 18 18 18 18 19 19 19 20 20 21 21 21 21 21 20 19 19 19 19 20 21 21 22 22
9 10 10 11 12 12 12 15 14 15 15 16 16 15 16 16 16 17 18 18 17 18 19 18 18 18 19 20 20 20 20 21 21 20 20 20 20 20 20 20 21 22 22
7 8 9 10 11 12 13 13 14 14 15 15 15 15 15 15 16 16 16 17 17 17 17 17 18 19 19 20 20 20 20 20 20 20 20 20 20 19 20 20 20 21 21
7 7 8 9 10 11 12 13 13 13 13 13 13 13 14 15 16 16 17 17 17 17 17 17 17 17 19 20 20 20 20 20 20 20 20 20 20 19 19 19 20 20 21
4 5 6 6 7 8 9 11 12 12 13 13 13 13 13 13 14 16 16 16 17 17 17 18 18 18 18 19 20 20 18 18 19 19 19 20 20 20 20 20 20 21 21
3 4 4 5 5 7 8 8 9 10 11 12 13 13 13 13 13 14 15 15 16 16 18 18 18 18 18 19 20 21 20 18 19 19 20 19 19 20 21 21 21 21 21
3 4 5 5 5 5 5 6 7 8 9 10 11 12 12 12 12 13 13 14 16 16 17 18 18 18 18 18 18 19 18 19 19 19 20 20 20 20 19 20 20 20 20
4 4 3 3 4 4 4 4 5 5 6 8 9 10 10 11 12 12 12 13 14 14 15 15 17 16 18 17 17 17 18 18 19 19 18 19 19 19 20 20 20 20 20
4 3 3 3 3 2 3 3 3 3 4 5 6 7 9 10 10 10 11 12 13 13 13 14 15 15 15 16 17 17 17 18 19 19 19 20 20 19 19 20 20 20 20
3 3 3 3 2 1 1 1 1 2 2 3 3 5 7 7 7 8 9 9 11 12 12 13 13 14 15 16 16 16 17 16 19 19 19 19 20 20 20 19 19 20 19
2 2 3 3 3 2 1 -0 -1 -0 0 1 1 2 3 6 6 6 7 8 10 10 11 12 13 13 14 15 15 15 16 16 17 17 18 18 18 19 19 19 19 19 19
1 0 1 2 2 2 1 -0 -1 -1 -1 -1 -0 1 2 2 3 4 5 7 6 8 10 10 11 12 13 14 15 15 15 16 15 16 17 17 17 18 18 18 18 18 18
1 -0 -0 -0 1 1 1 0 -0 -1 -2 -2 -1 -1 -0 1 2 2 3 4 6 7 8 9 10 11 12 13 14 15 15 16 16 15 15 16 16 17 17 17 18 18 18
2 0 -1 -1 0 0 0 -1 -1 -1 -2 -3 -2 -2 -1 -1 -0 1 1 2 2 3 4 6 8 9 11 12 13 14 15 16 16 17 16 15 15 16 16 16 16 17 16
1 0 -0 -1 -0 -1 -1 -1 -2 -2 -3 -3 -3 -3 -2 -2 -1 -1 -0 1 2 3 4 4 5 6 7 9 10 11 13 14 16 15 13 14 14 14 14 15 15 15 16

GFSGL_850_temp_087.txt.gz
Temp
21 21 21 21 21 20 20 20 20 20 20 20 20 20 20 19 19 20 19 19 19 19 19 20 21 21 21 21 21 22 22 22 21 22 22 22 22 22 23 23 23 22 22
22 22 22 21 21 21 21 21 20 20 20 21 21 20 19 20 19 19 19 19 19 19 20 20 20 20 21 21 21 21 21 21 21 21 21 22 22 23 23 22 22 22 22
19 20 21 20 20 21 21 21 21 20 20 20 20 20 21 21 19 19 20 20 19 20 20 19 19 20 20 20 21 21 21 21 21 21 21 21 21 22 22 22 22 22 22
20 20 20 19 19 20 20 20 20 21 21 20 20 20 20 20 20 20 19 20 20 19 19 19 19 19 20 20 20 20 21 21 21 21 21 21 20 21 21 21 22 22 22
16 18 20 20 20 19 18 19 19 19 19 20 20 20 20 19 20 20 20 19 19 20 20 20 20 20 20 20 20 20 20 20 21 21 20 20 20 20 21 21 21 22 22
16 17 20 21 20 18 18 18 18 18 18 18 19 19 19 19 20 20 20 20 20 20 20 20 20 20 20 20 20 20 20 20 21 21 20 20 21 21 21 22 22 22 22
16 16 16 17 17 18 20 20 19 20 18 18 18 18 19 19 19 19 19 19 19 20 20 20 20 20 20 20 20 20 20 20 20 20 20 20 21 21 21 21 21 21 21
14 15 16 16 17 18 19 20 19 19 19 19 18 19 18 18 19 19 19 19 19 19 19 19 19 19 20 20 20 20 20 20 21 21 20 20 21 21 21 21 20 20 21
13 13 14 16 16 16 16 16 17 17 18 18 19 19 18 19 19 19 19 19 19 20 20 20 20 20 20 20 19 20 20 20 21 21 21 21 21 20 20 20 20 20 20
14 14 14 15 15 15 15 16 16 16 17 17 18 19 18 18 18 18 18 18 18 19 19 19 19 20 20 20 20 20 20 21 21 21 20 20 20 20 20 20 20 20 20
14 14 14 14 15 15 15 16 16 16 16 17 17 17 17 17 17 17 18 18 18 18 18 18 18 18 18 19 20 19 19 20 20 20 20 20 20 20 20 20 19 19 19
12 12 13 14 15 14 14 15 15 15 15 16 15 15 15 16 16 16 17 18 17 18 18 18 19 18 19 19 19 19 19 19 20 20 20 20 20 20 20 20 20 20 19
10 11 12 12 12 12 12 13 14 14 14 14 14 15 15 15 15 16 16 15 16 16 16 17 18 19 19 19 19 19 19 19 20 20 20 21 21 21 20 20 20 20 19
9 9 9 10 10 11 11 12 12 13 13 13 13 14 14 15 15 16 16 16 16 16 17 17 17 16 17 19 19 20 20 20 20 20 20 20 20 20 20 20 20 20 19
9 9 9 9 9 10 10 11 11 11 11 12 12 12 12 13 14 14 14 15 16 16 17 18 18 18 18 18 18 18 19 19 19 20 20 20 20 20 20 20 20 20 19
8 8 7 8 8 8 9 12 12 11 11 12 12 11 12 12 13 13 13 13 13 14 16 16 17 18 18 19 19 19 18 18 18 18 18 19 19 18 19 20 20 20 20
6 6 5 6 6 7 8 8 10 12 11 11 10 11 11 11 12 12 12 12 12 13 14 16 16 17 18 18 18 18 19 18 18 18 18 18 18 18 18 18 20 20 20
4 4 6 6 7 7 7 7 8 8 9 11 11 10 10 10 10 11 11 12 12 12 13 14 15 16 16 16 16 17 17 17 17 17 17 18 18 17 17 17 16 18 20
4 4 5 5 5 5 5 5 5 6 6 7 9 9 9 9 9 9 10 10 11 11 12 12 13 13 13 14 14 14 15 16 16 16 17 17 17 18 18 18 18 17 19
3 3 4 4 4 4 4 4 4 4 4 5 5 6 6 7 8 9 9 9 9 10 10 10 11 12 12 13 13 14 14 15 15 16 16 16 17 17 17 18 17 17 18
4 4 4 4 4 4 3 3 4 3 3 3 3 3 3 2 3 4 6 7 7 7 8 9 9 10 11 12 12 12 13 14 15 15 15 15 15 16 16 16 17 18 18
3 3 3 3 3 3 3 3 3 3 2 2 2 2 2 2 2 1 2 2 3 4 6 7 7 9 8 9 10 11 12 13 14 14 15 15 15 14 16 17 18 18 17
4 3 3 3 3 3 3 2 2 2 2 1 1 0 -0 -1 -1 -1 -1 0 1 2 3 4 5 7 8 8 9 9 10 11 11 13 14 15 16 16 15 15 16 16 17
3 2 2 2 3 2 1 1 1 2 1 0 -0 -1 -2 -2 -2 -2 -2 -1 -0 1 1 2 3 4 7 8 8 9 9 10 10 12 13 14 15 16 16 15 15 15 16
3 3 3 2 2 1 1 1 0 1 -0 -1 -1 -1 -1 -2 -3 -3 -3 -2 -2 -0 0 1 1 2 4 6 7 7 8 9 10 11 12 13 15 15 14 14 15 16 16
4 3 3 2 2 2 1 -0 -0 -0 -1 -1 -2 -2 -2 -2 -2 -3 -4 -3 -3 -2 -1 -0 0 1 1 2 4 7 8 9 10 11 10 10 12 14 12 12 13 14 14

GFSGL_850_temp_090.txt.gz
Temp
20 21 21 20 20 20 20 19 20 20 20 20 20 19 20 21 20 19 19 19 20 20 20 20 20 20 21 21 21 21 21 21 21 22 21 21 22 22 22 22 22 22 22
20 20 21 21 20 20 20 20 19 20 20 20 19 20 20 20 19 19 19 19 20 19 19 20 20 20 21 21 21 21 21 21 20 21 21 21 21 22 22 21 22 22 22
19 19 19 19 20 20 20 20 20 20 20 20 20 20 20 20 19 19 19 19 19 20 19 19 20 20 20 20 21 21 21 21 20 21 21 21 21 21 21 21 21 21 21
19 19 19 19 19 19 20 20 19 20 20 20 20 20 19 19 19 19 19 19 19 19 19 19 19 19 20 19 19 19 20 21 21 21 21 21 21 21 21 20 21 21 21
17 18 19 20 20 20 20 20 19 18 19 19 19 19 20 19 19 19 19 19 19 19 19 19 19 19 19 19 19 19 19 20 20 20 20 21 21 21 21 21 21 21 22
16 17 17 17 18 19 19 20 19 19 19 19 19 19 19 19 19 19 19 19 19 19 19 19 20 19 19 19 20 19 19 19 20 19 20 20 20 20 21 20 21 21 21
16 16 16 16 17 17 19 18 19 19 19 19 20 20 19 19 19 19 19 19 19 19 19 19 19 19 19 20 20 20 20 20 20 20 20 20 20 21 20 21 21 20 20
13 14 15 15 16 17 17 17 18 18 19 19 19 19 20 20 19 19 19 19 19 19 19 19 19 19 20 20 19 20 20 20 20 20 20 20 20 20 20 20 20 20 21
12 12 13 13 16 15 17 16 16 17 18 19 18 19 19 19 19 18 18 18 19 19 19 19 19 19 19 19 19 19 19 20 20 20 20 20 20 20 19 19 19 19 19
13 13 13 13 13 13 14 14 14 15 15 16 16 16 17 18 19 19 18 18 18 18 18 19 19 19 19 19 19 19 19 20 20 20 20 21 20 20 20 20 19 19 19
13 13 14 13 13 13 14 15 15 15 15 15 15 15 15 16 16 17 17 17 17 17 18 18 18 18 18 18 19 19 19 18 19 19 19 20 20 21 21 21 20 20 20
13 13 13 13 14 14 15 15 15 15 14 14 14 14 14 14 15 14 15 16 16 16 16 17 17 17 17 17 18 19 20 19 18 18 18 20 20 20 21 21 21 21 20
12 12 13 13 13 13 14 14 14 13 14 14 14 14 14 14 14 14 15 15 15 16 15 15 16 16 17 17 17 18 18 18 18 18 19 19 19 20 20 20 20 20 20
9 10 11 11 11 11 11 11 12 12 12 13 13 13 13 13 13 13 13 14 14 15 15 16 17 17 18 18 18 18 18 18 18 18 18 19 19 19 20 20 19 19 19
9 8 8 9 10 10 10 10 10 10 10 11 11 11 11 12 12 12 12 13 13 13 15 15 16 17 18 18 18 18 18 18 18 18 17 17 18 18 19 19 19 19 18
9 8 8 8 8 9 10 10 9 10 10 10 10 10 11 10 11 11 12 12 12 12 13 14 15 15 16 16 17 18 18 18 18 18 18 17 18 18 18 18 18 18 17
7 7 7 8 8 8 9 9 11 11 11 11 11 11 10 10 10 11 11 11 11 11 11 12 12 14 14 15 15 15 16 16 15 15 16 16 16 17 17 17 18 18 18
6 6 7 7 7 7 8 8 8 9 10 10 10 11 11 11 11 11 11 11 10 10 10 11 11 11 12 13 13 12 13 14 14 15 15 15 16 16 16 16 16 17 17
6 6 6 6 6 6 6 7 7 7 7 8 9 10 10 11 11 10 10 9 9 9 9 9 10 10 10 10 11 11 12 12 13 12 14 14 15 15 15 16 16 16 16
5 5 5 5 5 5 5 6 6 6 6 7 7 7 8 9 10 10 10 9 9 8 8 8 7 7 8 9 9 10 10 11 12 11 13 14 15 14 15 15 15 15 16
4 4 4 4 4 4 4 4 4 5 5 5 6 6 5 5 5 6 6 6 6 6 6 5 6 5 6 7 7 8 8 9 9 10 11 12 13 14 15 15 15 15 15
4 4 4 4 4 4 4 3 3 3 3 4 4 4 4 4 4 3 3 3 3 3 4 3 3 3 2 3 4 5 6 7 7 7 8 9 10 12 13 14 16 16 16
4 4 4 4 3 3 3 3 3 3 2 2 2 2 2 1 1 1 1 1 1 1 -1 -2 -1 1 1 2 2 3 3 4 6 7 7 8 9 9 11 12 14 15 15
4 4 4 3 3 3 2 2 2 2 1 1 1 0 -1 -1 -0 -0 -0 -0 -1 -1 -3 -3 -3 -2 -1 -0 0 1 1 1 2 5 7 7 8 9 9 11 12 14 14
4 4 4 3 3 3 2 2 2 2 1 1 1 0 -0 -1 -1 -1 -1 -2 -2 -2 -2 -3 -3 -2 -2 -1 -0 -0 -0 0 1 1 3 6 7 8 9 10 12 13 14
4 4 4 3 3 3 2 2 2 1 1 0 0 -0 -1 -1 -2 -2 -2 -2 -3 -3 -3 -3 -3 -3 -3 -2 -1 -1 -0 -0 0 1 2 4 6 7 8 10 11 12 13

GFSGL_850_temp_096.txt.gz
Temp
19 19 19 18 18 18 19 19 19 19 19 19 19 19 19 19 18 19 19 18 19 18 19 19 19 19 19 19 19 20 20 20 20 21 21 20 21 21 21 21 21 21 21
19 19 18 18 18 18 18 19 19 19 19 19 19 19 19 19 19 19 19 19 19 19 18 18 18 18 19 19 19 19 19 19 19 20 20 20 21 21 21 21 20 20 20
18 19 19 18 18 18 19 19 19 19 19 19 19 19 19 19 19 19 19 19 18 19 19 19 19 19 18 18 18 18 18 18 18 18 19 19 20 20 20 20 20 20 20
16 18 18 18 18 18 19 19 19 19 19 18 18 19 19 19 19 19 19 19 18 18 19 19 18 19 19 18 19 18 18 18 18 18 18 18 19 19 19 19 20 20 21
16 16 17 17 18 18 19 19 19 19 19 19 19 19 18 18 18 18 18 18 18 19 18 18 19 18 18 18 18 19 19 19 19 18 19 19 19 19 19 19 19 20 21
16 15 16 16 17 17 18 18 18 19 19 18 18 18 18 18 19 18 18 18 18 18 19 19 19 19 19 18 18 18 18 18 18 18 19 19 19 19 19 19 19 19 20
15 15 16 17 16 15 17 17 17 17 18 18 18 18 18 18 19 19 18 18 19 19 19 19 19 18 18 18 18 19 19 19 18 18 18 19 19 19 19 19 19 19 19
14 14 15 15 15 16 16 16 17 17 17 18 17 17 17 19 18 19 19 18 18 18 18 18 18 19 19 19 19 19 19 19 19 19 19 19 19 19 19 19 19 19 19
14 14 14 14 15 15 15 15 15 16 16 17 17 16 17 17 18 19 19 18 18 18 18 18 18 18 19 19 19 19 19 18 18 19 19 19 19 19 19 19 19 19 19
13 13 13 13 14 14 14 14 14 15 15 15 15 16 16 16 15 17 18 18 19 16 17 17 17 17 16 17 17 17 18 19 18 19 19 19 19 19 19 19 19 18 18
13 13 13 13 13 14 14 14 14 13 14 14 14 14 15 15 15 16 15 16 16 16 16 17 16 16 15 15 15 16 16 16 17 18 18 19 19 19 19 19 19 18 18
13 13 13 14 14 14 14 13 13 13 13 13 12 13 13 13 13 15 15 16 15 15 15 15 15 15 15 15 15 16 16 16 17 17 18 18 18 19 19 19 19 19 19
13 13 13 13 13 13 13 13 13 13 13 13 12 12 13 13 14 14 14 14 14 14 14 14 15 14 14 15 15 15 16 16 16 17 17 18 19 19 19 19 19 18 19
11 12 12 12 12 12 12 12 12 12 12 12 12 12 12 12 13 13 13 14 13 14 14 14 14 14 14 14 15 15 15 16 16 16 15 16 16 17 18 18 18 17 18
10 10 10 10 10 10 10 10 10 11 11 11 11 11 12 12 12 13 13 13 13 13 13 13 13 13 14 15 15 15 15 15 15 15 15 15 15 15 16 15 16 16 16
10 10 9 9 9 9 9 9 9 9 10 10 10 10 10 10 11 11 11 11 12 12 12 12 12 12 12 12 13 13 13 14 13 13 13 12 12 12 13 14 14 15 15
8 8 8 9 8 8 8 8 8 7 8 8 8 9 9 9 9 10 10 10 11 11 11 11 11 11 11 11 11 11 11 11 11 11 11 11 10 11 11 12 12 13 14
7 7 7 7 7 7 7 7 7 7 7 7 7 8 8 9 9 9 10 10 10 11 11 10 10 10 10 10 9 9 10 10 10 10 10 10 10 10 11 11 12 13 13
6 6 6 6 6 6 6 6 7 7 7 7 7 7 7 8 8 9 9 9 9 9 9 9 8 8 8 8 8 8 8 8 8 7 6 6 6 7 9 10 10 11 11
5 5 5 5 5 5 5 6 6 6 6 6 7 7 7 7 7 7 7 7 7 7 7 6 6 6 6 6 6 6 6 6 6 6 5 4 3 3 4 4 5 7 9
5 5 4 4 4 5 5 5 5 5 5 5 5 5 5 5 5 5 5 5 5 4 4 3 3 3 3 2 2 2 2 2 3 3 3 3 2 2 2 3 3 3 4
4 4 4 4 4 4 4 4 4 4 4 3 3 3 3 3 4 4 4 4 3 3 2 2 2 1 1 1 0 -0 -0 -1 -3 -3 -2 -1 -0 0 1 1 0 1 2
4 4 4 4 4 4 4 3 3 3 3 3 3 2 2 2 3 3 3 3 3 2 1 1 1 1 0 0 -0 -0 -1 -2 -3 -4 -4 -3 -3 -2 -1 -0 -0 -0 -0
4 4 4 4 4 4 4 3 3 3 3 3 2 2 2 2 2 2 2 2 2 2 1 1 1 0 0 0 -0 -0 -1 -2 -2 -3 -3 -4 -3 -3 -2 -2 -1 -1 -1
5 5 4 4 4 4 4 3 3 3 2 2 2 2 2 2 2 2 2 1 1 1 1 0 0 -0 -0 -1 -1 -1 -1 -1 -2 -2 -2 -2 -3 -3 -3 -3 -2 -2 -1
5 5 5 5 4 4 4 4 3 3 3 2 2 2 2 1 1 1 1 1 1 0 -0 -1 -1 -1 -1 -1 -1 -2 -2 -2 -2 -2 -2 -1 -2 -2 -2 -2 -2 -2 -2

GFSGL_850_temp_099.txt.gz
Temp
19 19 18 18 19 19 18 19 19 19 19 19 19 19 19 19 18 18 18 19 18 18 19 19 19 19 19 19 19 19 20 20 19 20 20 20 20 20 21 21 21 20 19
19 19 19 18 18 18 18 18 19 18 19 19 19 19 19 19 19 19 19 18 18 18 18 18 18 19 19 19 19 19 19 19 19 18 18 19 20 20 20 20 20 19 20
18 19 18 17 17 18 18 18 19 18 18 19 19 19 19 19 19 19 18 18 18 18 18 19 18 18 18 18 18 18 18 18 18 18 18 18 19 19 20 20 20 20 20
18 18 17 17 17 18 18 19 19 19 19 19 19 18 19 19 19 19 18 18 18 18 18 18 18 18 18 18 18 18 18 18 18 18 18 18 18 18 19 19 19 19 19
16 16 16 17 18 18 18 18 19 19 19 19 19 19 19 19 19 18 18 18 18 18 18 18 18 18 18 18 18 18 18 18 18 18 18 19 19 19 19 18 18 19 19
16 16 15 16 16 17 18 18 19 19 19 19 19 19 19 19 19 19 19 19 18 18 19 18 18 18 18 18 18 18 18 18 18 18 18 19 18 18 18 18 18 18 19
15 15 15 15 15 16 16 17 17 17 18 18 18 18 19 19 19 19 19 19 18 18 18 18 18 18 19 19 19 19 19 18 18 18 18 18 18 18 19 19 18 19 18
15 15 14 14 14 15 15 16 16 17 17 17 17 18 18 19 19 19 19 19 18 18 18 18 18 18 19 19 19 19 19 19 19 18 18 19 19 19 18 18 18 19 19
14 14 14 14 15 15 15 16 16 16 15 16 17 17 17 18 18 18 18 18 18 19 18 19 18 18 18 18 18 19 18 18 18 18 18 18 19 19 18 18 17 17 18
13 14 14 14 14 14 15 15 15 14 13 14 16 16 16 16 16 17 16 17 16 17 18 18 17 17 17 16 16 16 17 17 18 18 19 18 18 19 19 18 18 17 17
13 13 13 13 14 14 14 15 14 15 14 13 14 14 14 14 15 16 14 15 15 15 16 16 16 15 16 16 16 16 16 17 17 18 18 18 18 18 17 16 17 17 16
13 13 13 13 13 14 13 13 13 13 13 13 13 14 14 14 14 15 16 16 14 14 14 14 15 15 16 15 15 15 15 16 16 17 15 15 16 15 15 15 18 18 17
13 13 13 13 14 13 13 13 12 12 12 13 13 13 13 13 13 13 13 13 13 13 13 14 15 16 16 15 15 15 15 15 15 14 13 14 15 16 17 17 17 17 16
13 13 13 13 12 12 12 12 12 12 12 12 12 12 12 13 13 13 13 13 13 13 13 14 15 15 15 14 14 15 15 14 14 12 12 14 15 15 14 14 15 15 15
11 11 11 11 11 11 11 10 10 11 11 11 11 11 12 12 12 12 13 13 13 13 13 13 13 14 13 14 14 14 14 14 13 14 14 14 11 11 12 14 13 13 13
10 10 9 9 9 9 9 10 9 10 10 10 10 10 11 11 11 11 11 11 12 12 12 13 13 13 13 13 13 13 13 13 13 13 13 11 10 9 10 11 10 12 13
9 9 9 9 9 9 8 8 8 8 8 8 9 9 9 9 9 10 10 11 11 11 11 12 11 11 11 11 12 12 11 11 11 11 11 11 8 8 8 8 9 8 10
8 8 8 8 8 8 8 8 7 7 7 7 8 8 8 9 9 9 9 9 10 10 10 10 10 10 9 9 9 9 9 9 9 9 9 9 8 6 7 7 8 6 6
7 7 7 7 7 7 7 6 6 6 6 7 7 7 7 8 8 8 9 9 9 9 9 8 8 7 7 7 6 6 5 5 6 5 4 3 4 3 4 4 4 4 4
6 6 6 6 6 6 6 6 6 6 6 6 6 6 7 7 7 8 8 8 8 7 7 7 6 6 6 5 5 5 4 4 3 3 3 2 1 1 1 1 2 2 3
5 5 5 5 5 5 5 5 5 5 5 5 5 5 5 6 5 5 6 6 5 5 5 5 4 4 4 3 3 2 1 1 1 1 0 0 -1 -1 -1 1 1 1 1
5 5 5 5 5 5 5 5 4 4 4 4 4 4 4 4 4 4 4 4 4 4 4 3 3 2 1 1 1 1 0 0 -0 -1 -1 -2 -3 -3 -2 -2 -2 -2 -1
4 4 4 4 4 4 4 4 4 4 3 3 3 3 3 3 3 3 3 3 3 3 2 2 2 1 0 0 -0 -1 -1 -2 -2 -2 -2 -2 -2 -3 -3 -3 -3 -3 -2
4 4 4 4 4 4 3 3 3 3 3 3 2 2 2 2 2 2 2 2 2 2 2 1 1 1 -0 -0 -0 -1 -1 -2 -2 -2 -2 -3 -3 -3 -3 -2 -2 -2 -2
4 4 4 4 4 4 3 3 3 3 3 3 2 2 2 2 2 2 2 2 2 1 1 1 1 0 0 -0 -1 -1 -1 -1 -1 -1 -1 -1 -2 -2 -2 -1 -2 -2 -2
3 3 3 3 4 4 4 4 3 3 3 3 3 3 2 2 2 2 2 1 1 1 1 1 1 1 0 -0 -0 -1 -1 -1 -1 -1 -2 -2 -2 -2 -2 -2 -2 -2 -1

GFSGL_850_temp_102.txt.gz
Temp
18 18 18 18 18 17 18 18 18 19 18 19 19 19 19 18 18 18 18 18 17 18 18 18 18 18 19 20 20 20 20 21 21 22 22 21 19 19 19 19 20 20 22
18 18 18 18 18 18 18 17 17 19 18 19 19 19 19 19 18 18 18 19 17 17 18 18 18 19 18 18 19 19 20 19 19 20 20 20 20 19 19 18 20 21 20
18 18 18 18 17 18 18 18 18 18 18 18 18 19 19 18 18 18 18 18 18 18 18 18 17 18 17 18 18 19 20 20 20 20 20 21 21 20 20 20 20 20 21
18 17 17 17 18 18 17 17 17 18 18 18 18 18 18 19 19 18 18 18 18 18 18 18 18 18 18 17 18 18 18 19 19 19 20 21 21 21 21 21 22 21 21
17 18 18 18 17 18 17 17 17 17 18 19 17 18 18 18 18 19 19 19 18 18 18 18 18 18 18 18 18 18 18 18 19 20 21 21 22 20 20 21 21 21 21
16 16 17 17 18 17 17 17 18 18 17 19 19 18 18 18 19 20 19 18 18 18 18 18 18 18 18 18 18 18 18 18 18 18 19 20 19 19 20 20 20 20 20
16 16 16 16 16 16 17 17 16 17 17 18 17 17 19 19 19 19 19 19 18 17 17 17 17 18 19 19 19 19 19 18 18 18 18 18 18 18 18 18 18 18 19
16 16 15 15 15 15 15 16 16 17 17 16 18 18 18 18 19 19 19 18 19 19 19 19 19 19 19 19 19 19 19 17 17 17 17 18 19 18 18 18 18 18 18
16 15 15 15 15 14 14 15 15 16 16 15 16 17 17 18 18 18 18 18 18 18 18 18 18 18 18 18 18 19 18 17 16 17 19 18 19 18 18 19 17 18 18
15 15 14 14 14 14 14 14 15 14 15 15 15 15 16 16 17 17 17 17 17 17 17 17 17 17 17 17 17 17 18 17 17 17 18 17 17 17 17 17 16 17 17
14 14 14 13 13 14 14 14 14 14 14 13 13 14 14 15 15 15 16 16 16 15 16 16 16 16 16 16 16 16 17 17 17 16 16 17 17 17 18 16 16 16 17
12 12 13 13 13 13 14 13 13 13 14 13 13 13 13 13 14 15 15 15 15 15 15 15 15 15 15 15 16 16 16 17 15 16 16 16 16 15 15 14 14 15 15
12 13 13 13 13 12 12 12 12 12 12 12 11 11 13 13 13 14 14 14 14 14 14 14 15 15 15 13 14 15 15 13 13 15 15 14 12 13 14 14 15 16 15
12 12 12 12 12 12 10 10 10 11 11 10 10 10 12 13 13 13 13 13 13 14 14 14 14 14 13 12 11 11 11 11 11 11 11 11 12 13 13 13 13 14 14
9 9 9 9 9 11 11 10 11 12 12 9 10 10 10 10 12 13 13 13 13 13 13 13 13 13 12 11 10 10 10 11 10 10 10 11 11 12 12 12 12 13 13
8 8 9 9 8 8 10 11 11 11 11 10 11 11 11 11 11 12 12 12 12 12 12 11 12 12 12 12 13 13 12 12 11 11 10 9 9 10 10 10 11 11 11
7 8 8 8 8 8 7 8 10 10 10 10 10 10 10 10 11 11 10 10 11 10 8 7 7 7 7 8 8 8 9 10 11 11 11 8 7 7 8 8 9 9 9
7 8 7 7 7 7 7 7 7 6 6 9 9 9 9 9 9 9 9 9 7 7 7 6 6 6 6 5 5 5 5 5 5 5 5 5 5 5 6 6 6 7 7
8 6 6 6 6 7 6 7 7 7 7 6 7 8 8 8 8 8 8 6 6 6 5 5 5 5 5 5 4 3 4 3 3 3 4 4 4 4 4 4 4 4 4
7 6 6 6 5 6 6 6 6 6 6 6 6 5 5 6 5 4 6 6 5 5 5 4 4 4 5 6 5 4 2 2 2 2 2 2 2 2 2 3 3 3 3
4 5 5 5 6 6 6 6 6 6 6 6 5 6 6 4 4 4 4 3 3 3 3 4 4 4 2 2 2 2 1 0 0 -0 -0 -1 -1 -1 -0 -0 0 1 1
5 5 4 5 6 5 6 6 6 6 5 5 4 5 5 4 4 3 3 3 4 5 4 4 2 2 1 3 3 2 2 -1 -1 -0 -0 -0 -2 -2 -2 -2 -2 -1 -1
6 6 5 5 5 5 4 5 5 5 5 5 5 4 4 4 3 3 2 2 3 3 4 4 3 2 2 2 3 2 2 1 1 0 -1 -1 -1 -1 -2 -2 -2 -2 -3
6 6 6 5 5 5 5 5 5 5 5 4 4 4 4 3 3 2 2 2 1 1 2 2 3 3 2 2 1 1 0 -0 -1 -1 -2 -2 -2 -2 -3 -3 -4 -4 -3
5 6 6 5 5 4 5 5 5 5 4 4 4 4 3 3 3 2 2 1 1 1 0 -0 0 1 1 1 1 1 0 -0 -1 -1 -1 -2 -2 -2 -2 -4 -3 -2 -2
6 5 6 5 5 5 5 5 5 5 5 5 4 4 4 3 3 3 2 2 1 1 0 -0 -0 1 1 1 1 -0 -1 -1 -1 -1 -1 -1 -1 -2 -3 -3 -2 -2 -2

GFSGL_850_temp_105.txt.gz
Temp
20 20 20 20 19 19 19 18 19 19 20 19 19 18 18 18 18 19 19 18 18 18 19 19 19 19 19 21 21 22 22 22 22 23 22 22 22 21 21 20 20 21 22
20 20 19 20 20 20 19 19 19 18 18 19 18 18 18 18 18 18 18 20 19 19 19 18 19 20 19 19 20 21 21 21 20 20 21 21 22 22 21 21 21 22 22
20 20 19 19 19 20 20 19 19 18 18 18 18 18 18 19 18 18 18 19 19 19 19 19 19 19 19 19 19 19 20 20 20 21 21 21 22 22 22 22 22 22 23
18 18 18 18 19 19 19 19 19 18 18 18 18 19 19 19 19 18 18 18 19 19 19 19 19 19 19 18 19 19 19 19 20 20 21 22 22 22 22 22 22 23 22
17 17 18 19 18 18 18 18 19 19 18 18 18 18 19 19 19 19 18 18 18 19 19 19 19 19 19 19 19 18 18 18 20 20 20 22 22 20 21 21 22 22 21
18 17 17 17 18 18 17 17 18 18 18 18 18 18 18 18 19 19 19 18 18 18 19 19 19 19 18 19 19 19 19 19 19 18 18 20 20 19 19 19 19 19 19
18 16 16 16 17 18 17 17 17 17 17 18 18 18 18 19 20 19 19 19 18 18 18 18 19 18 19 18 18 19 19 18 18 18 18 18 18 18 19 19 18 18 18
16 16 16 16 16 17 16 16 16 17 17 17 17 18 18 19 19 19 19 19 18 18 19 19 19 19 19 19 19 17 17 17 17 17 17 18 18 18 18 18 18 18 18
16 16 16 16 16 16 15 16 16 16 16 15 16 18 18 18 18 18 18 18 18 18 18 18 18 18 18 18 18 19 17 16 17 17 18 18 18 18 18 18 17 17 18
15 16 15 15 15 14 14 14 15 15 15 15 16 16 16 17 17 17 17 16 16 15 16 17 17 17 17 18 18 18 18 18 18 18 17 17 17 18 18 17 16 17 17
15 15 15 15 14 14 14 14 14 14 14 15 14 14 14 15 15 16 16 16 15 15 15 14 16 17 16 16 17 17 17 17 17 16 17 18 18 17 17 16 16 16 16
13 13 14 13 13 13 13 13 13 13 14 14 14 14 14 14 14 14 14 15 15 15 15 15 15 15 15 15 15 16 15 16 15 16 17 17 16 15 15 15 15 15 15
11 10 11 11 12 12 13 14 13 13 13 13 12 11 12 13 14 14 15 14 15 15 15 14 15 14 15 13 13 13 13 13 13 14 14 14 13 14 14 15 14 14 15
11 11 11 11 10 11 12 12 12 12 13 13 12 12 11 13 13 14 13 13 14 14 14 14 14 14 13 12 12 11 11 11 11 11 11 12 12 13 13 13 13 13 14
10 10 10 10 11 10 11 11 11 12 12 13 12 12 12 11 13 13 13 13 13 13 13 12 13 13 12 12 11 11 11 11 12 11 11 10 10 11 11 11 11 12 12
9 10 11 11 10 10 9 11 11 11 11 11 11 11 12 11 12 12 12 12 12 12 11 10 9 10 9 9 10 11 9 11 12 12 12 11 9 8 9 9 10 10 10
10 10 10 10 11 10 9 8 8 10 10 10 10 10 10 11 11 11 11 11 11 11 10 10 9 9 8 8 8 8 7 7 8 7 7 7 7 7 7 7 7 7 8
8 10 9 10 10 10 10 10 10 8 8 9 10 10 10 10 10 10 10 10 9 9 9 9 8 8 7 7 7 6 6 6 6 6 6 6 5 5 6 6 6 6 6
9 9 9 9 9 9 9 10 10 10 10 8 8 9 9 9 9 9 8 9 9 9 8 7 7 7 6 5 5 5 5 5 4 4 4 4 4 4 4 4 4 4 4
8 9 8 8 7 8 8 8 9 9 9 9 9 9 7 8 7 7 6 7 7 7 6 6 5 5 4 4 4 4 4 4 4 3 3 2 2 2 2 2 2 2 3
7 7 8 6 7 7 8 8 8 8 8 8 8 7 7 7 8 7 7 6 6 6 5 4 4 4 4 3 4 3 3 3 2 2 2 3 4 3 1 1 1 1 1
6 6 7 6 6 6 7 7 7 7 8 7 7 6 7 7 7 6 6 5 5 4 4 4 3 3 3 3 4 3 2 1 1 2 3 3 2 2 0 -1 -1 -1 -1
8 7 6 6 6 7 6 6 7 7 8 7 7 6 5 6 7 6 5 5 4 4 3 3 3 3 2 2 2 2 1 1 2 2 2 2 1 1 1 0 -0 -1 -2
8 8 8 8 7 7 7 6 7 7 7 7 7 6 6 6 6 5 5 4 4 3 3 2 2 3 2 2 1 0 -0 1 1 1 1 1 1 0 -2 -3 -3 -3 -3
7 8 8 7 7 7 7 7 7 7 7 6 7 6 6 6 5 5 4 4 4 3 3 2 2 1 1 1 2 2 2 2 1 1 1 1 -0 -2 -3 -2 -2 -2 -1
7 7 7 7 7 7 7 7 7 7 7 7 7 6 6 6 5 5 5 4 4 3 3 2 2 1 1 1 0 1 1 1 0 0 -0 -1 -2 -2 -2 -1 -1 -1 -1

GFSGL_850_temp_108.txt.gz
Temp
20 19 19 20 19 20 19 19 19 19 19 20 20 19 20 19 18 19 19 19 19 19 20 19 19 20 21 21 21 21 21 21 21 22 22 22 22 22 22 22 22 22 22
20 20 20 20 20 20 20 19 20 19 19 19 19 19 19 19 19 19 19 19 19 19 19 19 19 19 19 19 20 20 21 21 20 21 20 21 22 22 22 22 22 22 23
21 20 20 20 20 20 20 20 19 19 19 19 19 19 19 19 19 19 20 20 19 19 19 19 19 19 19 19 19 20 20 20 20 20 20 21 22 21 22 21 22 22 22
19 20 20 19 20 20 20 20 19 19 19 19 18 19 19 19 19 19 19 19 19 19 19 20 19 20 19 19 19 19 19 19 20 20 20 21 21 20 20 20 21 21 21
18 19 20 19 19 19 19 19 19 19 18 18 18 18 18 18 19 19 19 19 19 19 19 19 19 19 19 19 19 19 19 19 19 19 20 20 20 21 20 20 21 21 21
19 20 20 20 19 19 18 19 18 19 18 18 18 18 18 18 19 19 19 19 19 18 19 19 18 18 19 19 20 20 19 19 19 19 19 18 19 19 19 19 19 20 19
19 19 19 18 17 18 18 18 18 18 18 18 17 18 19 19 20 20 19 19 19 19 19 19 18 18 19 19 19 19 19 18 18 18 18 18 18 18 19 18 19 18 18
16 18 18 17 16 17 17 17 17 17 17 17 17 19 19 19 19 19 19 19 18 18 18 18 18 19 19 19 18 18 18 17 17 17 17 17 18 18 18 18 17 17 18
17 17 17 17 16 16 16 17 16 16 16 16 16 18 18 18 19 19 18 17 18 18 19 19 19 19 19 18 18 18 18 18 18 18 18 18 18 17 17 17 17 17 17
16 16 15 16 16 16 15 15 15 15 16 15 16 17 17 16 17 18 17 17 16 16 16 17 17 17 17 17 17 17 17 18 18 17 18 18 18 16 16 16 16 16 16
16 16 15 15 15 15 15 14 14 14 15 15 16 16 16 16 16 16 16 16 16 15 14 16 15 16 16 16 17 17 17 17 17 17 17 17 17 16 15 16 15 15 15
15 15 15 14 14 14 14 14 14 14 14 14 14 14 15 15 14 15 15 15 15 15 15 15 15 15 15 16 16 16 16 15 15 16 16 16 16 16 15 14 14 14 15
13 13 12 12 13 13 13 13 13 13 14 13 13 14 14 14 13 14 14 14 15 15 15 15 15 14 14 14 13 14 14 15 14 14 14 14 14 13 13 14 14 14 15
11 11 11 11 12 11 12 12 12 12 12 12 13 12 12 13 14 14 14 14 14 14 14 14 14 14 14 14 13 13 14 13 14 14 13 13 13 13 13 13 13 13 13
10 11 11 10 11 11 12 12 12 12 13 13 13 13 12 11 13 13 13 14 14 14 13 13 13 13 12 12 12 12 13 13 13 13 13 13 13 13 13 12 12 12 12
10 10 11 11 11 11 11 12 12 12 13 13 13 13 12 12 12 12 13 13 13 13 12 10 10 10 9 10 11 10 11 12 11 10 10 11 10 11 10 10 10 10 10
10 10 11 11 11 11 10 10 11 11 12 11 12 12 12 12 12 12 12 12 12 11 10 10 10 9 9 9 8 8 7 8 9 8 8 8 8 8 8 9 8 9 9
11 11 11 10 11 11 11 10 10 10 10 11 10 10 10 11 11 11 11 11 10 10 10 9 9 8 7 7 7 7 6 7 7 6 6 7 7 8 8 8 7 7 7
10 9 10 10 10 10 10 10 11 11 11 10 9 9 9 10 10 10 9 10 10 10 9 8 8 7 6 6 7 7 6 6 6 5 5 5 6 7 6 6 5 5 4
9 10 9 9 9 9 9 10 10 10 10 10 9 9 8 9 9 8 8 8 9 8 8 7 6 6 6 6 6 6 4 4 4 5 6 6 6 5 5 4 4 3 3
9 9 9 9 9 9 8 8 8 9 9 9 9 8 8 8 8 8 7 7 7 7 6 6 5 5 4 5 5 4 4 3 4 5 5 5 5 4 4 3 3 3 3
9 9 10 9 8 7 7 7 7 8 9 9 8 8 8 7 8 7 7 6 6 5 5 5 4 4 4 5 5 5 3 2 4 5 5 5 4 4 4 3 3 3 2
8 8 7 8 8 7 6 7 7 7 7 8 7 7 7 7 7 7 6 6 5 4 4 4 4 4 3 4 4 4 4 4 4 4 4 3 3 3 3 3 2 1 -0
9 9 8 8 7 7 7 7 7 7 7 8 8 7 7 7 7 6 6 5 5 4 4 3 3 3 3 3 2 1 2 3 3 3 3 3 2 2 2 1 -0 -2 -1
8 8 9 9 8 8 7 7 7 7 7 7 7 7 7 7 6 6 6 5 4 4 4 3 3 2 2 2 2 3 3 2 2 2 2 1 1 1 1 -2 -2 -1 -1
8 8 8 8 8 8 8 7 7 7 8 8 7 7 7 6 6 6 5 5 4 4 4 3 3 3 2 3 2 2 2 2 1 1 1 1 1 1 0 -1 -2 -1 -1

GFSGL_850_temp_111.txt.gz
Temp
19 20 19 19 19 19 19 20 20 20 20 20 19 18 19 19 19 19 19 19 19 19 19 19 20 20 20 20 20 21 21 21 21 21 21 21 21 21 22 22 21 22 22
20 19 19 19 20 19 19 19 19 19 19 19 19 19 19 19 19 19 19 19 19 19 19 19 19 19 19 19 20 20 20 20 20 20 21 21 20 20 21 20 21 21 21
20 20 19 20 20 20 19 20 19 19 18 19 19 19 19 19 19 20 20 19 19 19 19 19 19 19 19 20 19 20 20 20 20 19 20 20 19 20 20 21 21 21 21
20 20 20 20 20 20 20 20 20 19 19 19 19 18 19 19 19 18 19 19 19 19 19 19 19 19 19 19 19 19 19 20 20 19 20 20 19 19 20 20 21 21 21
19 20 20 20 20 19 20 19 19 19 19 19 18 19 18 19 19 19 19 19 19 19 19 19 19 19 19 19 19 19 19 19 19 19 19 20 20 20 19 19 19 20 21
19 20 20 19 19 19 18 18 19 18 18 18 18 17 18 19 19 19 19 18 19 19 19 19 18 18 19 19 19 19 19 19 19 19 18 19 18 18 18 19 19 19 19
18 19 19 18 19 18 18 18 18 19 18 17 18 18 19 19 19 19 19 19 18 18 19 18 18 19 19 19 19 19 19 18 18 18 18 18 18 17 18 18 18 18 17
20 19 18 18 19 18 17 17 17 17 17 16 17 18 18 19 19 19 19 19 19 19 19 18 19 19 19 19 19 19 18 18 18 18 18 18 17 17 16 16 16 16 17
18 18 18 18 18 17 16 16 16 17 17 17 17 17 17 17 18 18 18 19 18 18 18 18 18 18 18 18 18 18 18 18 18 18 17 17 17 17 17 16 17 16 17
17 17 17 17 17 16 16 16 16 16 16 16 16 17 17 17 17 17 17 17 17 18 18 17 17 17 17 17 17 17 17 18 18 17 17 17 16 16 16 16 16 16 15
16 16 16 16 17 16 15 16 15 15 15 16 16 16 16 16 17 17 17 16 16 16 16 16 16 16 16 16 17 17 17 17 17 17 16 16 15 15 15 15 15 15 15
16 16 16 15 15 15 14 15 14 14 14 14 15 15 15 15 16 15 15 15 15 15 15 15 15 15 15 15 16 17 17 17 16 16 16 15 15 15 15 15 15 14 14
15 15 15 14 14 14 14 14 14 14 14 14 14 14 14 14 14 15 15 14 14 14 14 14 15 15 15 15 15 15 15 15 15 15 15 14 15 15 15 14 14 14 14
12 12 12 12 12 12 13 13 13 13 13 13 12 12 13 13 14 14 14 14 14 14 14 14 15 14 14 14 14 13 13 13 14 14 14 14 14 14 14 14 14 14 14
10 11 11 11 11 11 12 12 12 12 12 12 12 12 12 13 13 13 13 14 14 14 14 14 14 13 12 12 12 11 12 13 13 13 13 13 14 14 13 13 13 13 12
11 10 10 11 11 12 11 12 11 11 12 12 12 12 12 12 12 13 13 13 13 13 13 12 11 11 11 10 11 11 11 11 11 12 12 12 12 12 12 12 12 11 11
11 10 10 10 11 11 12 12 12 12 12 12 12 12 12 12 12 12 12 12 12 12 10 10 10 9 9 9 8 9 9 9 9 11 11 11 10 10 11 11 11 11 10
10 10 10 10 10 10 11 11 11 11 12 12 11 12 12 12 12 12 12 11 11 10 10 9 9 9 9 8 8 8 8 8 8 8 9 9 9 9 9 9 9 8 8
11 11 10 11 10 10 10 10 10 10 11 11 11 11 11 11 11 10 10 10 10 9 9 9 9 8 8 8 8 7 7 8 8 8 8 8 8 8 8 8 7 7 7
10 10 10 10 10 10 10 10 10 10 10 10 10 10 10 10 10 9 9 9 9 9 9 8 8 7 7 7 6 5 5 6 7 7 7 7 7 7 7 6 6 5 4
10 10 9 9 9 9 9 9 9 10 9 9 9 9 8 8 8 8 8 8 8 8 8 7 7 7 6 6 6 5 4 6 6 6 6 6 6 6 5 5 5 4 4
10 10 10 9 9 8 8 8 8 8 9 8 8 8 8 8 7 7 7 7 7 7 7 6 6 5 5 5 5 5 5 5 5 5 5 5 5 4 4 4 4 4 3
10 10 9 9 9 9 9 8 8 8 8 8 7 8 8 7 7 7 7 7 6 6 6 6 5 4 4 5 5 4 4 4 3 4 4 4 3 3 3 3 3 3 3
9 9 8 8 9 9 8 8 7 7 7 7 7 8 8 7 7 7 6 6 6 5 5 4 4 3 3 3 3 4 4 3 3 3 3 3 3 3 3 2 2 2 -0
8 8 8 8 8 8 8 8 8 7 7 7 7 7 7 7 7 6 6 6 6 5 5 4 4 3 3 3 3 3 3 2 2 2 2 2 2 2 2 2 1 1 -1
8 8 8 8 8 8 8 8 8 8 7 7 7 7 7 7 7 7 6 6 6 5 4 4 3 3 3 3 3 3 3 2 2 2 2 2 2 1 1 1 0 -2 -1

GFSGL_850_temp_114.txt.gz
Temp
20 20 20 20 19 19 19 19 20 20 20 19 19 19 19 18 18 18 19 19 19 19 19 19 19 19 19 20 20 20 20 21 21 21 20 19 20 21 21 21 21 21 21
21 20 20 19 19 19 19 20 20 20 20 20 19 19 19 19 18 19 19 19 19 19 19 19 19 19 19 19 19 19 19 20 20 20 20 20 20 20 20 20 20 20 20
20 20 19 19 19 19 19 20 20 20 20 20 19 19 19 19 19 19 19 19 19 19 19 19 19 19 19 19 19 19 19 19 19 20 20 19 20 20 20 20 21 21 20
20 19 19 19 19 19 19 20 20 20 20 19 19 19 18 18 19 19 19 19 19 19 19 19 19 19 19 19 19 19 19 19 19 19 19 19 20 20 20 20 21 20 21
20 20 19 19 20 19 19 19 18 19 19 19 18 18 18 19 19 19 19 19 19 19 18 18 19 19 19 19 19 19 19 20 19 19 19 19 19 19 19 19 19 19 19
21 20 19 18 19 19 19 18 18 18 17 17 17 18 18 18 19 19 19 19 19 18 18 19 19 19 19 19 19 19 19 19 19 19 19 18 18 18 18 17 17 18 18
19 19 19 18 18 18 18 18 18 18 17 17 18 18 18 18 19 19 19 19 19 18 18 18 18 19 19 18 19 19 18 19 18 18 18 18 18 17 17 17 17 17 16
18 20 20 19 18 18 18 18 18 17 17 17 17 18 17 17 18 18 18 19 19 19 18 18 18 18 18 18 18 18 17 17 17 18 18 18 17 17 16 16 17 17 16
19 19 19 18 17 16 17 18 17 17 17 17 17 17 17 16 17 18 18 18 18 18 18 18 18 18 18 17 17 17 17 17 17 17 17 17 17 17 17 16 17 17 17
18 18 17 17 16 17 16 16 16 16 17 17 16 16 16 16 17 17 18 17 18 18 17 17 17 17 17 17 17 17 17 17 17 16 17 17 16 16 16 16 16 17 16
16 16 16 16 16 15 16 16 16 16 15 15 15 15 16 16 16 17 16 17 17 17 17 16 15 16 16 16 16 17 17 17 17 16 16 16 16 15 15 15 15 15 15
15 16 16 15 15 15 15 16 15 15 15 15 14 15 15 15 15 15 15 15 15 15 15 15 15 15 15 16 16 16 16 16 16 16 15 15 15 14 14 14 14 14 14
16 16 15 15 15 14 14 14 14 14 14 14 14 14 14 14 14 14 14 13 14 14 14 14 14 14 15 15 15 15 15 15 14 14 14 14 14 14 13 12 13 13 13
14 14 14 14 14 14 14 14 14 14 14 14 14 14 13 13 13 13 13 13 13 13 13 14 14 14 14 14 14 14 13 13 13 14 13 13 13 13 13 13 13 13 13
12 12 12 12 12 12 12 13 13 13 13 12 12 13 13 12 12 12 13 13 13 13 13 13 13 13 13 12 12 12 12 12 13 12 12 12 12 12 13 13 13 13 13
11 11 11 12 12 11 11 12 11 11 11 11 11 12 12 12 12 12 12 13 13 13 13 13 12 12 11 11 11 10 10 11 11 11 11 11 12 12 13 12 11 12 12
10 10 11 11 11 11 11 12 12 12 12 11 11 11 11 11 12 12 12 13 12 12 12 11 11 11 10 10 10 9 9 9 9 9 9 10 10 10 10 11 11 11 10
10 10 10 10 10 10 10 10 11 11 11 12 11 11 12 12 12 12 12 12 12 11 10 10 9 9 9 9 8 8 8 8 8 8 8 8 8 9 9 9 9 9 9
11 10 10 10 10 10 10 10 10 10 10 10 10 11 11 11 11 11 11 11 10 10 10 9 9 9 8 8 7 7 7 7 7 7 7 7 8 8 8 7 7 7 6
10 10 10 10 10 10 10 10 10 10 10 10 9 10 10 10 10 10 10 9 10 9 9 9 9 8 8 7 7 7 7 7 6 6 6 7 7 7 6 6 6 5 5
10 10 10 10 10 10 10 10 9 9 9 9 9 9 9 9 9 9 8 8 8 8 8 8 8 8 7 7 6 6 6 6 6 6 6 6 6 6 6 5 5 4 4
10 10 10 10 10 10 9 9 8 8 8 8 8 8 8 8 8 7 8 8 7 7 7 7 7 6 6 6 5 5 6 5 5 5 5 5 4 4 4 4 3 3 3
10 10 10 10 9 9 9 9 9 8 7 7 8 7 7 7 7 7 7 7 7 7 6 6 6 5 5 5 4 5 4 4 4 4 4 4 3 3 3 3 3 2 2
9 9 9 9 9 8 8 9 9 9 8 7 7 7 7 7 7 7 7 6 6 6 6 6 5 4 4 4 4 4 4 3 3 3 3 3 3 3 3 2 2 2 2
8 8 8 8 8 8 8 8 8 8 8 8 7 7 7 7 7 7 7 7 6 6 6 6 5 4 4 4 4 4 3 3 3 3 3 2 2 2 2 2 2 2 1
8 8 8 7 7 7 8 8 8 8 8 8 8 7 7 7 7 7 7 7 6 6 6 5 5 4 4 4 3 3 3 3 3 3 2 2 2 2 2 2 1 1 0

GFSGL_850_temp_117.txt.gz
Temp
20 20 20 20 20 19 19 20 20 20 20 19 19 19 19 19 18 18 18 18 19 19 19 19 18 18 19 19 19 19 19 20 20 20 20 19 20 20 20 20 20 20 20
21 20 20 19 19 19 19 20 20 20 20 19 19 18 18 19 18 18 18 18 19 19 19 19 19 19 19 19 18 19 19 19 19 19 19 19 19 19 20 20 20 20 21
21 20 20 19 19 19 19 19 19 19 19 19 19 19 19 19 19 18 18 18 19 19 19 19 19 18 18 18 19 19 19 19 19 19 19 19 19 19 20 20 20 20 20
21 20 20 20 19 19 19 19 19 19 19 19 19 19 19 19 19 19 19 18 18 19 19 19 19 19 18 18 18 18 19 19 19 19 20 19 19 19 20 20 20 20 19
21 21 20 20 19 19 19 19 19 19 18 18 18 18 18 18 18 19 19 18 19 18 18 19 19 19 19 19 19 18 19 19 19 19 19 19 19 18 19 19 19 18 18
21 21 20 19 19 19 18 19 18 18 18 18 18 17 17 18 18 18 19 19 18 19 18 18 19 18 19 19 19 19 19 19 18 18 18 18 19 19 19 18 18 18 18
20 20 20 20 19 19 18 18 18 18 18 18 18 18 17 18 18 18 18 19 19 19 18 19 18 19 18 18 18 18 18 18 19 18 18 18 18 18 18 18 17 17 17
19 18 19 19 19 20 18 18 18 17 17 17 17 17 16 17 17 18 18 18 18 19 18 18 18 18 18 18 18 18 18 18 18 18 18 18 18 18 18 17 17 16 16
16 18 18 18 18 19 18 17 16 17 17 17 17 16 16 16 17 17 17 17 18 18 18 18 18 19 18 17 18 18 17 17 18 18 18 18 18 18 17 16 16 16 16
15 17 17 17 17 17 17 17 16 16 17 16 16 16 15 16 16 16 16 16 17 17 17 16 17 17 17 16 16 16 16 17 17 17 16 16 16 16 16 16 16 16 16
16 16 16 16 17 17 15 15 15 16 16 16 15 15 15 15 16 16 15 16 17 17 17 17 16 16 16 15 16 16 16 16 15 15 15 15 15 15 15 15 15 15 15
15 16 15 15 15 15 15 15 15 15 15 15 15 15 15 15 15 15 16 16 15 15 15 15 15 15 15 15 15 15 15 15 15 14 14 14 14 14 14 14 14 14 14
15 16 15 14 15 15 14 15 14 14 14 14 14 14 14 14 14 15 14 14 14 14 14 13 14 14 14 14 14 13 13 14 14 14 14 13 13 13 13 13 13 13 13
14 14 15 15 14 14 14 14 14 14 14 14 14 13 13 13 14 13 13 13 13 13 13 13 13 13 13 13 13 13 13 13 13 13 13 13 12 12 11 11 12 12 12
13 13 13 13 13 13 13 13 13 13 13 13 13 13 12 12 12 12 12 12 12 13 13 13 13 13 13 13 12 12 12 12 12 12 12 12 11 11 11 11 11 11 12
11 11 11 11 12 12 12 12 12 12 11 12 11 11 11 11 11 11 12 12 12 13 13 13 13 12 12 12 11 11 11 10 10 10 10 10 10 10 10 10 10 11 11
11 11 11 11 11 11 11 12 11 11 11 11 11 10 10 11 10 10 11 11 12 13 13 12 12 11 11 10 9 9 9 9 8 8 8 9 9 9 9 9 9 9 9
10 10 10 10 10 10 10 10 11 11 11 11 11 11 11 11 11 11 11 11 12 11 11 11 10 10 9 9 9 8 8 8 7 7 8 8 8 8 8 8 9 9 8
10 10 10 10 10 10 10 11 11 11 11 10 10 10 11 11 11 11 10 10 10 10 10 10 9 9 9 8 8 7 7 7 6 7 7 7 7 7 7 7 7 7 7
10 10 10 10 9 9 9 9 9 10 10 10 10 10 10 10 10 10 9 9 9 9 9 9 9 8 8 8 7 7 7 6 6 6 6 6 6 6 6 6 6 5 5
10 10 10 10 10 10 10 9 9 9 9 9 9 9 9 9 9 8 8 8 8 9 9 8 8 8 7 7 7 7 6 5 5 5 5 5 5 5 4 4 4 4 4
10 10 10 10 10 10 10 9 9 9 9 9 8 8 8 8 8 7 7 8 8 7 7 7 7 7 6 6 6 5 5 4 4 5 5 5 5 4 4 4 4 4 4
10 10 10 10 9 9 9 9 9 8 8 8 8 7 8 7 7 7 7 7 7 7 7 6 6 6 5 5 4 4 4 4 4 4 4 4 4 4 3 3 3 3 2
9 9 9 9 9 9 9 8 8 8 8 8 8 8 7 7 7 7 7 7 7 6 6 6 6 5 5 4 4 4 4 4 4 4 3 3 3 3 3 3 2 2 1
9 8 8 8 8 8 8 8 8 8 8 8 8 8 8 7 7 7 7 7 7 6 6 6 6 5 5 4 4 4 4 4 3 3 3 3 3 3 3 2 2 1 1
9 9 8 8 8 7 7 7 8 8 8 8 8 8 8 7 7 7 7 7 7 7 6 6 5 5 4 4 3 3 3 3 3 3 3 3 3 2 2 2 1 1 1

GFSGL_850_temp_120.txt.gz
Temp
20 20 19 19 19 19 19 19 19 19 19 19 19 19 18 18 18 18 18 18 18 18 18 19 18 18 18 18 18 19 19 19 19 19 19 19 19 19 19 19 20 20 20
21 21 20 19 19 19 19 19 19 19 19 19 19 19 19 18 18 18 18 18 18 18 18 18 18 18 18 18 18 18 18 18 18 19 19 19 19 19 19 19 20 20 20
21 21 21 20 20 20 19 19 19 19 19 19 19 19 18 18 18 18 18 18 18 19 19 19 18 18 18 18 18 18 18 18 18 18 19 19 19 19 19 19 18 18 18
21 21 21 21 20 20 19 19 19 18 18 19 18 18 18 18 18 18 18 18 18 19 19 18 19 19 18 18 18 18 18 18 18 18 18 19 19 19 19 19 18 17 17
21 21 21 21 20 20 19 19 19 18 18 18 18 18 18 18 18 18 18 18 18 18 19 19 19 19 18 18 18 18 18 18 19 19 19 19 19 19 18 18 18 18 17
20 21 21 20 20 20 19 18 18 18 18 18 18 17 17 18 18 18 18 18 18 18 19 19 19 19 19 18 19 18 18 18 19 18 19 18 18 18 18 18 18 18 17
19 19 20 19 19 19 19 19 18 18 18 18 18 17 17 17 17 18 18 18 18 18 18 18 18 18 18 19 19 18 18 18 18 18 18 18 18 18 17 17 17 17 17
19 18 18 18 18 17 18 18 18 18 18 18 17 17 16 17 17 17 17 17 18 18 18 18 18 18 18 18 18 18 18 18 18 18 18 18 18 18 17 17 16 16 16
17 17 17 16 16 17 16 17 17 17 17 17 16 16 16 15 16 16 16 17 17 17 18 18 18 18 18 18 18 17 17 17 18 17 18 18 18 17 17 16 16 16 16
18 16 16 16 16 16 16 16 17 17 17 16 16 16 15 15 15 16 15 16 16 16 16 17 17 17 17 17 16 16 16 16 16 17 17 17 17 17 16 16 16 16 15
17 16 15 15 16 16 16 16 16 16 16 16 16 16 15 15 15 15 15 15 15 15 15 16 16 16 17 16 15 15 15 16 16 15 15 15 15 15 15 15 15 15 15
16 16 15 14 15 15 15 15 15 15 15 15 16 17 15 15 14 15 15 15 15 15 15 15 15 15 15 14 15 15 15 14 14 14 14 14 14 14 14 14 14 14 14
15 15 15 14 14 14 14 15 15 14 15 15 15 14 14 14 14 14 14 14 14 14 14 14 14 14 14 14 13 13 14 14 13 13 13 13 13 13 13 13 13 12 13
14 14 14 14 14 14 14 15 14 14 14 14 14 13 13 13 13 13 13 13 13 13 13 13 13 13 13 13 13 13 13 13 13 12 12 12 12 11 11 11 11 11 11
13 13 13 13 13 13 13 13 13 14 13 13 13 13 12 12 12 11 11 11 11 11 12 12 13 13 13 13 12 12 12 12 11 11 11 11 10 10 10 10 11 11 10
12 12 12 12 11 11 12 11 11 11 11 11 11 10 10 10 10 10 10 10 10 11 12 12 12 12 12 11 11 11 11 10 10 10 9 9 9 9 9 9 10 10 10
11 11 12 12 11 12 11 11 11 11 10 10 10 10 10 10 10 10 10 10 10 11 11 11 11 10 10 10 10 10 9 9 8 8 8 8 8 8 8 9 9 9 10
11 10 11 10 11 11 11 11 11 11 11 11 11 10 11 10 10 10 11 11 11 11 11 10 11 10 10 10 9 9 9 9 8 8 7 7 7 7 7 7 7 7 8
11 11 11 10 10 10 11 10 10 10 10 10 10 10 10 10 10 10 10 11 11 11 11 10 9 9 9 9 8 8 8 7 7 7 7 7 7 7 7 7 7 7 7
10 10 10 10 10 10 10 10 10 10 10 10 10 10 10 9 9 9 9 9 9 9 9 10 9 9 8 8 7 7 7 6 6 6 6 6 6 6 6 6 6 6 5
10 10 10 10 10 10 10 10 10 10 9 9 9 9 9 9 9 8 8 8 8 9 9 9 8 8 7 7 7 6 6 6 6 6 6 5 6 6 6 5 5 4 4
10 10 10 10 10 9 9 9 9 9 9 9 8 8 8 8 8 8 8 8 7 7 8 7 7 7 6 6 6 5 5 5 5 5 5 5 4 4 4 4 4 4 3
9 9 9 9 9 9 9 9 9 9 8 8 8 8 8 8 7 7 7 7 7 7 7 7 6 6 6 6 5 5 4 4 4 4 4 4 4 4 3 3 3 2 2
9 9 9 9 9 9 8 8 8 8 8 8 8 8 8 8 7 7 7 7 7 7 6 6 6 6 5 5 4 4 4 4 3 3 3 3 3 3 3 2 2 2 1
9 9 8 8 8 8 8 8 8 8 8 8 8 8 8 8 7 7 7 7 7 7 6 6 6 6 5 4 4 3 3 3 3 3 3 3 3 2 2 2 2 2 1
9 9 8 8 8 7 7 7 7 7 7 7 8 8 7 7 7 7 7 7 7 7 7 6 6 6 5 4 4 3 3 3 3 3 2 2 2 2 2 2 2 1 1

GFSGL_850_temp_123.txt.gz
Temp
20 19 19 19 19 19 19 19 19 19 19 19 19 19 19 19 19 18 18 18 18 18 18 18 19 19 18 18 19 19 19 19 18 19 19 19 19 18 19 19 19 18 20
21 20 20 19 19 19 19 19 19 19 19 19 19 19 19 19 18 18 18 18 18 18 18 18 19 19 19 18 18 18 18 18 18 18 18 18 18 18 18 19 18 16 19
21 21 20 20 20 19 20 19 19 19 19 19 19 19 19 19 18 18 18 18 18 18 18 18 18 18 18 18 18 18 18 18 18 18 17 19 19 18 18 18 18 17 16
21 21 21 20 20 20 20 20 19 19 19 19 19 19 18 19 18 18 18 18 18 18 18 18 18 18 18 18 18 18 18 18 18 18 17 17 18 18 18 17 16 17 15
21 21 21 20 20 20 20 20 20 19 18 18 18 18 18 18 18 18 18 18 18 18 18 18 18 18 18 18 18 18 18 18 18 18 17 17 17 17 17 18 16 16 16
20 21 20 20 20 20 20 19 19 19 18 18 18 18 18 18 18 18 18 18 18 18 18 18 18 18 18 18 18 19 18 18 18 18 18 18 18 18 18 17 16 16 16
19 19 20 18 19 19 18 17 18 19 18 18 18 18 18 18 17 17 18 18 18 18 18 18 18 18 18 18 18 18 18 18 18 18 18 18 18 18 17 17 17 17 16
19 19 18 18 18 18 18 17 16 17 17 17 18 18 18 17 17 17 17 17 18 18 18 18 18 18 18 18 18 18 18 18 18 18 18 18 17 17 17 16 16 16 16
18 18 18 17 17 17 18 17 16 16 16 17 17 17 17 17 16 15 16 17 17 17 18 18 18 17 17 17 17 17 17 17 17 17 17 17 18 17 17 16 15 15 15
18 17 17 17 17 15 16 16 15 16 16 16 16 16 16 16 15 15 15 15 16 17 16 17 17 16 16 17 17 17 17 16 16 16 17 17 17 16 16 16 16 15 15
16 16 15 16 15 15 15 16 16 15 15 15 15 16 16 15 14 14 15 14 14 15 15 16 16 17 16 16 16 16 16 15 15 15 15 15 15 15 15 15 15 15 15
16 15 15 15 15 15 15 15 15 15 15 15 14 15 14 14 14 14 15 14 14 14 15 14 14 14 14 14 15 15 15 15 15 14 14 14 14 14 14 14 14 14 14
14 15 15 15 15 15 14 14 14 14 14 14 15 14 14 15 14 14 15 14 14 14 14 14 14 13 13 13 14 14 14 13 13 13 13 13 13 13 13 13 13 13 13
14 14 14 14 14 14 14 14 13 14 14 14 14 14 14 13 13 13 13 13 13 13 13 12 12 12 12 13 13 13 12 12 12 12 13 12 12 12 12 11 11 11 11
13 13 13 13 13 13 13 13 13 13 13 13 13 13 12 12 11 11 11 11 11 11 11 11 11 11 11 12 12 12 12 12 12 12 11 11 11 10 10 10 11 11 10
12 12 11 12 11 12 12 12 12 11 12 11 11 11 11 11 10 10 10 10 10 10 10 10 11 11 11 11 11 11 11 11 11 10 10 10 9 9 9 10 10 9 9
11 11 11 11 11 11 11 11 11 11 11 11 10 10 10 10 9 10 10 10 10 10 10 11 10 10 10 10 10 10 10 10 9 9 9 9 9 9 9 8 9 9 9
11 11 10 10 11 11 11 11 11 11 10 10 10 10 10 10 10 10 10 11 11 11 11 10 11 10 9 9 9 9 9 8 8 8 7 7 8 8 8 8 8 8 8
11 11 11 11 11 11 11 11 11 11 11 10 10 10 10 10 10 10 10 10 10 10 10 10 10 10 10 9 8 8 8 8 8 8 7 7 7 6 7 7 7 7 7
11 10 10 10 10 10 10 10 10 10 10 10 9 9 9 9 9 9 9 9 9 9 10 9 9 9 9 8 8 8 7 7 7 7 7 6 6 6 6 6 6 5 5
10 10 10 10 10 10 10 10 10 10 9 9 9 9 9 9 8 8 8 8 8 9 9 9 8 8 8 8 7 7 7 7 6 6 5 6 6 5 5 5 4 4 4
10 10 10 10 10 10 10 10 10 10 9 9 9 9 9 8 8 8 8 8 8 8 8 8 8 7 7 7 6 6 6 5 5 5 4 4 4 4 4 4 4 3 3
10 9 9 10 10 10 10 9 9 9 9 9 9 9 9 8 8 8 7 7 7 7 7 7 7 7 6 6 6 5 5 4 4 4 4 4 4 4 3 3 3 3 2
10 10 9 8 9 9 9 9 9 8 8 8 8 8 8 8 8 8 8 7 7 7 7 7 6 6 6 6 5 5 4 4 4 3 3 3 3 3 3 3 2 2 1
9 9 9 9 8 8 8 8 8 8 8 8 7 8 8 8 8 7 7 7 7 7 7 7 6 6 6 6 5 4 4 4 3 3 3 3 3 3 2 2 1 1 1
9 9 9 8 8 8 7 7 7 7 7 6 7 7 8 8 8 7 7 7 7 7 7 7 7 6 6 5 5 4 4 4 3 3 3 3 3 2 2 2 2 0 0